<?xml version='1.0' encoding='UTF-8'?><gpx version="1.1" creator="JPX - https://github.com/jenetics/jpx" xmlns="http://www.topografix.com/GPX/1/1"><trk><trkseg><trkpt lat="45.6342837" lon="11.4155973"><ele>153.0</ele><time>2026-03-22T08:08:02.624Z</time></trkpt><trkpt lat="45.634304" lon="11.4157486"><ele>153.0</ele><time>2026-03-22T08:08:03.7Z</time></trkpt><trkpt lat="45.6343383" lon="11.4158681"><ele>153.0</ele><time>2026-03-22T08:08:05.7Z</time></trkpt><trkpt lat="45.6343082" lon="11.4160187"><ele>153.0</ele><time>2026-03-22T08:08:07.7Z</time></trkpt><trkpt lat="45.6342636" lon="11.4161546"><ele>153.0</ele><time>2026-03-22T08:08:09.699Z</time></trkpt><trkpt lat="45.6342489" lon="11.4162442"><ele>151.5</ele><time>2026-03-22T08:08:10.699Z</time></trkpt><trkpt lat="45.6342505" lon="11.4163616"><ele>150.0</ele><time>2026-03-22T08:08:11.699Z</time></trkpt><trkpt lat="45.6342502" lon="11.4164714"><ele>148.5</ele><time>2026-03-22T08:08:12.7Z</time></trkpt><trkpt lat="45.6342662" lon="11.4166321"><ele>147.0</ele><time>2026-03-22T08:08:13.701Z</time></trkpt><trkpt lat="45.6342787" lon="11.4167528"><ele>145.5</ele><time>2026-03-22T08:08:14.7Z</time></trkpt><trkpt lat="45.6342766" lon="11.416857"><ele>144.0</ele><time>2026-03-22T08:08:15.7Z</time></trkpt><trkpt lat="45.6342784" lon="11.4169607"><ele>144.0</ele><time>2026-03-22T08:08:16.7Z</time></trkpt><trkpt lat="45.6342616" lon="11.4170576"><ele>144.0</ele><time>2026-03-22T08:08:17.7Z</time></trkpt><trkpt lat="45.6342503" lon="11.4171691"><ele>144.0</ele><time>2026-03-22T08:08:18.7Z</time></trkpt><trkpt lat="45.6342927" lon="11.4172897"><ele>144.0</ele><time>2026-03-22T08:08:19.699Z</time></trkpt><trkpt lat="45.6343207" lon="11.4173797"><ele>144.0</ele><time>2026-03-22T08:08:20.7Z</time></trkpt><trkpt lat="45.6344204" lon="11.4174261"><ele>144.0</ele><time>2026-03-22T08:08:21.701Z</time></trkpt><trkpt lat="45.6344942" lon="11.4174467"><ele>143.0</ele><time>2026-03-22T08:08:22.699Z</time></trkpt><trkpt lat="45.6345844" lon="11.4174519"><ele>142.0</ele><time>2026-03-22T08:08:23.698Z</time></trkpt><trkpt lat="45.6346671" lon="11.417465"><ele>141.0</ele><time>2026-03-22T08:08:24.699Z</time></trkpt><trkpt lat="45.6347435" lon="11.4174498"><ele>140.0</ele><time>2026-03-22T08:08:25.7Z</time></trkpt><trkpt lat="45.6348289" lon="11.4174614"><ele>139.0</ele><time>2026-03-22T08:08:26.699Z</time></trkpt><trkpt lat="45.6349084" lon="11.4174691"><ele>138.0</ele><time>2026-03-22T08:08:27.7Z</time></trkpt><trkpt lat="45.6348484" lon="11.4175435"><ele>138.0</ele><time>2026-03-22T08:08:28.701Z</time></trkpt><trkpt lat="45.6348711" lon="11.4176926"><ele>138.0</ele><time>2026-03-22T08:08:31.7Z</time></trkpt><trkpt lat="45.6347977" lon="11.4178901"><ele>138.0</ele><time>2026-03-22T08:08:33.701Z</time></trkpt><trkpt lat="45.6346799" lon="11.4182166"><ele>136.0</ele><time>2026-03-22T08:08:35.701Z</time></trkpt><trkpt lat="45.6346329" lon="11.4183259"><ele>134.0</ele><time>2026-03-22T08:08:36.7Z</time></trkpt><trkpt lat="45.6345913" lon="11.4184452"><ele>132.0</ele><time>2026-03-22T08:08:37.699Z</time></trkpt><trkpt lat="45.6345334" lon="11.4185665"><ele>130.0</ele><time>2026-03-22T08:08:38.698Z</time></trkpt><trkpt lat="45.6344866" lon="11.4186774"><ele>128.0</ele><time>2026-03-22T08:08:39.699Z</time></trkpt><trkpt lat="45.6343843" lon="11.4187597"><ele>126.66666666666666</ele><time>2026-03-22T08:08:40.7Z</time></trkpt><trkpt lat="45.6343319" lon="11.4188362"><ele>125.33333333333333</ele><time>2026-03-22T08:08:41.7Z</time></trkpt><trkpt lat="45.6342804" lon="11.4189542"><ele>124.0</ele><time>2026-03-22T08:08:42.699Z</time></trkpt><trkpt lat="45.6342604" lon="11.4190541"><ele>122.66666666666666</ele><time>2026-03-22T08:08:43.699Z</time></trkpt><trkpt lat="45.63422" lon="11.4191326"><ele>121.33333333333333</ele><time>2026-03-22T08:08:44.699Z</time></trkpt><trkpt lat="45.6342523" lon="11.419248"><ele>120.0</ele><time>2026-03-22T08:08:45.699Z</time></trkpt><trkpt lat="45.6342558" lon="11.4193708"><ele>120.0</ele><time>2026-03-22T08:08:46.699Z</time></trkpt><trkpt lat="45.6342942" lon="11.4195254"><ele>120.0</ele><time>2026-03-22T08:08:47.7Z</time></trkpt><trkpt lat="45.634314" lon="11.419641"><ele>120.0</ele><time>2026-03-22T08:08:48.699Z</time></trkpt><trkpt lat="45.6343409" lon="11.4197651"><ele>120.0</ele><time>2026-03-22T08:08:49.699Z</time></trkpt><trkpt lat="45.6343426" lon="11.4199235"><ele>120.0</ele><time>2026-03-22T08:08:50.7Z</time></trkpt><trkpt lat="45.6343793" lon="11.4200864"><ele>118.0</ele><time>2026-03-22T08:08:51.7Z</time></trkpt><trkpt lat="45.6344061" lon="11.4202357"><ele>116.0</ele><time>2026-03-22T08:08:52.699Z</time></trkpt><trkpt lat="45.6344507" lon="11.4204047"><ele>114.0</ele><time>2026-03-22T08:08:53.7Z</time></trkpt><trkpt lat="45.6344927" lon="11.4205699"><ele>112.0</ele><time>2026-03-22T08:08:54.7Z</time></trkpt><trkpt lat="45.6345298" lon="11.4207299"><ele>109.75</ele><time>2026-03-22T08:08:55.7Z</time></trkpt><trkpt lat="45.6345479" lon="11.4208896"><ele>107.5</ele><time>2026-03-22T08:08:56.701Z</time></trkpt><trkpt lat="45.6345821" lon="11.4210649"><ele>105.25</ele><time>2026-03-22T08:08:57.7Z</time></trkpt><trkpt lat="45.6346178" lon="11.4212258"><ele>103.0</ele><time>2026-03-22T08:08:58.699Z</time></trkpt><trkpt lat="45.6346681" lon="11.421394"><ele>101.5</ele><time>2026-03-22T08:08:59.699Z</time></trkpt><trkpt lat="45.6346962" lon="11.421608"><ele>100.0</ele><time>2026-03-22T08:09:00.7Z</time></trkpt><trkpt lat="45.6347351" lon="11.4217685"><ele>98.5</ele><time>2026-03-22T08:09:01.698Z</time></trkpt><trkpt lat="45.6347791" lon="11.4219355"><ele>97.0</ele><time>2026-03-22T08:09:02.699Z</time></trkpt><trkpt lat="45.6348152" lon="11.4220918"><ele>95.75</ele><time>2026-03-22T08:09:03.701Z</time></trkpt><trkpt lat="45.634856" lon="11.4222592"><ele>94.5</ele><time>2026-03-22T08:09:04.7Z</time></trkpt><trkpt lat="45.6348955" lon="11.4224206"><ele>93.25</ele><time>2026-03-22T08:09:05.698Z</time></trkpt><trkpt lat="45.6349453" lon="11.4225656"><ele>92.0</ele><time>2026-03-22T08:09:06.699Z</time></trkpt><trkpt lat="45.6349861" lon="11.422705"><ele>92.0</ele><time>2026-03-22T08:09:07.698Z</time></trkpt><trkpt lat="45.63502" lon="11.4228517"><ele>92.0</ele><time>2026-03-22T08:09:08.699Z</time></trkpt><trkpt lat="45.6350489" lon="11.422959"><ele>92.0</ele><time>2026-03-22T08:09:09.7Z</time></trkpt><trkpt lat="45.635065" lon="11.4230534"><ele>92.0</ele><time>2026-03-22T08:09:10.699Z</time></trkpt><trkpt lat="45.6350985" lon="11.4231874"><ele>92.0</ele><time>2026-03-22T08:09:12.7Z</time></trkpt><trkpt lat="45.635249" lon="11.4232436"><ele>91.83333333333334</ele><time>2026-03-22T08:09:18.698Z</time></trkpt><trkpt lat="45.6353379" lon="11.4231845"><ele>91.66666666666667</ele><time>2026-03-22T08:09:21.7Z</time></trkpt><trkpt lat="45.6354129" lon="11.4231371"><ele>91.5</ele><time>2026-03-22T08:09:23.701Z</time></trkpt><trkpt lat="45.6354778" lon="11.4230944"><ele>91.33333333333333</ele><time>2026-03-22T08:09:25.7Z</time></trkpt><trkpt lat="45.6355455" lon="11.4230563"><ele>91.16666666666666</ele><time>2026-03-22T08:09:27.699Z</time></trkpt><trkpt lat="45.6356215" lon="11.422999"><ele>91.0</ele><time>2026-03-22T08:09:29.7Z</time></trkpt><trkpt lat="45.6357201" lon="11.4229491"><ele>91.0</ele><time>2026-03-22T08:09:31.7Z</time></trkpt><trkpt lat="45.6357726" lon="11.4228938"><ele>91.0</ele><time>2026-03-22T08:09:32.699Z</time></trkpt><trkpt lat="45.6358621" lon="11.4228387"><ele>91.0</ele><time>2026-03-22T08:09:34.7Z</time></trkpt><trkpt lat="45.6359591" lon="11.4227811"><ele>91.0</ele><time>2026-03-22T08:09:36.7Z</time></trkpt><trkpt lat="45.6360497" lon="11.4227258"><ele>91.0</ele><time>2026-03-22T08:09:38.698Z</time></trkpt><trkpt lat="45.6361215" lon="11.4227107"><ele>91.0</ele><time>2026-03-22T08:09:40.699Z</time></trkpt><trkpt lat="45.6362065" lon="11.4226633"><ele>91.0</ele><time>2026-03-22T08:09:42.7Z</time></trkpt><trkpt lat="45.6363071" lon="11.4225956"><ele>91.0</ele><time>2026-03-22T08:09:44.699Z</time></trkpt><trkpt lat="45.6363979" lon="11.4225428"><ele>91.0</ele><time>2026-03-22T08:09:46.699Z</time></trkpt><trkpt lat="45.6364843" lon="11.4225275"><ele>91.0</ele><time>2026-03-22T08:09:48.701Z</time></trkpt><trkpt lat="45.6365753" lon="11.4224837"><ele>91.0</ele><time>2026-03-22T08:09:50.699Z</time></trkpt><trkpt lat="45.6366861" lon="11.4224218"><ele>91.0</ele><time>2026-03-22T08:09:52.7Z</time></trkpt><trkpt lat="45.6367609" lon="11.4223787"><ele>91.0</ele><time>2026-03-22T08:09:54.7Z</time></trkpt><trkpt lat="45.636855" lon="11.4223345"><ele>91.0</ele><time>2026-03-22T08:09:56.699Z</time></trkpt><trkpt lat="45.63694" lon="11.4223215"><ele>91.0</ele><time>2026-03-22T08:09:58.699Z</time></trkpt><trkpt lat="45.6370235" lon="11.4222864"><ele>91.0</ele><time>2026-03-22T08:10:00.699Z</time></trkpt><trkpt lat="45.6371144" lon="11.4222474"><ele>91.0</ele><time>2026-03-22T08:10:02.699Z</time></trkpt><trkpt lat="45.6372012" lon="11.4222209"><ele>91.0</ele><time>2026-03-22T08:10:04.7Z</time></trkpt><trkpt lat="45.6372691" lon="11.4221832"><ele>91.0</ele><time>2026-03-22T08:10:06.699Z</time></trkpt><trkpt lat="45.6373351" lon="11.4221559"><ele>91.0</ele><time>2026-03-22T08:10:08.7Z</time></trkpt><trkpt lat="45.6374163" lon="11.4221321"><ele>91.0</ele><time>2026-03-22T08:10:10.701Z</time></trkpt><trkpt lat="45.6375362" lon="11.4219969"><ele>91.0</ele><time>2026-03-22T08:10:12.7Z</time></trkpt><trkpt lat="45.6376362" lon="11.4219561"><ele>91.16666666666666</ele><time>2026-03-22T08:10:14.7Z</time></trkpt><trkpt lat="45.637722" lon="11.4219466"><ele>91.33333333333333</ele><time>2026-03-22T08:10:15.701Z</time></trkpt><trkpt lat="45.6378237" lon="11.4219025"><ele>91.5</ele><time>2026-03-22T08:10:17.7Z</time></trkpt><trkpt lat="45.6378933" lon="11.4218641"><ele>91.66666666666667</ele><time>2026-03-22T08:10:19.7Z</time></trkpt><trkpt lat="45.6379834" lon="11.4218199"><ele>91.83333333333334</ele><time>2026-03-22T08:10:21.698Z</time></trkpt><trkpt lat="45.6380527" lon="11.4217948"><ele>92.0</ele><time>2026-03-22T08:10:22.699Z</time></trkpt><trkpt lat="45.6381642" lon="11.4217856"><ele>92.0</ele><time>2026-03-22T08:10:24.7Z</time></trkpt><trkpt lat="45.6382639" lon="11.4217178"><ele>92.0</ele><time>2026-03-22T08:10:26.7Z</time></trkpt><trkpt lat="45.6383524" lon="11.4216686"><ele>92.0</ele><time>2026-03-22T08:10:28.701Z</time></trkpt><trkpt lat="45.638441" lon="11.4216264"><ele>92.0</ele><time>2026-03-22T08:10:30.699Z</time></trkpt><trkpt lat="45.6385206" lon="11.4215742"><ele>92.0</ele><time>2026-03-22T08:10:32.7Z</time></trkpt><trkpt lat="45.6386003" lon="11.4215486"><ele>92.33333333333334</ele><time>2026-03-22T08:10:34.7Z</time></trkpt><trkpt lat="45.6386806" lon="11.4215122"><ele>92.66666666666667</ele><time>2026-03-22T08:10:36.699Z</time></trkpt><trkpt lat="45.6387389" lon="11.4214766"><ele>93.0</ele><time>2026-03-22T08:10:37.7Z</time></trkpt><trkpt lat="45.6388309" lon="11.4214286"><ele>93.33333333333333</ele><time>2026-03-22T08:10:39.699Z</time></trkpt><trkpt lat="45.6389063" lon="11.4213803"><ele>93.66666666666666</ele><time>2026-03-22T08:10:41.7Z</time></trkpt><trkpt lat="45.6389982" lon="11.4213273"><ele>94.0</ele><time>2026-03-22T08:10:43.7Z</time></trkpt><trkpt lat="45.6390608" lon="11.4212923"><ele>94.16666666666666</ele><time>2026-03-22T08:10:45.7Z</time></trkpt><trkpt lat="45.639154" lon="11.4212673"><ele>94.33333333333333</ele><time>2026-03-22T08:10:47.7Z</time></trkpt><trkpt lat="45.6392418" lon="11.4212502"><ele>94.5</ele><time>2026-03-22T08:10:49.7Z</time></trkpt><trkpt lat="45.6393266" lon="11.4212283"><ele>94.66666666666667</ele><time>2026-03-22T08:10:52.699Z</time></trkpt><trkpt lat="45.6394027" lon="11.4212371"><ele>94.83333333333334</ele><time>2026-03-22T08:10:54.701Z</time></trkpt><trkpt lat="45.6394682" lon="11.4213449"><ele>95.0</ele><time>2026-03-22T08:10:57.701Z</time></trkpt><trkpt lat="45.6394972" lon="11.4215363"><ele>95.0</ele><time>2026-03-22T08:10:59.699Z</time></trkpt><trkpt lat="45.6395322" lon="11.4216321"><ele>95.0</ele><time>2026-03-22T08:11:01.699Z</time></trkpt><trkpt lat="45.6395755" lon="11.421768"><ele>95.0</ele><time>2026-03-22T08:11:03.699Z</time></trkpt><trkpt lat="45.6396312" lon="11.4218894"><ele>95.0</ele><time>2026-03-22T08:11:05.7Z</time></trkpt><trkpt lat="45.6396781" lon="11.4220057"><ele>95.0</ele><time>2026-03-22T08:11:07.698Z</time></trkpt><trkpt lat="45.6397442" lon="11.4221398"><ele>94.83333333333334</ele><time>2026-03-22T08:11:09.7Z</time></trkpt><trkpt lat="45.6397871" lon="11.4222769"><ele>94.66666666666667</ele><time>2026-03-22T08:11:11.7Z</time></trkpt><trkpt lat="45.6398229" lon="11.4223561"><ele>94.5</ele><time>2026-03-22T08:11:13.699Z</time></trkpt><trkpt lat="45.6398609" lon="11.4224609"><ele>94.33333333333333</ele><time>2026-03-22T08:11:15.7Z</time></trkpt><trkpt lat="45.6399019" lon="11.4225516"><ele>94.16666666666666</ele><time>2026-03-22T08:11:17.699Z</time></trkpt><trkpt lat="45.6399417" lon="11.4226517"><ele>94.0</ele><time>2026-03-22T08:11:19.699Z</time></trkpt><trkpt lat="45.6399613" lon="11.4228137"><ele>93.80000000000001</ele><time>2026-03-22T08:11:20.7Z</time></trkpt><trkpt lat="45.6400118" lon="11.4229964"><ele>93.60000000000001</ele><time>2026-03-22T08:11:22.701Z</time></trkpt><trkpt lat="45.640066" lon="11.4231121"><ele>93.4</ele><time>2026-03-22T08:11:24.699Z</time></trkpt><trkpt lat="45.6401206" lon="11.4232508"><ele>93.2</ele><time>2026-03-22T08:11:26.7Z</time></trkpt><trkpt lat="45.640164" lon="11.4233236"><ele>93.0</ele><time>2026-03-22T08:11:27.7Z</time></trkpt><trkpt lat="45.6403011" lon="11.4233305"><ele>93.0</ele><time>2026-03-22T08:11:29.7Z</time></trkpt><trkpt lat="45.6404018" lon="11.4232497"><ele>93.0</ele><time>2026-03-22T08:11:31.7Z</time></trkpt><trkpt lat="45.6404573" lon="11.4231856"><ele>93.0</ele><time>2026-03-22T08:11:32.699Z</time></trkpt><trkpt lat="45.6405664" lon="11.4230957"><ele>93.0</ele><time>2026-03-22T08:11:34.699Z</time></trkpt><trkpt lat="45.6406507" lon="11.4229953"><ele>93.0</ele><time>2026-03-22T08:11:36.7Z</time></trkpt><trkpt lat="45.6407092" lon="11.4229488"><ele>93.0</ele><time>2026-03-22T08:11:37.699Z</time></trkpt><trkpt lat="45.6407787" lon="11.4228521"><ele>93.0</ele><time>2026-03-22T08:11:39.699Z</time></trkpt><trkpt lat="45.6408542" lon="11.4227636"><ele>93.0</ele><time>2026-03-22T08:11:41.7Z</time></trkpt><trkpt lat="45.6409208" lon="11.4226797"><ele>93.0</ele><time>2026-03-22T08:11:43.7Z</time></trkpt><trkpt lat="45.6409984" lon="11.4226086"><ele>93.0</ele><time>2026-03-22T08:11:45.699Z</time></trkpt><trkpt lat="45.6410697" lon="11.4225302"><ele>93.2</ele><time>2026-03-22T08:11:47.7Z</time></trkpt><trkpt lat="45.6411412" lon="11.4224438"><ele>93.4</ele><time>2026-03-22T08:11:49.699Z</time></trkpt><trkpt lat="45.6412144" lon="11.4223312"><ele>93.60000000000001</ele><time>2026-03-22T08:11:51.699Z</time></trkpt><trkpt lat="45.641294" lon="11.4222425"><ele>93.80000000000001</ele><time>2026-03-22T08:11:53.7Z</time></trkpt><trkpt lat="45.6413721" lon="11.4221551"><ele>94.0</ele><time>2026-03-22T08:11:55.7Z</time></trkpt><trkpt lat="45.6414508" lon="11.422117"><ele>94.0</ele><time>2026-03-22T08:11:57.7Z</time></trkpt><trkpt lat="45.6415385" lon="11.4221022"><ele>94.0</ele><time>2026-03-22T08:11:59.699Z</time></trkpt><trkpt lat="45.6416535" lon="11.4221874"><ele>94.0</ele><time>2026-03-22T08:12:01.699Z</time></trkpt><trkpt lat="45.641755" lon="11.4221979"><ele>94.0</ele><time>2026-03-22T08:12:02.7Z</time></trkpt><trkpt lat="45.6418515" lon="11.4222142"><ele>94.0</ele><time>2026-03-22T08:12:04.7Z</time></trkpt><trkpt lat="45.6419088" lon="11.4221377"><ele>96.4</ele><time>2026-03-22T08:12:06.7Z</time></trkpt><trkpt lat="45.6419976" lon="11.4220659"><ele>98.80000000000001</ele><time>2026-03-22T08:12:08.7Z</time></trkpt><trkpt lat="45.6420901" lon="11.4220274"><ele>101.19999999999999</ele><time>2026-03-22T08:12:10.7Z</time></trkpt><trkpt lat="45.6421654" lon="11.4219987"><ele>103.6</ele><time>2026-03-22T08:12:12.701Z</time></trkpt><trkpt lat="45.642237" lon="11.4219655"><ele>106.0</ele><time>2026-03-22T08:12:14.699Z</time></trkpt><trkpt lat="45.6423428" lon="11.4219397"><ele>106.0</ele><time>2026-03-22T08:12:16.7Z</time></trkpt><trkpt lat="45.6424045" lon="11.4219217"><ele>106.0</ele><time>2026-03-22T08:12:17.699Z</time></trkpt><trkpt lat="45.6424837" lon="11.4219118"><ele>106.0</ele><time>2026-03-22T08:12:19.7Z</time></trkpt><trkpt lat="45.6425708" lon="11.4219342"><ele>106.0</ele><time>2026-03-22T08:12:21.7Z</time></trkpt><trkpt lat="45.6426661" lon="11.4219354"><ele>106.0</ele><time>2026-03-22T08:12:23.701Z</time></trkpt><trkpt lat="45.6428698" lon="11.4219275"><ele>105.66666666666667</ele><time>2026-03-22T08:12:27.7Z</time></trkpt><trkpt lat="45.6429426" lon="11.4219375"><ele>105.33333333333334</ele><time>2026-03-22T08:12:29.701Z</time></trkpt><trkpt lat="45.6430375" lon="11.4219261"><ele>105.0</ele><time>2026-03-22T08:12:31.7Z</time></trkpt><trkpt lat="45.6431272" lon="11.4218994"><ele>104.66666666666666</ele><time>2026-03-22T08:12:33.699Z</time></trkpt><trkpt lat="45.6432109" lon="11.4218421"><ele>104.33333333333333</ele><time>2026-03-22T08:12:35.7Z</time></trkpt><trkpt lat="45.6432948" lon="11.4218122"><ele>104.0</ele><time>2026-03-22T08:12:37.699Z</time></trkpt><trkpt lat="45.6433595" lon="11.4217604"><ele>103.99999999999999</ele><time>2026-03-22T08:12:39.699Z</time></trkpt><trkpt lat="45.6434268" lon="11.4217104"><ele>104.0</ele><time>2026-03-22T08:12:41.7Z</time></trkpt><trkpt lat="45.6434956" lon="11.4216547"><ele>104.0</ele><time>2026-03-22T08:12:43.701Z</time></trkpt><trkpt lat="45.6435716" lon="11.4215899"><ele>104.0</ele><time>2026-03-22T08:12:45.699Z</time></trkpt><trkpt lat="45.6436401" lon="11.421532"><ele>103.99999999999999</ele><time>2026-03-22T08:12:47.7Z</time></trkpt><trkpt lat="45.6437064" lon="11.4214714"><ele>104.0</ele><time>2026-03-22T08:12:49.699Z</time></trkpt><trkpt lat="45.6437694" lon="11.4214247"><ele>105.0</ele><time>2026-03-22T08:12:51.7Z</time></trkpt><trkpt lat="45.6438335" lon="11.42138"><ele>106.0</ele><time>2026-03-22T08:12:53.7Z</time></trkpt><trkpt lat="45.643893" lon="11.4213166"><ele>107.0</ele><time>2026-03-22T08:12:55.699Z</time></trkpt><trkpt lat="45.6439537" lon="11.4212424"><ele>108.0</ele><time>2026-03-22T08:12:57.699Z</time></trkpt><trkpt lat="45.6440121" lon="11.4211843"><ele>109.0</ele><time>2026-03-22T08:12:59.701Z</time></trkpt><trkpt lat="45.6440626" lon="11.4211271"><ele>110.0</ele><time>2026-03-22T08:13:01.7Z</time></trkpt><trkpt lat="45.6441226" lon="11.4210649"><ele>111.0</ele><time>2026-03-22T08:13:03.699Z</time></trkpt><trkpt lat="45.6441847" lon="11.420998"><ele>111.0</ele><time>2026-03-22T08:13:05.7Z</time></trkpt><trkpt lat="45.6442503" lon="11.4209346"><ele>111.0</ele><time>2026-03-22T08:13:07.699Z</time></trkpt><trkpt lat="45.6443123" lon="11.4208682"><ele>111.0</ele><time>2026-03-22T08:13:09.699Z</time></trkpt><trkpt lat="45.6443809" lon="11.4207992"><ele>111.0</ele><time>2026-03-22T08:13:11.7Z</time></trkpt><trkpt lat="45.6444561" lon="11.4207344"><ele>111.0</ele><time>2026-03-22T08:13:13.699Z</time></trkpt><trkpt lat="45.6445265" lon="11.4206592"><ele>111.0</ele><time>2026-03-22T08:13:15.698Z</time></trkpt><trkpt lat="45.6445949" lon="11.4205903"><ele>110.5</ele><time>2026-03-22T08:13:17.699Z</time></trkpt><trkpt lat="45.6446645" lon="11.4205198"><ele>110.0</ele><time>2026-03-22T08:13:19.699Z</time></trkpt><trkpt lat="45.6447325" lon="11.4204548"><ele>109.5</ele><time>2026-03-22T08:13:21.7Z</time></trkpt><trkpt lat="45.6448026" lon="11.4203855"><ele>109.0</ele><time>2026-03-22T08:13:23.7Z</time></trkpt><trkpt lat="45.6448765" lon="11.42032"><ele>108.5</ele><time>2026-03-22T08:13:25.7Z</time></trkpt><trkpt lat="45.6449503" lon="11.420249"><ele>108.0</ele><time>2026-03-22T08:13:27.7Z</time></trkpt><trkpt lat="45.6450219" lon="11.4201795"><ele>108.0</ele><time>2026-03-22T08:13:29.7Z</time></trkpt><trkpt lat="45.6450927" lon="11.4201144"><ele>108.00000000000001</ele><time>2026-03-22T08:13:31.698Z</time></trkpt><trkpt lat="45.6451623" lon="11.420049"><ele>108.00000000000001</ele><time>2026-03-22T08:13:33.698Z</time></trkpt><trkpt lat="45.6452391" lon="11.4199812"><ele>108.0</ele><time>2026-03-22T08:13:35.699Z</time></trkpt><trkpt lat="45.6453132" lon="11.4198797"><ele>108.0</ele><time>2026-03-22T08:13:37.7Z</time></trkpt><trkpt lat="45.645385" lon="11.419795"><ele>106.66666666666667</ele><time>2026-03-22T08:13:39.7Z</time></trkpt><trkpt lat="45.645453" lon="11.4197181"><ele>105.33333333333334</ele><time>2026-03-22T08:13:41.7Z</time></trkpt><trkpt lat="45.6455087" lon="11.4196496"><ele>104.0</ele><time>2026-03-22T08:13:43.699Z</time></trkpt><trkpt lat="45.6455564" lon="11.4195773"><ele>102.66666666666667</ele><time>2026-03-22T08:13:45.7Z</time></trkpt><trkpt lat="45.6456011" lon="11.4194627"><ele>101.33333333333334</ele><time>2026-03-22T08:13:47.699Z</time></trkpt><trkpt lat="45.6456401" lon="11.4193607"><ele>100.0</ele><time>2026-03-22T08:13:49.699Z</time></trkpt><trkpt lat="45.6456752" lon="11.4192689"><ele>100.00000000000001</ele><time>2026-03-22T08:13:51.698Z</time></trkpt><trkpt lat="45.6457233" lon="11.4191771"><ele>100.0</ele><time>2026-03-22T08:13:54.698Z</time></trkpt><trkpt lat="45.6457763" lon="11.4190668"><ele>100.0</ele><time>2026-03-22T08:13:57.699Z</time></trkpt><trkpt lat="45.6458185" lon="11.4189737"><ele>100.0</ele><time>2026-03-22T08:13:59.699Z</time></trkpt><trkpt lat="45.6458589" lon="11.4188876"><ele>100.00000000000001</ele><time>2026-03-22T08:14:01.698Z</time></trkpt><trkpt lat="45.6459103" lon="11.4187805"><ele>100.0</ele><time>2026-03-22T08:14:03.699Z</time></trkpt><trkpt lat="45.6459675" lon="11.4186787"><ele>99.5</ele><time>2026-03-22T08:14:05.7Z</time></trkpt><trkpt lat="45.6460435" lon="11.4185414"><ele>99.0</ele><time>2026-03-22T08:14:07.7Z</time></trkpt><trkpt lat="45.646102" lon="11.4184258"><ele>98.5</ele><time>2026-03-22T08:14:09.698Z</time></trkpt><trkpt lat="45.6461689" lon="11.4182952"><ele>98.0</ele><time>2026-03-22T08:14:11.7Z</time></trkpt><trkpt lat="45.6462497" lon="11.4181739"><ele>98.0</ele><time>2026-03-22T08:14:13.7Z</time></trkpt><trkpt lat="45.646336" lon="11.4180841"><ele>98.0</ele><time>2026-03-22T08:14:15.699Z</time></trkpt><trkpt lat="45.646426" lon="11.4180259"><ele>98.0</ele><time>2026-03-22T08:14:17.699Z</time></trkpt><trkpt lat="45.6465105" lon="11.4179669"><ele>98.0</ele><time>2026-03-22T08:14:19.698Z</time></trkpt><trkpt lat="45.646566" lon="11.4179107"><ele>98.0</ele><time>2026-03-22T08:14:21.698Z</time></trkpt><trkpt lat="45.6466539" lon="11.4178563"><ele>97.83333333333333</ele><time>2026-03-22T08:14:23.7Z</time></trkpt><trkpt lat="45.6467246" lon="11.4177802"><ele>97.66666666666666</ele><time>2026-03-22T08:14:25.7Z</time></trkpt><trkpt lat="45.6468102" lon="11.4176706"><ele>97.5</ele><time>2026-03-22T08:14:27.7Z</time></trkpt><trkpt lat="45.6468675" lon="11.4176139"><ele>97.33333333333334</ele><time>2026-03-22T08:14:29.7Z</time></trkpt><trkpt lat="45.6469228" lon="11.4175434"><ele>97.16666666666667</ele><time>2026-03-22T08:14:31.699Z</time></trkpt><trkpt lat="45.6469746" lon="11.4174476"><ele>97.0</ele><time>2026-03-22T08:14:33.699Z</time></trkpt><trkpt lat="45.6470405" lon="11.4173377"><ele>97.0</ele><time>2026-03-22T08:14:35.7Z</time></trkpt><trkpt lat="45.6471023" lon="11.4172619"><ele>97.0</ele><time>2026-03-22T08:14:37.7Z</time></trkpt><trkpt lat="45.6471672" lon="11.4171825"><ele>97.0</ele><time>2026-03-22T08:14:39.699Z</time></trkpt><trkpt lat="45.6472426" lon="11.4170728"><ele>97.0</ele><time>2026-03-22T08:14:41.698Z</time></trkpt><trkpt lat="45.6473218" lon="11.4170171"><ele>97.0</ele><time>2026-03-22T08:14:43.7Z</time></trkpt><trkpt lat="45.6474057" lon="11.4169533"><ele>97.8</ele><time>2026-03-22T08:14:45.698Z</time></trkpt><trkpt lat="45.6475048" lon="11.4168959"><ele>98.6</ele><time>2026-03-22T08:14:47.7Z</time></trkpt><trkpt lat="45.6475834" lon="11.4168422"><ele>99.39999999999999</ele><time>2026-03-22T08:14:49.7Z</time></trkpt><trkpt lat="45.6476627" lon="11.4167698"><ele>100.19999999999999</ele><time>2026-03-22T08:14:51.699Z</time></trkpt><trkpt lat="45.6477577" lon="11.4167034"><ele>101.0</ele><time>2026-03-22T08:14:53.698Z</time></trkpt><trkpt lat="45.6478468" lon="11.4166445"><ele>101.0</ele><time>2026-03-22T08:14:55.7Z</time></trkpt><trkpt lat="45.6479292" lon="11.4165797"><ele>101.0</ele><time>2026-03-22T08:14:57.698Z</time></trkpt><trkpt lat="45.648012" lon="11.4165405"><ele>101.0</ele><time>2026-03-22T08:14:59.699Z</time></trkpt><trkpt lat="45.648099" lon="11.4164621"><ele>101.0</ele><time>2026-03-22T08:15:01.699Z</time></trkpt><trkpt lat="45.6482009" lon="11.4163872"><ele>101.0</ele><time>2026-03-22T08:15:03.699Z</time></trkpt><trkpt lat="45.6483075" lon="11.4163132"><ele>101.0</ele><time>2026-03-22T08:15:05.698Z</time></trkpt><trkpt lat="45.6484078" lon="11.4162306"><ele>101.0</ele><time>2026-03-22T08:15:07.699Z</time></trkpt><trkpt lat="45.648497" lon="11.4161382"><ele>101.0</ele><time>2026-03-22T08:15:09.699Z</time></trkpt><trkpt lat="45.6485785" lon="11.4160323"><ele>101.0</ele><time>2026-03-22T08:15:11.698Z</time></trkpt><trkpt lat="45.648662" lon="11.4159369"><ele>101.0</ele><time>2026-03-22T08:15:13.7Z</time></trkpt><trkpt lat="45.6487386" lon="11.41586"><ele>101.0</ele><time>2026-03-22T08:15:15.698Z</time></trkpt><trkpt lat="45.6488151" lon="11.41579"><ele>101.0</ele><time>2026-03-22T08:15:17.699Z</time></trkpt><trkpt lat="45.6488807" lon="11.415701"><ele>101.0</ele><time>2026-03-22T08:15:19.699Z</time></trkpt><trkpt lat="45.6489576" lon="11.415605"><ele>101.0</ele><time>2026-03-22T08:15:21.699Z</time></trkpt><trkpt lat="45.6490227" lon="11.4155087"><ele>101.0</ele><time>2026-03-22T08:15:23.699Z</time></trkpt><trkpt lat="45.6490907" lon="11.415422"><ele>103.8</ele><time>2026-03-22T08:15:25.699Z</time></trkpt><trkpt lat="45.6491634" lon="11.4153273"><ele>106.6</ele><time>2026-03-22T08:15:27.7Z</time></trkpt><trkpt lat="45.6492286" lon="11.4152311"><ele>109.4</ele><time>2026-03-22T08:15:29.7Z</time></trkpt><trkpt lat="45.6493062" lon="11.4151075"><ele>112.2</ele><time>2026-03-22T08:15:32.7Z</time></trkpt><trkpt lat="45.6493685" lon="11.4150244"><ele>115.0</ele><time>2026-03-22T08:15:34.7Z</time></trkpt><trkpt lat="45.64943" lon="11.4149378"><ele>113.0</ele><time>2026-03-22T08:15:36.7Z</time></trkpt><trkpt lat="45.6494884" lon="11.4148116"><ele>111.0</ele><time>2026-03-22T08:15:38.699Z</time></trkpt><trkpt lat="45.649526" lon="11.4146859"><ele>109.0</ele><time>2026-03-22T08:15:40.7Z</time></trkpt><trkpt lat="45.6495714" lon="11.4145412"><ele>107.0</ele><time>2026-03-22T08:15:42.698Z</time></trkpt><trkpt lat="45.6496137" lon="11.4144511"><ele>105.0</ele><time>2026-03-22T08:15:44.699Z</time></trkpt><trkpt lat="45.6496472" lon="11.4143571"><ele>105.0</ele><time>2026-03-22T08:15:46.699Z</time></trkpt><trkpt lat="45.6496919" lon="11.4142833"><ele>105.0</ele><time>2026-03-22T08:15:48.7Z</time></trkpt><trkpt lat="45.6497426" lon="11.4142044"><ele>105.0</ele><time>2026-03-22T08:15:50.7Z</time></trkpt><trkpt lat="45.6497967" lon="11.4140564"><ele>105.0</ele><time>2026-03-22T08:15:52.699Z</time></trkpt><trkpt lat="45.6498535" lon="11.4139305"><ele>105.0</ele><time>2026-03-22T08:15:54.698Z</time></trkpt><trkpt lat="45.649915" lon="11.4138141"><ele>104.83333333333333</ele><time>2026-03-22T08:15:56.698Z</time></trkpt><trkpt lat="45.6499765" lon="11.4136928"><ele>104.66666666666666</ele><time>2026-03-22T08:15:58.699Z</time></trkpt><trkpt lat="45.6500333" lon="11.4135879"><ele>104.5</ele><time>2026-03-22T08:16:00.7Z</time></trkpt><trkpt lat="45.6500892" lon="11.4135437"><ele>104.33333333333333</ele><time>2026-03-22T08:16:02.699Z</time></trkpt><trkpt lat="45.6501266" lon="11.4134574"><ele>104.16666666666666</ele><time>2026-03-22T08:16:08.699Z</time></trkpt><trkpt lat="45.6501917" lon="11.4134331"><ele>104.0</ele><time>2026-03-22T08:16:09.7Z</time></trkpt><trkpt lat="45.6503012" lon="11.413392"><ele>104.0</ele><time>2026-03-22T08:16:11.699Z</time></trkpt><trkpt lat="45.6504115" lon="11.4133502"><ele>104.0</ele><time>2026-03-22T08:16:13.699Z</time></trkpt><trkpt lat="45.6505179" lon="11.4133143"><ele>104.0</ele><time>2026-03-22T08:16:15.699Z</time></trkpt><trkpt lat="45.6506139" lon="11.4132685"><ele>104.0</ele><time>2026-03-22T08:16:17.699Z</time></trkpt><trkpt lat="45.6507056" lon="11.4132154"><ele>104.0</ele><time>2026-03-22T08:16:19.699Z</time></trkpt><trkpt lat="45.6507857" lon="11.4131492"><ele>104.0</ele><time>2026-03-22T08:16:21.699Z</time></trkpt><trkpt lat="45.6508678" lon="11.4130873"><ele>104.0</ele><time>2026-03-22T08:16:23.7Z</time></trkpt><trkpt lat="45.6509847" lon="11.4130286"><ele>104.0</ele><time>2026-03-22T08:16:25.698Z</time></trkpt><trkpt lat="45.6510989" lon="11.4129557"><ele>104.0</ele><time>2026-03-22T08:16:27.7Z</time></trkpt><trkpt lat="45.6511583" lon="11.4129242"><ele>104.0</ele><time>2026-03-22T08:16:28.7Z</time></trkpt><trkpt lat="45.6512774" lon="11.4128516"><ele>103.49999999999999</ele><time>2026-03-22T08:16:30.699Z</time></trkpt><trkpt lat="45.6513358" lon="11.4128026"><ele>103.0</ele><time>2026-03-22T08:16:31.7Z</time></trkpt><trkpt lat="45.6513931" lon="11.41275"><ele>102.5</ele><time>2026-03-22T08:16:32.699Z</time></trkpt><trkpt lat="45.6514452" lon="11.4126934"><ele>102.0</ele><time>2026-03-22T08:16:33.698Z</time></trkpt><trkpt lat="45.6515021" lon="11.4126509"><ele>101.49999999999999</ele><time>2026-03-22T08:16:34.7Z</time></trkpt><trkpt lat="45.6516187" lon="11.4125926"><ele>101.0</ele><time>2026-03-22T08:16:36.699Z</time></trkpt><trkpt lat="45.6516828" lon="11.4125518"><ele>101.0</ele><time>2026-03-22T08:16:37.699Z</time></trkpt><trkpt lat="45.6517768" lon="11.4124854"><ele>101.0</ele><time>2026-03-22T08:16:39.7Z</time></trkpt><trkpt lat="45.6518876" lon="11.4124442"><ele>101.0</ele><time>2026-03-22T08:16:41.7Z</time></trkpt><trkpt lat="45.651987" lon="11.4123887"><ele>101.0</ele><time>2026-03-22T08:16:43.7Z</time></trkpt><trkpt lat="45.6521287" lon="11.4123626"><ele>100.99999999999999</ele><time>2026-03-22T08:16:47.7Z</time></trkpt><trkpt lat="45.6522129" lon="11.4123257"><ele>101.0</ele><time>2026-03-22T08:16:48.7Z</time></trkpt><trkpt lat="45.6522767" lon="11.4122858"><ele>101.0</ele><time>2026-03-22T08:16:49.699Z</time></trkpt><trkpt lat="45.6523472" lon="11.4122535"><ele>101.0</ele><time>2026-03-22T08:16:50.699Z</time></trkpt><trkpt lat="45.6524645" lon="11.412172"><ele>100.99999999999999</ele><time>2026-03-22T08:16:52.7Z</time></trkpt><trkpt lat="45.6525411" lon="11.4121375"><ele>101.0</ele><time>2026-03-22T08:16:54.7Z</time></trkpt><trkpt lat="45.6526382" lon="11.4120788"><ele>101.19999999999999</ele><time>2026-03-22T08:16:56.699Z</time></trkpt><trkpt lat="45.6527381" lon="11.4120064"><ele>101.39999999999999</ele><time>2026-03-22T08:16:58.7Z</time></trkpt><trkpt lat="45.6528245" lon="11.4119323"><ele>101.6</ele><time>2026-03-22T08:17:00.699Z</time></trkpt><trkpt lat="45.652905" lon="11.4118284"><ele>101.8</ele><time>2026-03-22T08:17:02.699Z</time></trkpt><trkpt lat="45.652977" lon="11.4117357"><ele>102.0</ele><time>2026-03-22T08:17:04.7Z</time></trkpt><trkpt lat="45.6530351" lon="11.4116227"><ele>102.19999999999999</ele><time>2026-03-22T08:17:06.7Z</time></trkpt><trkpt lat="45.6531027" lon="11.4115054"><ele>102.4</ele><time>2026-03-22T08:17:08.699Z</time></trkpt><trkpt lat="45.6531725" lon="11.4114088"><ele>102.6</ele><time>2026-03-22T08:17:10.7Z</time></trkpt><trkpt lat="45.6532356" lon="11.4113225"><ele>102.80000000000001</ele><time>2026-03-22T08:17:12.7Z</time></trkpt><trkpt lat="45.6532827" lon="11.4111931"><ele>103.0</ele><time>2026-03-22T08:17:14.699Z</time></trkpt><trkpt lat="45.6533081" lon="11.4110741"><ele>103.25</ele><time>2026-03-22T08:17:16.7Z</time></trkpt><trkpt lat="45.6533466" lon="11.410929"><ele>103.5</ele><time>2026-03-22T08:17:18.7Z</time></trkpt><trkpt lat="45.6533707" lon="11.4107739"><ele>103.75</ele><time>2026-03-22T08:17:20.7Z</time></trkpt><trkpt lat="45.6533917" lon="11.410593"><ele>104.0</ele><time>2026-03-22T08:17:22.7Z</time></trkpt><trkpt lat="45.6533982" lon="11.4104326"><ele>104.4</ele><time>2026-03-22T08:17:24.7Z</time></trkpt><trkpt lat="45.6533719" lon="11.4102821"><ele>104.80000000000001</ele><time>2026-03-22T08:17:26.699Z</time></trkpt><trkpt lat="45.6533531" lon="11.4101563"><ele>105.19999999999999</ele><time>2026-03-22T08:17:28.699Z</time></trkpt><trkpt lat="45.6533215" lon="11.4100535"><ele>105.6</ele><time>2026-03-22T08:17:30.7Z</time></trkpt><trkpt lat="45.6532736" lon="11.4099475"><ele>106.0</ele><time>2026-03-22T08:17:32.7Z</time></trkpt><trkpt lat="45.6532335" lon="11.4098365"><ele>106.00000000000001</ele><time>2026-03-22T08:17:34.7Z</time></trkpt><trkpt lat="45.6532141" lon="11.4097375"><ele>106.0</ele><time>2026-03-22T08:17:36.699Z</time></trkpt><trkpt lat="45.6531981" lon="11.4096045"><ele>106.0</ele><time>2026-03-22T08:17:39.699Z</time></trkpt><trkpt lat="45.6531918" lon="11.4095101"><ele>106.0</ele><time>2026-03-22T08:17:41.7Z</time></trkpt><trkpt lat="45.6531918" lon="11.4093987"><ele>106.00000000000001</ele><time>2026-03-22T08:17:43.7Z</time></trkpt><trkpt lat="45.6531995" lon="11.4092886"><ele>106.0</ele><time>2026-03-22T08:17:45.699Z</time></trkpt><trkpt lat="45.6532103" lon="11.4091785"><ele>106.19999999999999</ele><time>2026-03-22T08:17:47.7Z</time></trkpt><trkpt lat="45.6532436" lon="11.4090173"><ele>106.39999999999999</ele><time>2026-03-22T08:17:49.7Z</time></trkpt><trkpt lat="45.6533174" lon="11.4088827"><ele>106.6</ele><time>2026-03-22T08:17:51.699Z</time></trkpt><trkpt lat="45.6534042" lon="11.4087587"><ele>106.8</ele><time>2026-03-22T08:17:53.699Z</time></trkpt><trkpt lat="45.6534607" lon="11.4086907"><ele>107.0</ele><time>2026-03-22T08:17:55.699Z</time></trkpt><trkpt lat="45.6535127" lon="11.4086278"><ele>107.33333333333333</ele><time>2026-03-22T08:17:57.698Z</time></trkpt><trkpt lat="45.6535769" lon="11.4085576"><ele>107.66666666666666</ele><time>2026-03-22T08:17:59.7Z</time></trkpt><trkpt lat="45.6536437" lon="11.4085097"><ele>108.0</ele><time>2026-03-22T08:18:01.7Z</time></trkpt><trkpt lat="45.6537121" lon="11.4084403"><ele>108.33333333333334</ele><time>2026-03-22T08:18:03.699Z</time></trkpt><trkpt lat="45.6537935" lon="11.4083753"><ele>108.66666666666667</ele><time>2026-03-22T08:18:05.699Z</time></trkpt><trkpt lat="45.6538713" lon="11.4083349"><ele>109.0</ele><time>2026-03-22T08:18:07.697Z</time></trkpt><trkpt lat="45.653936" lon="11.4082992"><ele>109.00000000000001</ele><time>2026-03-22T08:18:09.699Z</time></trkpt><trkpt lat="45.6539874" lon="11.4082422"><ele>109.0</ele><time>2026-03-22T08:18:11.699Z</time></trkpt><trkpt lat="45.6540287" lon="11.4081578"><ele>109.0</ele><time>2026-03-22T08:18:13.699Z</time></trkpt><trkpt lat="45.6540854" lon="11.4080849"><ele>109.0</ele><time>2026-03-22T08:18:16.699Z</time></trkpt><trkpt lat="45.6541487" lon="11.4079916"><ele>109.00000000000001</ele><time>2026-03-22T08:18:19.698Z</time></trkpt><trkpt lat="45.6541996" lon="11.4079218"><ele>109.0</ele><time>2026-03-22T08:18:21.697Z</time></trkpt><trkpt lat="45.654257" lon="11.4078362"><ele>109.2</ele><time>2026-03-22T08:18:23.698Z</time></trkpt><trkpt lat="45.6543143" lon="11.4077194"><ele>109.4</ele><time>2026-03-22T08:18:25.699Z</time></trkpt><trkpt lat="45.6543733" lon="11.4075683"><ele>109.6</ele><time>2026-03-22T08:18:27.698Z</time></trkpt><trkpt lat="45.6544162" lon="11.4074094"><ele>109.8</ele><time>2026-03-22T08:18:29.698Z</time></trkpt><trkpt lat="45.6544577" lon="11.4072683"><ele>110.0</ele><time>2026-03-22T08:18:31.698Z</time></trkpt><trkpt lat="45.6544936" lon="11.4071471"><ele>109.99999999999999</ele><time>2026-03-22T08:18:33.697Z</time></trkpt><trkpt lat="45.6545206" lon="11.4070535"><ele>110.0</ele><time>2026-03-22T08:18:35.698Z</time></trkpt><trkpt lat="45.6545415" lon="11.4069665"><ele>110.0</ele><time>2026-03-22T08:18:40.698Z</time></trkpt><trkpt lat="45.6545659" lon="11.4068825"><ele>110.0</ele><time>2026-03-22T08:18:45.698Z</time></trkpt><trkpt lat="45.6546123" lon="11.4068084"><ele>110.0</ele><time>2026-03-22T08:19:11.699Z</time></trkpt><trkpt lat="45.6546575" lon="11.4067046"><ele>109.99999999999999</ele><time>2026-03-22T08:19:14.698Z</time></trkpt><trkpt lat="45.6546833" lon="11.4066141"><ele>110.0</ele><time>2026-03-22T08:19:20.697Z</time></trkpt><trkpt lat="45.6548041" lon="11.4065276"><ele>110.0</ele><time>2026-03-22T08:19:24.698Z</time></trkpt><trkpt lat="45.6548925" lon="11.4065634"><ele>110.0</ele><time>2026-03-22T08:19:26.699Z</time></trkpt><trkpt lat="45.6549628" lon="11.4065693"><ele>110.0</ele><time>2026-03-22T08:19:28.699Z</time></trkpt><trkpt lat="45.6550926" lon="11.4065741"><ele>110.0</ele><time>2026-03-22T08:19:32.698Z</time></trkpt><trkpt lat="45.6551678" lon="11.4065142"><ele>110.0</ele><time>2026-03-22T08:19:34.698Z</time></trkpt><trkpt lat="45.6552391" lon="11.4064562"><ele>110.4</ele><time>2026-03-22T08:19:37.697Z</time></trkpt><trkpt lat="45.6553195" lon="11.406401"><ele>110.8</ele><time>2026-03-22T08:19:41.699Z</time></trkpt><trkpt lat="45.6554166" lon="11.4063613"><ele>111.19999999999999</ele><time>2026-03-22T08:19:43.698Z</time></trkpt><trkpt lat="45.6555162" lon="11.4063295"><ele>111.6</ele><time>2026-03-22T08:19:45.699Z</time></trkpt><trkpt lat="45.6555922" lon="11.4063128"><ele>112.0</ele><time>2026-03-22T08:19:47.698Z</time></trkpt><trkpt lat="45.6556805" lon="11.4062858"><ele>112.0</ele><time>2026-03-22T08:19:50.699Z</time></trkpt><trkpt lat="45.6557503" lon="11.4062579"><ele>112.0</ele><time>2026-03-22T08:19:52.697Z</time></trkpt><trkpt lat="45.6558244" lon="11.4062436"><ele>112.0</ele><time>2026-03-22T08:19:54.697Z</time></trkpt><trkpt lat="45.6558998" lon="11.4062221"><ele>112.0</ele><time>2026-03-22T08:19:56.699Z</time></trkpt><trkpt lat="45.6559672" lon="11.406213"><ele>112.0</ele><time>2026-03-22T08:19:58.698Z</time></trkpt><trkpt lat="45.6560356" lon="11.4062152"><ele>112.0</ele><time>2026-03-22T08:20:00.698Z</time></trkpt><trkpt lat="45.6561024" lon="11.4062247"><ele>112.0</ele><time>2026-03-22T08:20:02.699Z</time></trkpt><trkpt lat="45.6561622" lon="11.4061929"><ele>113.16666666666667</ele><time>2026-03-22T08:20:04.699Z</time></trkpt><trkpt lat="45.6562255" lon="11.4061217"><ele>114.33333333333334</ele><time>2026-03-22T08:20:06.699Z</time></trkpt><trkpt lat="45.6562887" lon="11.4060332"><ele>115.5</ele><time>2026-03-22T08:20:08.698Z</time></trkpt><trkpt lat="45.6563517" lon="11.4059198"><ele>116.66666666666666</ele><time>2026-03-22T08:20:11.699Z</time></trkpt><trkpt lat="45.6564172" lon="11.4058244"><ele>117.83333333333333</ele><time>2026-03-22T08:20:13.698Z</time></trkpt><trkpt lat="45.656488" lon="11.4057654"><ele>119.0</ele><time>2026-03-22T08:20:15.699Z</time></trkpt><trkpt lat="45.6565425" lon="11.4057092"><ele>119.0</ele><time>2026-03-22T08:20:17.697Z</time></trkpt><trkpt lat="45.6565864" lon="11.4056261"><ele>119.0</ele><time>2026-03-22T08:20:21.698Z</time></trkpt><trkpt lat="45.6566575" lon="11.4055838"><ele>119.0</ele><time>2026-03-22T08:20:25.697Z</time></trkpt><trkpt lat="45.6567442" lon="11.4055507"><ele>119.0</ele><time>2026-03-22T08:20:27.698Z</time></trkpt><trkpt lat="45.6568467" lon="11.4055106"><ele>119.0</ele><time>2026-03-22T08:20:29.697Z</time></trkpt><trkpt lat="45.6569627" lon="11.4054909"><ele>119.0</ele><time>2026-03-22T08:20:31.699Z</time></trkpt><trkpt lat="45.6572249" lon="11.4055145"><ele>119.0</ele><time>2026-03-22T08:20:36.699Z</time></trkpt><trkpt lat="45.6573335" lon="11.4055687"><ele>119.0</ele><time>2026-03-22T08:20:39.699Z</time></trkpt><trkpt lat="45.6574192" lon="11.405606"><ele>118.99999999999999</ele><time>2026-03-22T08:20:41.699Z</time></trkpt><trkpt lat="45.6575085" lon="11.4056434"><ele>119.0</ele><time>2026-03-22T08:20:43.699Z</time></trkpt><trkpt lat="45.6575915" lon="11.4056969"><ele>119.0</ele><time>2026-03-22T08:20:45.699Z</time></trkpt><trkpt lat="45.6576756" lon="11.4057691"><ele>119.0</ele><time>2026-03-22T08:20:47.698Z</time></trkpt><trkpt lat="45.6577449" lon="11.4058208"><ele>118.99999999999999</ele><time>2026-03-22T08:20:48.698Z</time></trkpt><trkpt lat="45.6578157" lon="11.4058765"><ele>119.0</ele><time>2026-03-22T08:20:50.698Z</time></trkpt><trkpt lat="45.6579069" lon="11.405865"><ele>118.83333333333333</ele><time>2026-03-22T08:20:52.699Z</time></trkpt><trkpt lat="45.6579773" lon="11.4058568"><ele>118.66666666666666</ele><time>2026-03-22T08:20:54.698Z</time></trkpt><trkpt lat="45.658054" lon="11.4058358"><ele>118.5</ele><time>2026-03-22T08:20:56.699Z</time></trkpt><trkpt lat="45.6581343" lon="11.4058082"><ele>118.33333333333334</ele><time>2026-03-22T08:20:58.698Z</time></trkpt><trkpt lat="45.6582159" lon="11.4057757"><ele>118.16666666666667</ele><time>2026-03-22T08:21:00.698Z</time></trkpt><trkpt lat="45.6582995" lon="11.4057568"><ele>118.0</ele><time>2026-03-22T08:21:02.699Z</time></trkpt><trkpt lat="45.6584" lon="11.4057338"><ele>118.0</ele><time>2026-03-22T08:21:04.699Z</time></trkpt><trkpt lat="45.6584902" lon="11.4057089"><ele>118.00000000000001</ele><time>2026-03-22T08:21:05.699Z</time></trkpt><trkpt lat="45.6585965" lon="11.4056865"><ele>118.00000000000001</ele><time>2026-03-22T08:21:06.699Z</time></trkpt><trkpt lat="45.6586904" lon="11.4056645"><ele>118.0</ele><time>2026-03-22T08:21:10.699Z</time></trkpt><trkpt lat="45.6587918" lon="11.4056065"><ele>118.0</ele><time>2026-03-22T08:21:12.698Z</time></trkpt><trkpt lat="45.6588647" lon="11.4056034"><ele>117.60000000000001</ele><time>2026-03-22T08:21:14.698Z</time></trkpt><trkpt lat="45.6589577" lon="11.4056887"><ele>117.20000000000002</ele><time>2026-03-22T08:21:16.698Z</time></trkpt><trkpt lat="45.6590327" lon="11.4057716"><ele>116.8</ele><time>2026-03-22T08:21:18.698Z</time></trkpt><trkpt lat="45.6591182" lon="11.4058044"><ele>116.4</ele><time>2026-03-22T08:21:21.697Z</time></trkpt><trkpt lat="45.6592073" lon="11.4058582"><ele>116.0</ele><time>2026-03-22T08:21:23.699Z</time></trkpt><trkpt lat="45.6592794" lon="11.4059544"><ele>116.0</ele><time>2026-03-22T08:21:25.699Z</time></trkpt><trkpt lat="45.6593385" lon="11.4060583"><ele>116.0</ele><time>2026-03-22T08:21:27.699Z</time></trkpt><trkpt lat="45.6594016" lon="11.4062558"><ele>116.0</ele><time>2026-03-22T08:21:29.698Z</time></trkpt><trkpt lat="45.6594575" lon="11.4063764"><ele>116.0</ele><time>2026-03-22T08:21:31.699Z</time></trkpt><trkpt lat="45.6595102" lon="11.4064895"><ele>116.0</ele><time>2026-03-22T08:21:33.698Z</time></trkpt><trkpt lat="45.6595766" lon="11.4066155"><ele>115.8</ele><time>2026-03-22T08:21:35.698Z</time></trkpt><trkpt lat="45.6596272" lon="11.4066847"><ele>115.6</ele><time>2026-03-22T08:21:36.699Z</time></trkpt><trkpt lat="45.6596917" lon="11.4067761"><ele>115.4</ele><time>2026-03-22T08:21:38.698Z</time></trkpt><trkpt lat="45.6597615" lon="11.406882"><ele>115.2</ele><time>2026-03-22T08:21:40.698Z</time></trkpt><trkpt lat="45.659851" lon="11.4069564"><ele>115.0</ele><time>2026-03-22T08:21:42.699Z</time></trkpt><trkpt lat="45.659955" lon="11.4070237"><ele>115.0</ele><time>2026-03-22T08:21:44.699Z</time></trkpt><trkpt lat="45.6600508" lon="11.4070694"><ele>115.0</ele><time>2026-03-22T08:21:46.699Z</time></trkpt><trkpt lat="45.6601308" lon="11.4070953"><ele>115.0</ele><time>2026-03-22T08:21:47.699Z</time></trkpt><trkpt lat="45.6602486" lon="11.40717"><ele>115.0</ele><time>2026-03-22T08:21:49.698Z</time></trkpt><trkpt lat="45.6603572" lon="11.4072068"><ele>115.0</ele><time>2026-03-22T08:21:53.698Z</time></trkpt><trkpt lat="45.6604239" lon="11.4072361"><ele>114.8</ele><time>2026-03-22T08:21:54.698Z</time></trkpt><trkpt lat="45.6604908" lon="11.4072861"><ele>114.6</ele><time>2026-03-22T08:21:55.699Z</time></trkpt><trkpt lat="45.6606255" lon="11.4073219"><ele>114.4</ele><time>2026-03-22T08:21:57.698Z</time></trkpt><trkpt lat="45.6607313" lon="11.4073626"><ele>114.2</ele><time>2026-03-22T08:21:59.699Z</time></trkpt><trkpt lat="45.6608396" lon="11.4074417"><ele>114.0</ele><time>2026-03-22T08:22:01.698Z</time></trkpt><trkpt lat="45.6609226" lon="11.4075563"><ele>114.0</ele><time>2026-03-22T08:22:03.699Z</time></trkpt><trkpt lat="45.6609715" lon="11.4076278"><ele>114.0</ele><time>2026-03-22T08:22:05.698Z</time></trkpt><trkpt lat="45.6610526" lon="11.4077414"><ele>114.0</ele><time>2026-03-22T08:22:07.699Z</time></trkpt><trkpt lat="45.6611247" lon="11.4078538"><ele>114.0</ele><time>2026-03-22T08:22:09.699Z</time></trkpt><trkpt lat="45.6612042" lon="11.4079641"><ele>114.0</ele><time>2026-03-22T08:22:11.699Z</time></trkpt><trkpt lat="45.6612758" lon="11.4080662"><ele>113.83333333333333</ele><time>2026-03-22T08:22:13.699Z</time></trkpt><trkpt lat="45.6613287" lon="11.4081268"><ele>113.66666666666666</ele><time>2026-03-22T08:22:14.698Z</time></trkpt><trkpt lat="45.6613803" lon="11.408194"><ele>113.5</ele><time>2026-03-22T08:22:15.698Z</time></trkpt><trkpt lat="45.6614725" lon="11.4082792"><ele>113.33333333333333</ele><time>2026-03-22T08:22:17.699Z</time></trkpt><trkpt lat="45.6615313" lon="11.4083495"><ele>113.16666666666666</ele><time>2026-03-22T08:22:18.699Z</time></trkpt><trkpt lat="45.6616244" lon="11.4084467"><ele>113.0</ele><time>2026-03-22T08:22:20.701Z</time></trkpt><trkpt lat="45.6616968" lon="11.4084994"><ele>113.0</ele><time>2026-03-22T08:22:21.7Z</time></trkpt><trkpt lat="45.6617738" lon="11.4085955"><ele>113.00000000000001</ele><time>2026-03-22T08:22:23.699Z</time></trkpt><trkpt lat="45.6618391" lon="11.4087039"><ele>113.00000000000001</ele><time>2026-03-22T08:22:25.697Z</time></trkpt><trkpt lat="45.661907" lon="11.4088198"><ele>113.0</ele><time>2026-03-22T08:22:27.699Z</time></trkpt><trkpt lat="45.6619652" lon="11.4089467"><ele>113.0</ele><time>2026-03-22T08:22:29.699Z</time></trkpt><trkpt lat="45.6620004" lon="11.4090781"><ele>113.4</ele><time>2026-03-22T08:22:31.698Z</time></trkpt><trkpt lat="45.6620491" lon="11.4091848"><ele>113.80000000000001</ele><time>2026-03-22T08:22:33.697Z</time></trkpt><trkpt lat="45.6621248" lon="11.4092643"><ele>114.2</ele><time>2026-03-22T08:22:35.698Z</time></trkpt><trkpt lat="45.662181" lon="11.4093746"><ele>114.6</ele><time>2026-03-22T08:22:37.698Z</time></trkpt><trkpt lat="45.6622369" lon="11.4094652"><ele>115.0</ele><time>2026-03-22T08:22:38.7Z</time></trkpt><trkpt lat="45.6622738" lon="11.4095977"><ele>114.8</ele><time>2026-03-22T08:22:40.699Z</time></trkpt><trkpt lat="45.6622989" lon="11.4097678"><ele>114.6</ele><time>2026-03-22T08:22:42.7Z</time></trkpt><trkpt lat="45.6623248" lon="11.409903"><ele>114.4</ele><time>2026-03-22T08:22:44.698Z</time></trkpt><trkpt lat="45.6623849" lon="11.4099578"><ele>114.2</ele><time>2026-03-22T08:22:46.697Z</time></trkpt><trkpt lat="45.6624521" lon="11.4099325"><ele>114.0</ele><time>2026-03-22T08:22:49.698Z</time></trkpt><trkpt lat="45.6625521" lon="11.409932"><ele>114.0</ele><time>2026-03-22T08:22:51.699Z</time></trkpt><trkpt lat="45.6626761" lon="11.4099351"><ele>114.0</ele><time>2026-03-22T08:22:53.698Z</time></trkpt><trkpt lat="45.6627795" lon="11.4099402"><ele>114.0</ele><time>2026-03-22T08:22:55.697Z</time></trkpt><trkpt lat="45.6628753" lon="11.409955"><ele>114.0</ele><time>2026-03-22T08:22:57.699Z</time></trkpt><trkpt lat="45.6628256" lon="11.4100599"><ele>114.0</ele><time>2026-03-22T08:23:03.698Z</time></trkpt><trkpt lat="45.6627749" lon="11.4101436"><ele>114.0</ele><time>2026-03-22T08:23:05.699Z</time></trkpt><trkpt lat="45.6627132" lon="11.4102192"><ele>114.0</ele><time>2026-03-22T08:23:07.698Z</time></trkpt><trkpt lat="45.6626456" lon="11.4102853"><ele>114.0</ele><time>2026-03-22T08:23:09.699Z</time></trkpt><trkpt lat="45.6625804" lon="11.4103488"><ele>114.0</ele><time>2026-03-22T08:23:11.698Z</time></trkpt><trkpt lat="45.6625035" lon="11.4104032"><ele>114.0</ele><time>2026-03-22T08:23:14.699Z</time></trkpt><trkpt lat="45.6624766" lon="11.4104872"><ele>114.0</ele><time>2026-03-22T08:23:16.699Z</time></trkpt><trkpt lat="45.6624487" lon="11.410594"><ele>114.0</ele><time>2026-03-22T08:23:18.698Z</time></trkpt><trkpt lat="45.6624303" lon="11.4107213"><ele>114.0</ele><time>2026-03-22T08:23:20.699Z</time></trkpt><trkpt lat="45.6624514" lon="11.4108688"><ele>114.0</ele><time>2026-03-22T08:23:22.697Z</time></trkpt><trkpt lat="45.6624765" lon="11.410975"><ele>114.0</ele><time>2026-03-22T08:23:23.699Z</time></trkpt><trkpt lat="45.6625167" lon="11.4110922"><ele>114.0</ele><time>2026-03-22T08:23:25.699Z</time></trkpt><trkpt lat="45.6625624" lon="11.4112044"><ele>114.0</ele><time>2026-03-22T08:23:27.699Z</time></trkpt><trkpt lat="45.6626095" lon="11.4113157"><ele>114.0</ele><time>2026-03-22T08:23:29.699Z</time></trkpt><trkpt lat="45.6626389" lon="11.4114497"><ele>114.0</ele><time>2026-03-22T08:23:31.699Z</time></trkpt><trkpt lat="45.662664" lon="11.4115804"><ele>114.0</ele><time>2026-03-22T08:23:33.699Z</time></trkpt><trkpt lat="45.6626997" lon="11.4117131"><ele>114.0</ele><time>2026-03-22T08:23:35.699Z</time></trkpt><trkpt lat="45.6627716" lon="11.4117336"><ele>114.16666666666667</ele><time>2026-03-22T08:23:41.698Z</time></trkpt><trkpt lat="45.6628087" lon="11.4118124"><ele>114.33333333333334</ele><time>2026-03-22T08:23:44.698Z</time></trkpt><trkpt lat="45.6628313" lon="11.4119034"><ele>114.5</ele><time>2026-03-22T08:23:46.698Z</time></trkpt><trkpt lat="45.6628639" lon="11.4120002"><ele>114.66666666666667</ele><time>2026-03-22T08:23:48.697Z</time></trkpt><trkpt lat="45.6629017" lon="11.4121119"><ele>114.83333333333334</ele><time>2026-03-22T08:23:50.7Z</time></trkpt><trkpt lat="45.6629434" lon="11.412221"><ele>115.0</ele><time>2026-03-22T08:23:52.699Z</time></trkpt><trkpt lat="45.6629901" lon="11.4123244"><ele>115.00000000000001</ele><time>2026-03-22T08:23:54.698Z</time></trkpt><trkpt lat="45.6630317" lon="11.4124289"><ele>115.0</ele><time>2026-03-22T08:23:56.698Z</time></trkpt><trkpt lat="45.6630707" lon="11.4125385"><ele>115.0</ele><time>2026-03-22T08:23:58.699Z</time></trkpt><trkpt lat="45.66312" lon="11.4126415"><ele>115.0</ele><time>2026-03-22T08:24:00.699Z</time></trkpt><trkpt lat="45.6631571" lon="11.4127418"><ele>115.00000000000001</ele><time>2026-03-22T08:24:02.697Z</time></trkpt><trkpt lat="45.6631969" lon="11.4128462"><ele>115.0</ele><time>2026-03-22T08:24:04.699Z</time></trkpt><trkpt lat="45.6632616" lon="11.4129533"><ele>115.00000000000001</ele><time>2026-03-22T08:24:06.698Z</time></trkpt><trkpt lat="45.6633265" lon="11.4130329"><ele>115.0</ele><time>2026-03-22T08:24:08.698Z</time></trkpt><trkpt lat="45.6634049" lon="11.4130587"><ele>115.0</ele><time>2026-03-22T08:24:10.698Z</time></trkpt><trkpt lat="45.6634824" lon="11.4130443"><ele>115.0</ele><time>2026-03-22T08:24:12.699Z</time></trkpt><trkpt lat="45.6635639" lon="11.4130237"><ele>115.00000000000001</ele><time>2026-03-22T08:24:14.698Z</time></trkpt><trkpt lat="45.6636432" lon="11.4129875"><ele>115.0</ele><time>2026-03-22T08:24:16.699Z</time></trkpt><trkpt lat="45.6637217" lon="11.412948"><ele>115.16666666666667</ele><time>2026-03-22T08:24:18.698Z</time></trkpt><trkpt lat="45.6637947" lon="11.4129102"><ele>115.33333333333334</ele><time>2026-03-22T08:24:20.698Z</time></trkpt><trkpt lat="45.6638692" lon="11.4128706"><ele>115.5</ele><time>2026-03-22T08:24:22.698Z</time></trkpt><trkpt lat="45.6639452" lon="11.4128322"><ele>115.66666666666666</ele><time>2026-03-22T08:24:24.699Z</time></trkpt><trkpt lat="45.6640194" lon="11.4127879"><ele>115.83333333333333</ele><time>2026-03-22T08:24:26.697Z</time></trkpt><trkpt lat="45.6640916" lon="11.412757"><ele>116.0</ele><time>2026-03-22T08:24:28.698Z</time></trkpt><trkpt lat="45.6641604" lon="11.4127166"><ele>115.99999999999999</ele><time>2026-03-22T08:24:30.699Z</time></trkpt><trkpt lat="45.6642321" lon="11.4126718"><ele>116.0</ele><time>2026-03-22T08:24:32.697Z</time></trkpt><trkpt lat="45.6642891" lon="11.4126332"><ele>116.0</ele><time>2026-03-22T08:24:34.699Z</time></trkpt><trkpt lat="45.6643733" lon="11.4125614"><ele>116.0</ele><time>2026-03-22T08:24:38.699Z</time></trkpt><trkpt lat="45.6644497" lon="11.4125189"><ele>115.99999999999999</ele><time>2026-03-22T08:24:40.699Z</time></trkpt><trkpt lat="45.6645367" lon="11.4124797"><ele>116.0</ele><time>2026-03-22T08:24:42.698Z</time></trkpt><trkpt lat="45.6646072" lon="11.4124501"><ele>116.19999999999999</ele><time>2026-03-22T08:24:44.698Z</time></trkpt><trkpt lat="45.6647008" lon="11.4124"><ele>116.39999999999999</ele><time>2026-03-22T08:24:47.698Z</time></trkpt><trkpt lat="45.6647819" lon="11.4123485"><ele>116.6</ele><time>2026-03-22T08:24:49.699Z</time></trkpt><trkpt lat="45.6648683" lon="11.4122978"><ele>116.8</ele><time>2026-03-22T08:24:51.698Z</time></trkpt><trkpt lat="45.6649511" lon="11.4122518"><ele>117.0</ele><time>2026-03-22T08:24:53.698Z</time></trkpt><trkpt lat="45.6650306" lon="11.4122028"><ele>117.0</ele><time>2026-03-22T08:24:55.698Z</time></trkpt><trkpt lat="45.6651098" lon="11.4121597"><ele>117.0</ele><time>2026-03-22T08:24:57.699Z</time></trkpt><trkpt lat="45.6651894" lon="11.4121131"><ele>117.0</ele><time>2026-03-22T08:24:59.698Z</time></trkpt><trkpt lat="45.6652678" lon="11.412068"><ele>117.0</ele><time>2026-03-22T08:25:01.698Z</time></trkpt><trkpt lat="45.6653495" lon="11.4120111"><ele>117.0</ele><time>2026-03-22T08:25:03.699Z</time></trkpt><trkpt lat="45.6654277" lon="11.4119716"><ele>117.0</ele><time>2026-03-22T08:25:05.698Z</time></trkpt><trkpt lat="45.6655073" lon="11.4119393"><ele>117.0</ele><time>2026-03-22T08:25:07.698Z</time></trkpt><trkpt lat="45.6655815" lon="11.411901"><ele>117.0</ele><time>2026-03-22T08:25:09.698Z</time></trkpt><trkpt lat="45.6656522" lon="11.411864"><ele>117.0</ele><time>2026-03-22T08:25:11.699Z</time></trkpt><trkpt lat="45.6657296" lon="11.4118318"><ele>117.0</ele><time>2026-03-22T08:25:13.698Z</time></trkpt><trkpt lat="45.6658127" lon="11.4117916"><ele>117.0</ele><time>2026-03-22T08:25:15.699Z</time></trkpt><trkpt lat="45.6658959" lon="11.4117457"><ele>117.0</ele><time>2026-03-22T08:25:17.698Z</time></trkpt><trkpt lat="45.6659772" lon="11.4117005"><ele>117.0</ele><time>2026-03-22T08:25:19.699Z</time></trkpt><trkpt lat="45.6660527" lon="11.4116576"><ele>117.0</ele><time>2026-03-22T08:25:21.698Z</time></trkpt><trkpt lat="45.6661249" lon="11.4116151"><ele>117.0</ele><time>2026-03-22T08:25:23.699Z</time></trkpt><trkpt lat="45.6661778" lon="11.4115455"><ele>117.0</ele><time>2026-03-22T08:25:25.699Z</time></trkpt><trkpt lat="45.6661859" lon="11.4114393"><ele>117.0</ele><time>2026-03-22T08:25:27.698Z</time></trkpt><trkpt lat="45.6661747" lon="11.4113124"><ele>117.0</ele><time>2026-03-22T08:25:29.699Z</time></trkpt><trkpt lat="45.666158" lon="11.4112016"><ele>117.19999999999999</ele><time>2026-03-22T08:25:31.699Z</time></trkpt><trkpt lat="45.6661275" lon="11.411086"><ele>117.39999999999999</ele><time>2026-03-22T08:25:34.698Z</time></trkpt><trkpt lat="45.6660836" lon="11.410977"><ele>117.60000000000001</ele><time>2026-03-22T08:25:36.699Z</time></trkpt><trkpt lat="45.6660519" lon="11.41086"><ele>117.80000000000001</ele><time>2026-03-22T08:25:38.699Z</time></trkpt><trkpt lat="45.6660104" lon="11.4107249"><ele>118.0</ele><time>2026-03-22T08:25:40.699Z</time></trkpt><trkpt lat="45.6659721" lon="11.4105513"><ele>118.16666666666667</ele><time>2026-03-22T08:25:42.699Z</time></trkpt><trkpt lat="45.6659424" lon="11.4104462"><ele>118.33333333333334</ele><time>2026-03-22T08:25:44.699Z</time></trkpt><trkpt lat="45.6659139" lon="11.410355"><ele>118.5</ele><time>2026-03-22T08:25:46.697Z</time></trkpt><trkpt lat="45.6658809" lon="11.4102525"><ele>118.66666666666666</ele><time>2026-03-22T08:25:48.698Z</time></trkpt><trkpt lat="45.6658383" lon="11.4101267"><ele>118.83333333333333</ele><time>2026-03-22T08:25:50.698Z</time></trkpt><trkpt lat="45.6658015" lon="11.4100257"><ele>119.0</ele><time>2026-03-22T08:25:52.699Z</time></trkpt><trkpt lat="45.665737" lon="11.4099227"><ele>119.0</ele><time>2026-03-22T08:25:56.699Z</time></trkpt><trkpt lat="45.6657596" lon="11.4097945"><ele>119.0</ele><time>2026-03-22T08:25:58.698Z</time></trkpt><trkpt lat="45.6658577" lon="11.4097083"><ele>119.0</ele><time>2026-03-22T08:26:00.697Z</time></trkpt><trkpt lat="45.6659258" lon="11.4095836"><ele>119.0</ele><time>2026-03-22T08:26:01.699Z</time></trkpt><trkpt lat="45.6660504" lon="11.4095179"><ele>118.83333333333333</ele><time>2026-03-22T08:26:03.697Z</time></trkpt><trkpt lat="45.6661237" lon="11.409474"><ele>118.66666666666666</ele><time>2026-03-22T08:26:04.698Z</time></trkpt><trkpt lat="45.6661932" lon="11.4094448"><ele>118.5</ele><time>2026-03-22T08:26:05.698Z</time></trkpt><trkpt lat="45.666311" lon="11.4093744"><ele>118.33333333333334</ele><time>2026-03-22T08:26:07.698Z</time></trkpt><trkpt lat="45.6663935" lon="11.4093318"><ele>118.16666666666667</ele><time>2026-03-22T08:26:09.699Z</time></trkpt><trkpt lat="45.6664644" lon="11.4093097"><ele>118.0</ele><time>2026-03-22T08:26:11.699Z</time></trkpt><trkpt lat="45.6665675" lon="11.4092798"><ele>118.00000000000001</ele><time>2026-03-22T08:26:13.699Z</time></trkpt><trkpt lat="45.6666358" lon="11.4092451"><ele>118.0</ele><time>2026-03-22T08:26:14.699Z</time></trkpt><trkpt lat="45.6667033" lon="11.4092109"><ele>118.0</ele><time>2026-03-22T08:26:15.699Z</time></trkpt><trkpt lat="45.6667931" lon="11.4091621"><ele>118.0</ele><time>2026-03-22T08:26:17.698Z</time></trkpt><trkpt lat="45.666858" lon="11.4091133"><ele>118.00000000000001</ele><time>2026-03-22T08:26:19.698Z</time></trkpt><trkpt lat="45.6669517" lon="11.4090535"><ele>118.0</ele><time>2026-03-22T08:26:21.699Z</time></trkpt><trkpt lat="45.6670407" lon="11.4090063"><ele>118.16666666666667</ele><time>2026-03-22T08:26:23.698Z</time></trkpt><trkpt lat="45.6671303" lon="11.4089627"><ele>118.33333333333334</ele><time>2026-03-22T08:26:25.699Z</time></trkpt><trkpt lat="45.6672178" lon="11.4089261"><ele>118.5</ele><time>2026-03-22T08:26:27.698Z</time></trkpt><trkpt lat="45.6672939" lon="11.4089279"><ele>118.66666666666666</ele><time>2026-03-22T08:26:29.699Z</time></trkpt><trkpt lat="45.6673718" lon="11.4089195"><ele>118.83333333333333</ele><time>2026-03-22T08:26:31.698Z</time></trkpt><trkpt lat="45.6674302" lon="11.4088577"><ele>119.0</ele><time>2026-03-22T08:26:33.698Z</time></trkpt><trkpt lat="45.6674967" lon="11.4087681"><ele>119.2</ele><time>2026-03-22T08:26:35.699Z</time></trkpt><trkpt lat="45.6675816" lon="11.4087117"><ele>119.4</ele><time>2026-03-22T08:26:37.697Z</time></trkpt><trkpt lat="45.6676688" lon="11.4086581"><ele>119.6</ele><time>2026-03-22T08:26:39.698Z</time></trkpt><trkpt lat="45.6677527" lon="11.4086077"><ele>119.8</ele><time>2026-03-22T08:26:41.699Z</time></trkpt><trkpt lat="45.6678313" lon="11.4085647"><ele>120.0</ele><time>2026-03-22T08:26:43.699Z</time></trkpt><trkpt lat="45.6679465" lon="11.4085522"><ele>120.0</ele><time>2026-03-22T08:26:46.698Z</time></trkpt><trkpt lat="45.6680192" lon="11.4085215"><ele>120.0</ele><time>2026-03-22T08:26:48.698Z</time></trkpt><trkpt lat="45.668085" lon="11.4085181"><ele>120.0</ele><time>2026-03-22T08:26:50.697Z</time></trkpt><trkpt lat="45.6681574" lon="11.4084787"><ele>120.0</ele><time>2026-03-22T08:26:53.699Z</time></trkpt><trkpt lat="45.668227" lon="11.408433"><ele>120.0</ele><time>2026-03-22T08:26:56.698Z</time></trkpt><trkpt lat="45.6682905" lon="11.4084296"><ele>120.0</ele><time>2026-03-22T08:26:58.698Z</time></trkpt><trkpt lat="45.6683881" lon="11.4084688"><ele>120.0</ele><time>2026-03-22T08:27:09.698Z</time></trkpt><trkpt lat="45.6685251" lon="11.4084458"><ele>120.0</ele><time>2026-03-22T08:27:11.699Z</time></trkpt><trkpt lat="45.6686509" lon="11.4084163"><ele>120.0</ele><time>2026-03-22T08:27:13.697Z</time></trkpt><trkpt lat="45.6687455" lon="11.4083693"><ele>120.0</ele><time>2026-03-22T08:27:15.698Z</time></trkpt><trkpt lat="45.6688348" lon="11.4083273"><ele>119.83333333333333</ele><time>2026-03-22T08:27:17.699Z</time></trkpt><trkpt lat="45.6689161" lon="11.4082824"><ele>119.66666666666666</ele><time>2026-03-22T08:27:19.698Z</time></trkpt><trkpt lat="45.6690032" lon="11.4082569"><ele>119.5</ele><time>2026-03-22T08:27:21.699Z</time></trkpt><trkpt lat="45.6690952" lon="11.4082204"><ele>119.33333333333333</ele><time>2026-03-22T08:27:23.699Z</time></trkpt><trkpt lat="45.6691718" lon="11.4081849"><ele>119.16666666666666</ele><time>2026-03-22T08:27:25.699Z</time></trkpt><trkpt lat="45.6692569" lon="11.4081498"><ele>119.0</ele><time>2026-03-22T08:27:27.699Z</time></trkpt><trkpt lat="45.6693462" lon="11.4081181"><ele>118.99999999999999</ele><time>2026-03-22T08:27:29.698Z</time></trkpt><trkpt lat="45.6694284" lon="11.4080805"><ele>119.0</ele><time>2026-03-22T08:27:31.699Z</time></trkpt><trkpt lat="45.6695101" lon="11.4080446"><ele>119.0</ele><time>2026-03-22T08:27:33.699Z</time></trkpt><trkpt lat="45.6695916" lon="11.4080116"><ele>119.0</ele><time>2026-03-22T08:27:35.698Z</time></trkpt><trkpt lat="45.6696752" lon="11.4079726"><ele>118.99999999999999</ele><time>2026-03-22T08:27:37.699Z</time></trkpt><trkpt lat="45.6697567" lon="11.4079328"><ele>119.0</ele><time>2026-03-22T08:27:39.699Z</time></trkpt><trkpt lat="45.6698401" lon="11.4079025"><ele>119.33333333333333</ele><time>2026-03-22T08:27:41.698Z</time></trkpt><trkpt lat="45.669926" lon="11.4078743"><ele>119.66666666666666</ele><time>2026-03-22T08:27:43.698Z</time></trkpt><trkpt lat="45.6700043" lon="11.4078429"><ele>120.0</ele><time>2026-03-22T08:27:45.698Z</time></trkpt><trkpt lat="45.6700722" lon="11.4078113"><ele>120.33333333333334</ele><time>2026-03-22T08:27:47.699Z</time></trkpt><trkpt lat="45.6701517" lon="11.4077834"><ele>120.66666666666667</ele><time>2026-03-22T08:27:49.698Z</time></trkpt><trkpt lat="45.6702296" lon="11.4077487"><ele>121.0</ele><time>2026-03-22T08:27:51.698Z</time></trkpt><trkpt lat="45.6703573" lon="11.4078228"><ele>121.50000000000001</ele><time>2026-03-22T08:27:55.699Z</time></trkpt><trkpt lat="45.6703849" lon="11.407933"><ele>122.0</ele><time>2026-03-22T08:27:57.699Z</time></trkpt><trkpt lat="45.6704139" lon="11.4080365"><ele>122.5</ele><time>2026-03-22T08:27:59.698Z</time></trkpt><trkpt lat="45.6704408" lon="11.4081635"><ele>123.0</ele><time>2026-03-22T08:28:01.699Z</time></trkpt><trkpt lat="45.6704637" lon="11.4082844"><ele>123.50000000000001</ele><time>2026-03-22T08:28:03.698Z</time></trkpt><trkpt lat="45.6705022" lon="11.4084107"><ele>124.0</ele><time>2026-03-22T08:28:05.699Z</time></trkpt><trkpt lat="45.6705384" lon="11.4085425"><ele>124.00000000000001</ele><time>2026-03-22T08:28:07.698Z</time></trkpt><trkpt lat="45.670573" lon="11.4086667"><ele>124.0</ele><time>2026-03-22T08:28:09.699Z</time></trkpt><trkpt lat="45.6706064" lon="11.4087817"><ele>124.0</ele><time>2026-03-22T08:28:11.698Z</time></trkpt><trkpt lat="45.6706373" lon="11.4088913"><ele>124.0</ele><time>2026-03-22T08:28:13.699Z</time></trkpt><trkpt lat="45.670666" lon="11.4090124"><ele>124.00000000000001</ele><time>2026-03-22T08:28:15.698Z</time></trkpt><trkpt lat="45.6706982" lon="11.4091427"><ele>124.0</ele><time>2026-03-22T08:28:17.698Z</time></trkpt><trkpt lat="45.6707315" lon="11.4092817"><ele>124.0</ele><time>2026-03-22T08:28:19.698Z</time></trkpt><trkpt lat="45.6707633" lon="11.409422"><ele>124.0</ele><time>2026-03-22T08:28:21.698Z</time></trkpt><trkpt lat="45.6707931" lon="11.4095396"><ele>124.0</ele><time>2026-03-22T08:28:23.699Z</time></trkpt><trkpt lat="45.6708297" lon="11.4096873"><ele>124.0</ele><time>2026-03-22T08:28:25.698Z</time></trkpt><trkpt lat="45.6708665" lon="11.4097901"><ele>124.0</ele><time>2026-03-22T08:28:27.698Z</time></trkpt><trkpt lat="45.6708973" lon="11.409897"><ele>124.0</ele><time>2026-03-22T08:28:29.697Z</time></trkpt><trkpt lat="45.6709159" lon="11.4100359"><ele>124.0</ele><time>2026-03-22T08:28:31.699Z</time></trkpt><trkpt lat="45.6709373" lon="11.4101673"><ele>124.0</ele><time>2026-03-22T08:28:33.699Z</time></trkpt><trkpt lat="45.6709618" lon="11.4102801"><ele>124.0</ele><time>2026-03-22T08:28:35.698Z</time></trkpt><trkpt lat="45.6709913" lon="11.4104111"><ele>124.0</ele><time>2026-03-22T08:28:37.699Z</time></trkpt><trkpt lat="45.6710138" lon="11.4105693"><ele>124.00000000000001</ele><time>2026-03-22T08:28:39.699Z</time></trkpt><trkpt lat="45.6710303" lon="11.4106603"><ele>124.0</ele><time>2026-03-22T08:28:41.698Z</time></trkpt><trkpt lat="45.6710651" lon="11.4107623"><ele>124.0</ele><time>2026-03-22T08:28:43.698Z</time></trkpt><trkpt lat="45.6710988" lon="11.4109006"><ele>124.0</ele><time>2026-03-22T08:28:45.699Z</time></trkpt><trkpt lat="45.6711303" lon="11.4110357"><ele>124.00000000000001</ele><time>2026-03-22T08:28:47.699Z</time></trkpt><trkpt lat="45.6711559" lon="11.4111413"><ele>124.0</ele><time>2026-03-22T08:28:49.698Z</time></trkpt><trkpt lat="45.6711855" lon="11.4112721"><ele>124.00000000000001</ele><time>2026-03-22T08:28:51.698Z</time></trkpt><trkpt lat="45.6712184" lon="11.4113965"><ele>124.0</ele><time>2026-03-22T08:28:53.699Z</time></trkpt><trkpt lat="45.6712554" lon="11.4114991"><ele>124.0</ele><time>2026-03-22T08:28:55.698Z</time></trkpt><trkpt lat="45.6713197" lon="11.4115845"><ele>124.0</ele><time>2026-03-22T08:28:57.699Z</time></trkpt><trkpt lat="45.6713358" lon="11.4117141"><ele>124.00000000000001</ele><time>2026-03-22T08:28:59.698Z</time></trkpt><trkpt lat="45.6713455" lon="11.4118297"><ele>124.0</ele><time>2026-03-22T08:29:01.698Z</time></trkpt><trkpt lat="45.6713764" lon="11.4119725"><ele>124.00000000000001</ele><time>2026-03-22T08:29:03.698Z</time></trkpt><trkpt lat="45.6713916" lon="11.4120875"><ele>124.0</ele><time>2026-03-22T08:29:05.698Z</time></trkpt><trkpt lat="45.6713984" lon="11.412214"><ele>124.0</ele><time>2026-03-22T08:29:07.698Z</time></trkpt><trkpt lat="45.6714084" lon="11.4123284"><ele>124.0</ele><time>2026-03-22T08:29:09.699Z</time></trkpt><trkpt lat="45.6714099" lon="11.4124201"><ele>124.00000000000001</ele><time>2026-03-22T08:29:11.698Z</time></trkpt><trkpt lat="45.671396" lon="11.4125126"><ele>124.0</ele><time>2026-03-22T08:29:44.699Z</time></trkpt><trkpt lat="45.6713363" lon="11.4125893"><ele>123.80000000000001</ele><time>2026-03-22T08:30:16.697Z</time></trkpt><trkpt lat="45.6712724" lon="11.4126577"><ele>123.60000000000001</ele><time>2026-03-22T08:30:18.699Z</time></trkpt><trkpt lat="45.6712072" lon="11.4127703"><ele>123.4</ele><time>2026-03-22T08:30:20.699Z</time></trkpt><trkpt lat="45.6711421" lon="11.4128721"><ele>123.2</ele><time>2026-03-22T08:30:22.698Z</time></trkpt><trkpt lat="45.6710762" lon="11.4129786"><ele>123.0</ele><time>2026-03-22T08:30:57.698Z</time></trkpt><trkpt lat="45.6711461" lon="11.4129097"><ele>123.0</ele><time>2026-03-22T08:31:04.699Z</time></trkpt><trkpt lat="45.6712178" lon="11.4128719"><ele>123.0</ele><time>2026-03-22T08:31:06.699Z</time></trkpt><trkpt lat="45.6712805" lon="11.4128247"><ele>123.0</ele><time>2026-03-22T08:31:08.697Z</time></trkpt><trkpt lat="45.6713531" lon="11.4127635"><ele>123.0</ele><time>2026-03-22T08:31:11.697Z</time></trkpt><trkpt lat="45.6714198" lon="11.4127112"><ele>123.0</ele><time>2026-03-22T08:31:15.699Z</time></trkpt><trkpt lat="45.6714582" lon="11.4125847"><ele>123.0</ele><time>2026-03-22T08:31:18.699Z</time></trkpt><trkpt lat="45.6714663" lon="11.4124652"><ele>123.0</ele><time>2026-03-22T08:31:20.699Z</time></trkpt><trkpt lat="45.6714485" lon="11.4123365"><ele>123.0</ele><time>2026-03-22T08:31:22.699Z</time></trkpt><trkpt lat="45.6714371" lon="11.4122176"><ele>123.0</ele><time>2026-03-22T08:31:24.697Z</time></trkpt><trkpt lat="45.6714236" lon="11.4121095"><ele>123.0</ele><time>2026-03-22T08:31:26.698Z</time></trkpt><trkpt lat="45.6714045" lon="11.4120183"><ele>123.0</ele><time>2026-03-22T08:31:28.698Z</time></trkpt><trkpt lat="45.6713936" lon="11.4119209"><ele>123.0</ele><time>2026-03-22T08:31:31.698Z</time></trkpt><trkpt lat="45.6713912" lon="11.411827"><ele>123.16666666666667</ele><time>2026-03-22T08:31:33.698Z</time></trkpt><trkpt lat="45.6713623" lon="11.4117129"><ele>123.33333333333334</ele><time>2026-03-22T08:31:35.698Z</time></trkpt><trkpt lat="45.6713383" lon="11.4116003"><ele>123.5</ele><time>2026-03-22T08:31:37.698Z</time></trkpt><trkpt lat="45.6713079" lon="11.4114722"><ele>123.66666666666667</ele><time>2026-03-22T08:31:39.699Z</time></trkpt><trkpt lat="45.6712824" lon="11.4113854"><ele>123.83333333333334</ele><time>2026-03-22T08:31:40.698Z</time></trkpt><trkpt lat="45.6712525" lon="11.4112653"><ele>124.0</ele><time>2026-03-22T08:31:42.698Z</time></trkpt><trkpt lat="45.6712267" lon="11.411126"><ele>124.0</ele><time>2026-03-22T08:31:44.698Z</time></trkpt><trkpt lat="45.6711972" lon="11.4109762"><ele>124.0</ele><time>2026-03-22T08:31:46.697Z</time></trkpt><trkpt lat="45.6711619" lon="11.4108492"><ele>124.0</ele><time>2026-03-22T08:31:48.698Z</time></trkpt><trkpt lat="45.671128" lon="11.410716"><ele>124.0</ele><time>2026-03-22T08:31:50.698Z</time></trkpt><trkpt lat="45.6711028" lon="11.4105872"><ele>124.0</ele><time>2026-03-22T08:31:52.699Z</time></trkpt><trkpt lat="45.6710843" lon="11.4104525"><ele>124.0</ele><time>2026-03-22T08:31:54.697Z</time></trkpt><trkpt lat="45.6710382" lon="11.4103052"><ele>124.0</ele><time>2026-03-22T08:31:56.699Z</time></trkpt><trkpt lat="45.6710203" lon="11.4101752"><ele>124.0</ele><time>2026-03-22T08:31:58.699Z</time></trkpt><trkpt lat="45.6709962" lon="11.4100328"><ele>124.0</ele><time>2026-03-22T08:32:00.699Z</time></trkpt><trkpt lat="45.6709757" lon="11.4098995"><ele>124.0</ele><time>2026-03-22T08:32:02.699Z</time></trkpt><trkpt lat="45.6709307" lon="11.4097573"><ele>124.0</ele><time>2026-03-22T08:32:04.698Z</time></trkpt><trkpt lat="45.6708935" lon="11.4096172"><ele>124.0</ele><time>2026-03-22T08:32:06.699Z</time></trkpt><trkpt lat="45.6708582" lon="11.4094781"><ele>124.0</ele><time>2026-03-22T08:32:08.698Z</time></trkpt><trkpt lat="45.6708253" lon="11.4093302"><ele>124.0</ele><time>2026-03-22T08:32:10.698Z</time></trkpt><trkpt lat="45.6707871" lon="11.4091779"><ele>124.0</ele><time>2026-03-22T08:32:12.697Z</time></trkpt><trkpt lat="45.6707677" lon="11.4090845"><ele>124.0</ele><time>2026-03-22T08:32:13.699Z</time></trkpt><trkpt lat="45.6707288" lon="11.4089461"><ele>124.0</ele><time>2026-03-22T08:32:15.699Z</time></trkpt><trkpt lat="45.6706995" lon="11.4088352"><ele>124.0</ele><time>2026-03-22T08:32:17.698Z</time></trkpt><trkpt lat="45.67067" lon="11.4086753"><ele>124.0</ele><time>2026-03-22T08:32:19.698Z</time></trkpt><trkpt lat="45.6706411" lon="11.4085625"><ele>124.0</ele><time>2026-03-22T08:32:21.699Z</time></trkpt><trkpt lat="45.6706092" lon="11.408424"><ele>124.0</ele><time>2026-03-22T08:32:23.699Z</time></trkpt><trkpt lat="45.6705716" lon="11.4082993"><ele>124.0</ele><time>2026-03-22T08:32:25.699Z</time></trkpt><trkpt lat="45.6705489" lon="11.4081836"><ele>124.0</ele><time>2026-03-22T08:32:27.698Z</time></trkpt><trkpt lat="45.6705491" lon="11.40806"><ele>124.0</ele><time>2026-03-22T08:32:29.698Z</time></trkpt><trkpt lat="45.6705192" lon="11.407948"><ele>124.0</ele><time>2026-03-22T08:32:31.698Z</time></trkpt><trkpt lat="45.6704659" lon="11.4078209"><ele>124.0</ele><time>2026-03-22T08:32:33.699Z</time></trkpt><trkpt lat="45.6704285" lon="11.4076673"><ele>124.0</ele><time>2026-03-22T08:32:35.699Z</time></trkpt><trkpt lat="45.6704069" lon="11.4075218"><ele>124.0</ele><time>2026-03-22T08:32:37.699Z</time></trkpt><trkpt lat="45.6703889" lon="11.4073804"><ele>124.0</ele><time>2026-03-22T08:32:39.697Z</time></trkpt><trkpt lat="45.6703576" lon="11.407245"><ele>124.0</ele><time>2026-03-22T08:32:41.699Z</time></trkpt><trkpt lat="45.6703516" lon="11.4071527"><ele>124.2</ele><time>2026-03-22T08:32:43.699Z</time></trkpt><trkpt lat="45.6703214" lon="11.407053"><ele>124.4</ele><time>2026-03-22T08:32:45.699Z</time></trkpt><trkpt lat="45.6703031" lon="11.4069638"><ele>124.6</ele><time>2026-03-22T08:32:46.699Z</time></trkpt><trkpt lat="45.6702776" lon="11.4068069"><ele>124.8</ele><time>2026-03-22T08:32:48.698Z</time></trkpt><trkpt lat="45.6702418" lon="11.4066598"><ele>125.0</ele><time>2026-03-22T08:32:50.699Z</time></trkpt><trkpt lat="45.6702055" lon="11.4065188"><ele>124.83333333333333</ele><time>2026-03-22T08:32:52.698Z</time></trkpt><trkpt lat="45.6701799" lon="11.4064234"><ele>124.66666666666666</ele><time>2026-03-22T08:32:53.697Z</time></trkpt><trkpt lat="45.6701575" lon="11.4062784"><ele>124.5</ele><time>2026-03-22T08:32:55.699Z</time></trkpt><trkpt lat="45.6701177" lon="11.406137"><ele>124.33333333333334</ele><time>2026-03-22T08:32:57.699Z</time></trkpt><trkpt lat="45.6701249" lon="11.4060305"><ele>124.16666666666667</ele><time>2026-03-22T08:32:59.699Z</time></trkpt><trkpt lat="45.6701089" lon="11.4059227"><ele>124.0</ele><time>2026-03-22T08:33:01.699Z</time></trkpt><trkpt lat="45.6701497" lon="11.4058473"><ele>124.00000000000001</ele><time>2026-03-22T08:33:06.698Z</time></trkpt><trkpt lat="45.6702039" lon="11.4057654"><ele>124.0</ele><time>2026-03-22T08:33:17.698Z</time></trkpt><trkpt lat="45.6703076" lon="11.4056918"><ele>124.0</ele><time>2026-03-22T08:33:21.697Z</time></trkpt><trkpt lat="45.6703669" lon="11.4056392"><ele>124.0</ele><time>2026-03-22T08:33:23.698Z</time></trkpt><trkpt lat="45.6703164" lon="11.405559"><ele>124.00000000000001</ele><time>2026-03-22T08:33:28.697Z</time></trkpt><trkpt lat="45.6702114" lon="11.405571"><ele>124.0</ele><time>2026-03-22T08:33:29.698Z</time></trkpt><trkpt lat="45.6701124" lon="11.4055978"><ele>124.0</ele><time>2026-03-22T08:33:31.697Z</time></trkpt><trkpt lat="45.6699945" lon="11.4056332"><ele>124.0</ele><time>2026-03-22T08:33:33.699Z</time></trkpt><trkpt lat="45.669887" lon="11.4056349"><ele>124.0</ele><time>2026-03-22T08:33:35.699Z</time></trkpt><trkpt lat="45.6698279" lon="11.4055686"><ele>124.0</ele><time>2026-03-22T08:33:37.699Z</time></trkpt><trkpt lat="45.6697443" lon="11.4055295"><ele>124.0</ele><time>2026-03-22T08:33:39.698Z</time></trkpt><trkpt lat="45.6696604" lon="11.4055242"><ele>124.0</ele><time>2026-03-22T08:33:41.699Z</time></trkpt><trkpt lat="45.6695661" lon="11.405544"><ele>124.0</ele><time>2026-03-22T08:33:43.698Z</time></trkpt><trkpt lat="45.6694666" lon="11.4055739"><ele>124.0</ele><time>2026-03-22T08:33:45.699Z</time></trkpt><trkpt lat="45.66937" lon="11.4056193"><ele>124.0</ele><time>2026-03-22T08:33:47.698Z</time></trkpt><trkpt lat="45.6692714" lon="11.4056552"><ele>124.0</ele><time>2026-03-22T08:33:49.699Z</time></trkpt><trkpt lat="45.669162" lon="11.4056955"><ele>124.0</ele><time>2026-03-22T08:33:51.699Z</time></trkpt><trkpt lat="45.6690497" lon="11.4057363"><ele>124.0</ele><time>2026-03-22T08:33:53.699Z</time></trkpt><trkpt lat="45.6689423" lon="11.4057675"><ele>124.0</ele><time>2026-03-22T08:33:55.698Z</time></trkpt><trkpt lat="45.6688283" lon="11.4057902"><ele>124.0</ele><time>2026-03-22T08:33:57.699Z</time></trkpt><trkpt lat="45.6687226" lon="11.4058224"><ele>124.0</ele><time>2026-03-22T08:33:59.699Z</time></trkpt><trkpt lat="45.6686047" lon="11.4058483"><ele>124.0</ele><time>2026-03-22T08:34:01.699Z</time></trkpt><trkpt lat="45.6685338" lon="11.4058893"><ele>124.0</ele><time>2026-03-22T08:34:03.697Z</time></trkpt><trkpt lat="45.6684053" lon="11.4059204"><ele>124.0</ele><time>2026-03-22T08:34:05.698Z</time></trkpt><trkpt lat="45.6683412" lon="11.4059471"><ele>124.0</ele><time>2026-03-22T08:34:06.699Z</time></trkpt><trkpt lat="45.6682144" lon="11.4059822"><ele>124.0</ele><time>2026-03-22T08:34:08.698Z</time></trkpt><trkpt lat="45.6680985" lon="11.4060248"><ele>124.00000000000001</ele><time>2026-03-22T08:34:10.698Z</time></trkpt><trkpt lat="45.6680348" lon="11.4060419"><ele>124.0</ele><time>2026-03-22T08:34:11.698Z</time></trkpt><trkpt lat="45.6679168" lon="11.4060809"><ele>124.0</ele><time>2026-03-22T08:34:13.698Z</time></trkpt><trkpt lat="45.6678503" lon="11.4061061"><ele>124.0</ele><time>2026-03-22T08:34:14.699Z</time></trkpt><trkpt lat="45.6677834" lon="11.4061192"><ele>124.00000000000001</ele><time>2026-03-22T08:34:15.698Z</time></trkpt><trkpt lat="45.6676611" lon="11.4061489"><ele>124.0</ele><time>2026-03-22T08:34:17.698Z</time></trkpt><trkpt lat="45.6675453" lon="11.4061792"><ele>124.2</ele><time>2026-03-22T08:34:19.698Z</time></trkpt><trkpt lat="45.6674795" lon="11.4062"><ele>124.4</ele><time>2026-03-22T08:34:20.698Z</time></trkpt><trkpt lat="45.6673557" lon="11.4062224"><ele>124.6</ele><time>2026-03-22T08:34:22.698Z</time></trkpt><trkpt lat="45.6672361" lon="11.4062646"><ele>124.8</ele><time>2026-03-22T08:34:24.699Z</time></trkpt><trkpt lat="45.6671225" lon="11.4062984"><ele>125.0</ele><time>2026-03-22T08:34:26.697Z</time></trkpt><trkpt lat="45.6670132" lon="11.4063346"><ele>124.8</ele><time>2026-03-22T08:34:28.699Z</time></trkpt><trkpt lat="45.6668985" lon="11.4063536"><ele>124.6</ele><time>2026-03-22T08:34:30.7Z</time></trkpt><trkpt lat="45.6668307" lon="11.4063633"><ele>124.4</ele><time>2026-03-22T08:34:31.699Z</time></trkpt><trkpt lat="45.6667216" lon="11.4063317"><ele>124.2</ele><time>2026-03-22T08:34:33.699Z</time></trkpt><trkpt lat="45.6666365" lon="11.4062837"><ele>124.0</ele><time>2026-03-22T08:34:35.698Z</time></trkpt><trkpt lat="45.6665704" lon="11.4062622"><ele>124.0</ele><time>2026-03-22T08:34:36.698Z</time></trkpt><trkpt lat="45.6665017" lon="11.4062683"><ele>124.0</ele><time>2026-03-22T08:34:37.698Z</time></trkpt><trkpt lat="45.666355" lon="11.4062906"><ele>124.0</ele><time>2026-03-22T08:34:39.699Z</time></trkpt><trkpt lat="45.6662536" lon="11.4063761"><ele>124.0</ele><time>2026-03-22T08:34:41.7Z</time></trkpt><trkpt lat="45.6661872" lon="11.4063977"><ele>124.0</ele><time>2026-03-22T08:34:42.698Z</time></trkpt><trkpt lat="45.6660643" lon="11.4063924"><ele>123.66666666666667</ele><time>2026-03-22T08:34:44.699Z</time></trkpt><trkpt lat="45.6659805" lon="11.4063902"><ele>123.33333333333334</ele><time>2026-03-22T08:34:45.699Z</time></trkpt><trkpt lat="45.6658553" lon="11.4063296"><ele>123.0</ele><time>2026-03-22T08:34:47.698Z</time></trkpt><trkpt lat="45.6657922" lon="11.4062999"><ele>122.66666666666666</ele><time>2026-03-22T08:34:48.698Z</time></trkpt><trkpt lat="45.6657171" lon="11.4062664"><ele>122.33333333333333</ele><time>2026-03-22T08:34:49.699Z</time></trkpt><trkpt lat="45.6656525" lon="11.4062358"><ele>122.0</ele><time>2026-03-22T08:34:50.698Z</time></trkpt><trkpt lat="45.6655305" lon="11.4061674"><ele>121.99999999999999</ele><time>2026-03-22T08:34:52.699Z</time></trkpt><trkpt lat="45.6654625" lon="11.4061386"><ele>122.0</ele><time>2026-03-22T08:34:53.697Z</time></trkpt><trkpt lat="45.6653613" lon="11.4060866"><ele>122.0</ele><time>2026-03-22T08:34:55.697Z</time></trkpt><trkpt lat="45.6653012" lon="11.4060568"><ele>122.0</ele><time>2026-03-22T08:34:56.698Z</time></trkpt><trkpt lat="45.6652263" lon="11.4060119"><ele>121.99999999999999</ele><time>2026-03-22T08:34:58.698Z</time></trkpt><trkpt lat="45.6651234" lon="11.4059752"><ele>122.0</ele><time>2026-03-22T08:34:59.7Z</time></trkpt><trkpt lat="45.6650473" lon="11.4059449"><ele>121.83333333333333</ele><time>2026-03-22T08:35:00.698Z</time></trkpt><trkpt lat="45.6649812" lon="11.4059134"><ele>121.66666666666666</ele><time>2026-03-22T08:35:01.699Z</time></trkpt><trkpt lat="45.6648705" lon="11.4058804"><ele>121.5</ele><time>2026-03-22T08:35:02.7Z</time></trkpt><trkpt lat="45.664801" lon="11.4058493"><ele>121.33333333333334</ele><time>2026-03-22T08:35:03.698Z</time></trkpt><trkpt lat="45.6647252" lon="11.4058007"><ele>121.16666666666667</ele><time>2026-03-22T08:35:04.699Z</time></trkpt><trkpt lat="45.6646632" lon="11.4057651"><ele>121.0</ele><time>2026-03-22T08:35:05.698Z</time></trkpt><trkpt lat="45.6645957" lon="11.4057318"><ele>121.0</ele><time>2026-03-22T08:35:06.698Z</time></trkpt><trkpt lat="45.6644974" lon="11.4056886"><ele>121.0</ele><time>2026-03-22T08:35:07.699Z</time></trkpt><trkpt lat="45.6643833" lon="11.4056232"><ele>121.0</ele><time>2026-03-22T08:35:09.699Z</time></trkpt><trkpt lat="45.6642974" lon="11.4055497"><ele>121.0</ele><time>2026-03-22T08:35:11.698Z</time></trkpt><trkpt lat="45.6641885" lon="11.4054872"><ele>121.0</ele><time>2026-03-22T08:35:13.699Z</time></trkpt><trkpt lat="45.6640917" lon="11.405417"><ele>121.00000000000001</ele><time>2026-03-22T08:35:15.699Z</time></trkpt><trkpt lat="45.6640256" lon="11.4053755"><ele>121.0</ele><time>2026-03-22T08:35:16.698Z</time></trkpt><trkpt lat="45.6639466" lon="11.4053209"><ele>121.0</ele><time>2026-03-22T08:35:17.699Z</time></trkpt><trkpt lat="45.6638903" lon="11.4052798"><ele>121.0</ele><time>2026-03-22T08:35:18.699Z</time></trkpt><trkpt lat="45.6637945" lon="11.4051966"><ele>121.00000000000001</ele><time>2026-03-22T08:35:20.699Z</time></trkpt><trkpt lat="45.6637441" lon="11.4051359"><ele>121.0</ele><time>2026-03-22T08:35:21.698Z</time></trkpt><trkpt lat="45.663679" lon="11.4051035"><ele>120.6</ele><time>2026-03-22T08:35:22.698Z</time></trkpt><trkpt lat="45.6635832" lon="11.4050308"><ele>120.19999999999999</ele><time>2026-03-22T08:35:24.699Z</time></trkpt><trkpt lat="45.6634817" lon="11.404957"><ele>119.80000000000001</ele><time>2026-03-22T08:35:26.698Z</time></trkpt><trkpt lat="45.663415" lon="11.40488"><ele>119.4</ele><time>2026-03-22T08:35:27.698Z</time></trkpt><trkpt lat="45.6633446" lon="11.4048264"><ele>119.0</ele><time>2026-03-22T08:35:28.698Z</time></trkpt><trkpt lat="45.663252" lon="11.4047407"><ele>119.0</ele><time>2026-03-22T08:35:30.698Z</time></trkpt><trkpt lat="45.6631584" lon="11.4046878"><ele>119.0</ele><time>2026-03-22T08:35:32.7Z</time></trkpt><trkpt lat="45.663103" lon="11.4046396"><ele>119.0</ele><time>2026-03-22T08:35:33.699Z</time></trkpt><trkpt lat="45.6630269" lon="11.4045731"><ele>119.0</ele><time>2026-03-22T08:35:35.699Z</time></trkpt><trkpt lat="45.6629429" lon="11.4044884"><ele>119.0</ele><time>2026-03-22T08:35:37.699Z</time></trkpt><trkpt lat="45.6628602" lon="11.4044219"><ele>119.0</ele><time>2026-03-22T08:35:39.698Z</time></trkpt><trkpt lat="45.6627878" lon="11.4043563"><ele>119.0</ele><time>2026-03-22T08:35:40.699Z</time></trkpt><trkpt lat="45.6627022" lon="11.4042849"><ele>119.0</ele><time>2026-03-22T08:35:42.697Z</time></trkpt><trkpt lat="45.6626047" lon="11.4041861"><ele>119.0</ele><time>2026-03-22T08:35:44.699Z</time></trkpt><trkpt lat="45.6625037" lon="11.4040708"><ele>119.0</ele><time>2026-03-22T08:35:46.698Z</time></trkpt><trkpt lat="45.6624569" lon="11.4040074"><ele>119.0</ele><time>2026-03-22T08:35:47.698Z</time></trkpt><trkpt lat="45.6623745" lon="11.4038846"><ele>119.0</ele><time>2026-03-22T08:35:49.7Z</time></trkpt><trkpt lat="45.6622874" lon="11.4037548"><ele>119.0</ele><time>2026-03-22T08:35:51.697Z</time></trkpt><trkpt lat="45.6622139" lon="11.4036907"><ele>119.0</ele><time>2026-03-22T08:35:54.699Z</time></trkpt><trkpt lat="45.6621198" lon="11.403537"><ele>119.4</ele><time>2026-03-22T08:35:56.698Z</time></trkpt><trkpt lat="45.6620332" lon="11.403434"><ele>119.80000000000001</ele><time>2026-03-22T08:35:58.699Z</time></trkpt><trkpt lat="45.6619775" lon="11.4033839"><ele>120.19999999999999</ele><time>2026-03-22T08:35:59.698Z</time></trkpt><trkpt lat="45.6619126" lon="11.4033183"><ele>120.6</ele><time>2026-03-22T08:36:00.698Z</time></trkpt><trkpt lat="45.6618171" lon="11.4032215"><ele>121.0</ele><time>2026-03-22T08:36:02.697Z</time></trkpt><trkpt lat="45.6617309" lon="11.4031132"><ele>121.0</ele><time>2026-03-22T08:36:04.698Z</time></trkpt><trkpt lat="45.6616462" lon="11.4030057"><ele>121.0</ele><time>2026-03-22T08:36:06.699Z</time></trkpt><trkpt lat="45.6615544" lon="11.4029122"><ele>121.0</ele><time>2026-03-22T08:36:08.697Z</time></trkpt><trkpt lat="45.6614669" lon="11.4028115"><ele>121.0</ele><time>2026-03-22T08:36:10.699Z</time></trkpt><trkpt lat="45.6614151" lon="11.4027573"><ele>121.0</ele><time>2026-03-22T08:36:11.698Z</time></trkpt><trkpt lat="45.6613599" lon="11.4026526"><ele>121.0</ele><time>2026-03-22T08:36:13.697Z</time></trkpt><trkpt lat="45.6613461" lon="11.4025593"><ele>121.0</ele><time>2026-03-22T08:36:15.697Z</time></trkpt><trkpt lat="45.6613303" lon="11.4024178"><ele>121.0</ele><time>2026-03-22T08:36:17.699Z</time></trkpt><trkpt lat="45.6612786" lon="11.4022924"><ele>121.0</ele><time>2026-03-22T08:36:19.698Z</time></trkpt><trkpt lat="45.6611924" lon="11.4022152"><ele>121.0</ele><time>2026-03-22T08:36:21.699Z</time></trkpt><trkpt lat="45.6610804" lon="11.4021764"><ele>121.25</ele><time>2026-03-22T08:36:23.699Z</time></trkpt><trkpt lat="45.6609677" lon="11.4021345"><ele>121.5</ele><time>2026-03-22T08:36:25.699Z</time></trkpt><trkpt lat="45.6608781" lon="11.4020626"><ele>121.75</ele><time>2026-03-22T08:36:27.698Z</time></trkpt><trkpt lat="45.6607857" lon="11.4019576"><ele>122.0</ele><time>2026-03-22T08:36:29.699Z</time></trkpt><trkpt lat="45.6606986" lon="11.4018471"><ele>122.0</ele><time>2026-03-22T08:36:31.699Z</time></trkpt><trkpt lat="45.6606482" lon="11.4017901"><ele>121.99999999999999</ele><time>2026-03-22T08:36:32.698Z</time></trkpt><trkpt lat="45.6605426" lon="11.4016865"><ele>121.99999999999999</ele><time>2026-03-22T08:36:34.698Z</time></trkpt><trkpt lat="45.6604575" lon="11.4015834"><ele>122.0</ele><time>2026-03-22T08:36:36.699Z</time></trkpt><trkpt lat="45.6604065" lon="11.4015185"><ele>122.0</ele><time>2026-03-22T08:36:38.698Z</time></trkpt><trkpt lat="45.6603042" lon="11.4013941"><ele>121.99999999999999</ele><time>2026-03-22T08:36:40.699Z</time></trkpt><trkpt lat="45.6602545" lon="11.4013351"><ele>122.0</ele><time>2026-03-22T08:36:41.697Z</time></trkpt><trkpt lat="45.6602027" lon="11.4012667"><ele>122.0</ele><time>2026-03-22T08:36:42.698Z</time></trkpt><trkpt lat="45.6601522" lon="11.401211"><ele>122.0</ele><time>2026-03-22T08:36:43.699Z</time></trkpt><trkpt lat="45.6600552" lon="11.4011156"><ele>121.99999999999999</ele><time>2026-03-22T08:36:45.697Z</time></trkpt><trkpt lat="45.6599684" lon="11.4010111"><ele>122.0</ele><time>2026-03-22T08:36:47.698Z</time></trkpt><trkpt lat="45.659958" lon="11.4008551"><ele>122.0</ele><time>2026-03-22T08:36:49.698Z</time></trkpt><trkpt lat="45.6600203" lon="11.400737"><ele>121.99999999999999</ele><time>2026-03-22T08:36:51.699Z</time></trkpt><trkpt lat="45.660109" lon="11.4006569"><ele>121.99999999999999</ele><time>2026-03-22T08:36:53.699Z</time></trkpt><trkpt lat="45.6602046" lon="11.4005915"><ele>122.0</ele><time>2026-03-22T08:36:55.698Z</time></trkpt><trkpt lat="45.6602913" lon="11.4005337"><ele>122.0</ele><time>2026-03-22T08:36:57.699Z</time></trkpt><trkpt lat="45.6603827" lon="11.4004746"><ele>124.49999999999999</ele><time>2026-03-22T08:36:59.698Z</time></trkpt><trkpt lat="45.660464" lon="11.400427"><ele>127.0</ele><time>2026-03-22T08:37:01.698Z</time></trkpt><trkpt lat="45.6605465" lon="11.4003756"><ele>129.5</ele><time>2026-03-22T08:37:03.698Z</time></trkpt><trkpt lat="45.6606259" lon="11.4003027"><ele>132.0</ele><time>2026-03-22T08:37:05.698Z</time></trkpt><trkpt lat="45.6606948" lon="11.4002727"><ele>134.5</ele><time>2026-03-22T08:37:07.698Z</time></trkpt><trkpt lat="45.6607608" lon="11.4002355"><ele>137.0</ele><time>2026-03-22T08:37:09.698Z</time></trkpt><trkpt lat="45.6608379" lon="11.4001766"><ele>137.0</ele><time>2026-03-22T08:37:11.696Z</time></trkpt><trkpt lat="45.6609263" lon="11.4001419"><ele>137.0</ele><time>2026-03-22T08:37:14.698Z</time></trkpt><trkpt lat="45.6610298" lon="11.4001014"><ele>137.0</ele><time>2026-03-22T08:37:17.698Z</time></trkpt><trkpt lat="45.6611037" lon="11.4000451"><ele>137.0</ele><time>2026-03-22T08:37:19.698Z</time></trkpt><trkpt lat="45.6611865" lon="11.3999859"><ele>137.0</ele><time>2026-03-22T08:37:21.696Z</time></trkpt><trkpt lat="45.6612619" lon="11.3999325"><ele>135.66666666666666</ele><time>2026-03-22T08:37:23.698Z</time></trkpt><trkpt lat="45.6613498" lon="11.3998801"><ele>134.33333333333331</ele><time>2026-03-22T08:37:25.698Z</time></trkpt><trkpt lat="45.6614401" lon="11.3998275"><ele>133.0</ele><time>2026-03-22T08:37:27.698Z</time></trkpt><trkpt lat="45.6615039" lon="11.3997865"><ele>131.66666666666666</ele><time>2026-03-22T08:37:29.698Z</time></trkpt><trkpt lat="45.6615663" lon="11.3997553"><ele>130.33333333333334</ele><time>2026-03-22T08:37:32.698Z</time></trkpt><trkpt lat="45.6616406" lon="11.3997486"><ele>129.0</ele><time>2026-03-22T08:37:35.697Z</time></trkpt><trkpt lat="45.6617185" lon="11.3997207"><ele>128.99999999999997</ele><time>2026-03-22T08:37:38.697Z</time></trkpt><trkpt lat="45.6617758" lon="11.3996802"><ele>129.0</ele><time>2026-03-22T08:37:41.698Z</time></trkpt><trkpt lat="45.6618386" lon="11.3996164"><ele>129.0</ele><time>2026-03-22T08:37:44.697Z</time></trkpt><trkpt lat="45.6619055" lon="11.3995509"><ele>129.0</ele><time>2026-03-22T08:37:47.697Z</time></trkpt><trkpt lat="45.6619675" lon="11.3995249"><ele>129.0</ele><time>2026-03-22T08:37:49.697Z</time></trkpt><trkpt lat="45.662036" lon="11.3995084"><ele>128.99999999999997</ele><time>2026-03-22T08:37:51.696Z</time></trkpt><trkpt lat="45.6621049" lon="11.3994812"><ele>129.0</ele><time>2026-03-22T08:37:53.697Z</time></trkpt><trkpt lat="45.6621738" lon="11.3994355"><ele>131.33333333333334</ele><time>2026-03-22T08:37:56.697Z</time></trkpt><trkpt lat="45.6622277" lon="11.3993775"><ele>133.66666666666666</ele><time>2026-03-22T08:37:59.698Z</time></trkpt><trkpt lat="45.6623014" lon="11.3993187"><ele>136.0</ele><time>2026-03-22T08:38:03.698Z</time></trkpt><trkpt lat="45.662383" lon="11.3992714"><ele>138.33333333333331</ele><time>2026-03-22T08:38:06.697Z</time></trkpt><trkpt lat="45.662452" lon="11.3992428"><ele>140.66666666666666</ele><time>2026-03-22T08:38:08.698Z</time></trkpt><trkpt lat="45.6625202" lon="11.3992058"><ele>143.0</ele><time>2026-03-22T08:38:10.698Z</time></trkpt><trkpt lat="45.662602" lon="11.3991659"><ele>143.0</ele><time>2026-03-22T08:38:14.698Z</time></trkpt><trkpt lat="45.6626608" lon="11.3991068"><ele>143.0</ele><time>2026-03-22T08:38:16.698Z</time></trkpt><trkpt lat="45.6627225" lon="11.3990455"><ele>143.0</ele><time>2026-03-22T08:38:19.697Z</time></trkpt><trkpt lat="45.6627992" lon="11.3989527"><ele>143.0</ele><time>2026-03-22T08:38:22.697Z</time></trkpt><trkpt lat="45.6628556" lon="11.3988793"><ele>143.0</ele><time>2026-03-22T08:38:24.696Z</time></trkpt><trkpt lat="45.6629278" lon="11.3987829"><ele>143.0</ele><time>2026-03-22T08:38:27.697Z</time></trkpt><trkpt lat="45.6629924" lon="11.3987085"><ele>144.6</ele><time>2026-03-22T08:38:29.698Z</time></trkpt><trkpt lat="45.6630536" lon="11.3986463"><ele>146.20000000000002</ele><time>2026-03-22T08:38:31.697Z</time></trkpt><trkpt lat="45.6632364" lon="11.3985338"><ele>147.8</ele><time>2026-03-22T08:38:32.698Z</time></trkpt><trkpt lat="45.6633107" lon="11.3984884"><ele>149.4</ele><time>2026-03-22T08:38:35.697Z</time></trkpt><trkpt lat="45.6633812" lon="11.3984486"><ele>151.0</ele><time>2026-03-22T08:38:37.698Z</time></trkpt><trkpt lat="45.6634893" lon="11.3983934"><ele>151.0</ele><time>2026-03-22T08:38:39.698Z</time></trkpt><trkpt lat="45.6635916" lon="11.3983582"><ele>151.0</ele><time>2026-03-22T08:38:41.697Z</time></trkpt><trkpt lat="45.6636898" lon="11.3983294"><ele>151.0</ele><time>2026-03-22T08:38:43.697Z</time></trkpt><trkpt lat="45.6637814" lon="11.398288"><ele>151.0</ele><time>2026-03-22T08:38:45.697Z</time></trkpt><trkpt lat="45.6638793" lon="11.3982416"><ele>151.0</ele><time>2026-03-22T08:38:47.697Z</time></trkpt><trkpt lat="45.6639756" lon="11.398182"><ele>149.6</ele><time>2026-03-22T08:38:49.697Z</time></trkpt><trkpt lat="45.6640658" lon="11.3980888"><ele>148.2</ele><time>2026-03-22T08:38:51.698Z</time></trkpt><trkpt lat="45.6641316" lon="11.3979966"><ele>146.8</ele><time>2026-03-22T08:38:53.698Z</time></trkpt><trkpt lat="45.6642171" lon="11.3979167"><ele>145.4</ele><time>2026-03-22T08:38:55.698Z</time></trkpt><trkpt lat="45.6643189" lon="11.3978376"><ele>144.0</ele><time>2026-03-22T08:38:57.698Z</time></trkpt><trkpt lat="45.6644209" lon="11.397739"><ele>140.6</ele><time>2026-03-22T08:38:59.697Z</time></trkpt><trkpt lat="45.6645128" lon="11.3976273"><ele>137.2</ele><time>2026-03-22T08:39:01.698Z</time></trkpt><trkpt lat="45.6645559" lon="11.39756"><ele>133.79999999999998</ele><time>2026-03-22T08:39:02.697Z</time></trkpt><trkpt lat="45.6646333" lon="11.3974302"><ele>130.4</ele><time>2026-03-22T08:39:04.696Z</time></trkpt><trkpt lat="45.6647042" lon="11.3973124"><ele>127.0</ele><time>2026-03-22T08:39:06.698Z</time></trkpt><trkpt lat="45.6647838" lon="11.3971888"><ele>130.0</ele><time>2026-03-22T08:39:08.698Z</time></trkpt><trkpt lat="45.6648673" lon="11.3970713"><ele>133.0</ele><time>2026-03-22T08:39:10.697Z</time></trkpt><trkpt lat="45.6649408" lon="11.3969745"><ele>136.0</ele><time>2026-03-22T08:39:12.698Z</time></trkpt><trkpt lat="45.6650263" lon="11.396883"><ele>139.0</ele><time>2026-03-22T08:39:14.698Z</time></trkpt><trkpt lat="45.665106" lon="11.3968046"><ele>142.0</ele><time>2026-03-22T08:39:16.698Z</time></trkpt><trkpt lat="45.6651923" lon="11.3966977"><ele>142.0</ele><time>2026-03-22T08:39:18.698Z</time></trkpt><trkpt lat="45.665235" lon="11.3966292"><ele>142.0</ele><time>2026-03-22T08:39:19.697Z</time></trkpt><trkpt lat="45.6653085" lon="11.3964738"><ele>142.0</ele><time>2026-03-22T08:39:21.698Z</time></trkpt><trkpt lat="45.6653842" lon="11.3962041"><ele>142.0</ele><time>2026-03-22T08:39:22.698Z</time></trkpt><trkpt lat="45.6654159" lon="11.3960952"><ele>140.16666666666669</ele><time>2026-03-22T08:39:23.696Z</time></trkpt><trkpt lat="45.6654403" lon="11.3960071"><ele>138.33333333333334</ele><time>2026-03-22T08:39:24.698Z</time></trkpt><trkpt lat="45.6654726" lon="11.3959285"><ele>136.5</ele><time>2026-03-22T08:39:25.697Z</time></trkpt><trkpt lat="45.665525" lon="11.3957841"><ele>134.66666666666666</ele><time>2026-03-22T08:39:27.697Z</time></trkpt><trkpt lat="45.665564" lon="11.3956726"><ele>132.83333333333331</ele><time>2026-03-22T08:39:29.698Z</time></trkpt><trkpt lat="45.6656116" lon="11.3955885"><ele>131.0</ele><time>2026-03-22T08:39:31.697Z</time></trkpt><trkpt lat="45.6656697" lon="11.3955321"><ele>131.0</ele><time>2026-03-22T08:39:33.698Z</time></trkpt><trkpt lat="45.6656712" lon="11.3953922"><ele>131.0</ele><time>2026-03-22T08:39:35.696Z</time></trkpt><trkpt lat="45.6656403" lon="11.3952798"><ele>131.0</ele><time>2026-03-22T08:39:37.696Z</time></trkpt><trkpt lat="45.6655989" lon="11.3951749"><ele>131.0</ele><time>2026-03-22T08:39:39.697Z</time></trkpt><trkpt lat="45.6655599" lon="11.3950681"><ele>131.0</ele><time>2026-03-22T08:39:41.698Z</time></trkpt><trkpt lat="45.6655204" lon="11.3949873"><ele>131.0</ele><time>2026-03-22T08:39:43.698Z</time></trkpt><trkpt lat="45.6654798" lon="11.3949099"><ele>131.0</ele><time>2026-03-22T08:39:45.697Z</time></trkpt><trkpt lat="45.6654321" lon="11.3948085"><ele>131.0</ele><time>2026-03-22T08:39:47.698Z</time></trkpt><trkpt lat="45.6653839" lon="11.3946693"><ele>131.0</ele><time>2026-03-22T08:39:49.698Z</time></trkpt><trkpt lat="45.6653153" lon="11.3945593"><ele>131.0</ele><time>2026-03-22T08:39:51.696Z</time></trkpt><trkpt lat="45.665243" lon="11.3944478"><ele>131.0</ele><time>2026-03-22T08:39:53.698Z</time></trkpt><trkpt lat="45.6651734" lon="11.3943326"><ele>130.8</ele><time>2026-03-22T08:39:55.697Z</time></trkpt><trkpt lat="45.6651159" lon="11.3942147"><ele>130.6</ele><time>2026-03-22T08:39:57.698Z</time></trkpt><trkpt lat="45.6650442" lon="11.3941086"><ele>130.4</ele><time>2026-03-22T08:39:59.697Z</time></trkpt><trkpt lat="45.6649815" lon="11.3939866"><ele>130.2</ele><time>2026-03-22T08:40:01.698Z</time></trkpt><trkpt lat="45.6649367" lon="11.3939092"><ele>130.0</ele><time>2026-03-22T08:40:02.697Z</time></trkpt><trkpt lat="45.6648571" lon="11.3937996"><ele>130.0</ele><time>2026-03-22T08:40:04.698Z</time></trkpt><trkpt lat="45.6647748" lon="11.3936832"><ele>130.0</ele><time>2026-03-22T08:40:06.697Z</time></trkpt><trkpt lat="45.6646937" lon="11.3935654"><ele>130.0</ele><time>2026-03-22T08:40:08.697Z</time></trkpt><trkpt lat="45.6646177" lon="11.3934496"><ele>130.0</ele><time>2026-03-22T08:40:10.697Z</time></trkpt><trkpt lat="45.6645511" lon="11.3933458"><ele>130.0</ele><time>2026-03-22T08:40:12.697Z</time></trkpt><trkpt lat="45.6644935" lon="11.3932538"><ele>129.5</ele><time>2026-03-22T08:40:14.698Z</time></trkpt><trkpt lat="45.6643984" lon="11.3931542"><ele>129.0</ele><time>2026-03-22T08:40:16.697Z</time></trkpt><trkpt lat="45.6643055" lon="11.3930397"><ele>128.5</ele><time>2026-03-22T08:40:18.698Z</time></trkpt><trkpt lat="45.6642221" lon="11.3929153"><ele>128.0</ele><time>2026-03-22T08:40:20.697Z</time></trkpt><trkpt lat="45.6641341" lon="11.3927998"><ele>127.75</ele><time>2026-03-22T08:40:22.697Z</time></trkpt><trkpt lat="45.6640365" lon="11.3926689"><ele>127.5</ele><time>2026-03-22T08:40:24.698Z</time></trkpt><trkpt lat="45.6639456" lon="11.392549"><ele>127.25</ele><time>2026-03-22T08:40:26.698Z</time></trkpt><trkpt lat="45.6638442" lon="11.3924282"><ele>127.0</ele><time>2026-03-22T08:40:28.697Z</time></trkpt><trkpt lat="45.6637465" lon="11.3923159"><ele>127.0</ele><time>2026-03-22T08:40:30.698Z</time></trkpt><trkpt lat="45.6636735" lon="11.3922133"><ele>126.99999999999999</ele><time>2026-03-22T08:40:32.698Z</time></trkpt><trkpt lat="45.6635845" lon="11.3920681"><ele>126.99999999999999</ele><time>2026-03-22T08:40:34.699Z</time></trkpt><trkpt lat="45.6635313" lon="11.3919393"><ele>127.0</ele><time>2026-03-22T08:40:36.699Z</time></trkpt><trkpt lat="45.663465" lon="11.3918661"><ele>127.0</ele><time>2026-03-22T08:40:37.699Z</time></trkpt><trkpt lat="45.6633956" lon="11.3917544"><ele>127.00000000000001</ele><time>2026-03-22T08:40:39.699Z</time></trkpt><trkpt lat="45.6633462" lon="11.3916524"><ele>127.0</ele><time>2026-03-22T08:40:41.698Z</time></trkpt><trkpt lat="45.6632705" lon="11.3915641"><ele>127.0</ele><time>2026-03-22T08:40:43.699Z</time></trkpt><trkpt lat="45.6632674" lon="11.3914679"><ele>127.0</ele><time>2026-03-22T08:40:47.697Z</time></trkpt><trkpt lat="45.6633399" lon="11.3914083"><ele>127.00000000000001</ele><time>2026-03-22T08:40:51.698Z</time></trkpt><trkpt lat="45.6634081" lon="11.3913754"><ele>127.0</ele><time>2026-03-22T08:40:54.699Z</time></trkpt><trkpt lat="45.663486" lon="11.3913864"><ele>127.00000000000001</ele><time>2026-03-22T08:40:57.697Z</time></trkpt><trkpt lat="45.6635744" lon="11.3913997"><ele>127.0</ele><time>2026-03-22T08:41:00.699Z</time></trkpt><trkpt lat="45.6636431" lon="11.3914191"><ele>127.0</ele><time>2026-03-22T08:41:02.698Z</time></trkpt><trkpt lat="45.6637223" lon="11.3914214"><ele>127.0</ele><time>2026-03-22T08:41:04.699Z</time></trkpt><trkpt lat="45.6638026" lon="11.391423"><ele>127.00000000000001</ele><time>2026-03-22T08:41:06.699Z</time></trkpt><trkpt lat="45.6638855" lon="11.391411"><ele>127.0</ele><time>2026-03-22T08:41:08.698Z</time></trkpt><trkpt lat="45.6639821" lon="11.3913942"><ele>127.00000000000001</ele><time>2026-03-22T08:41:10.698Z</time></trkpt><trkpt lat="45.6640479" lon="11.3913888"><ele>127.0</ele><time>2026-03-22T08:41:12.699Z</time></trkpt><trkpt lat="45.6641227" lon="11.3913811"><ele>127.0</ele><time>2026-03-22T08:41:15.699Z</time></trkpt><trkpt lat="45.6642167" lon="11.3913902"><ele>127.0</ele><time>2026-03-22T08:41:18.699Z</time></trkpt><trkpt lat="45.6642955" lon="11.3914014"><ele>127.00000000000001</ele><time>2026-03-22T08:41:20.699Z</time></trkpt><trkpt lat="45.6643859" lon="11.3914113"><ele>127.0</ele><time>2026-03-22T08:41:22.697Z</time></trkpt><trkpt lat="45.6644504" lon="11.3914137"><ele>127.0</ele><time>2026-03-22T08:41:24.698Z</time></trkpt><trkpt lat="45.664518" lon="11.3914126"><ele>126.99999999999999</ele><time>2026-03-22T08:41:26.699Z</time></trkpt><trkpt lat="45.6645855" lon="11.3914098"><ele>126.99999999999999</ele><time>2026-03-22T08:41:28.698Z</time></trkpt><trkpt lat="45.6647723" lon="11.3914066"><ele>127.0</ele><time>2026-03-22T08:41:33.698Z</time></trkpt><trkpt lat="45.6648364" lon="11.3914005"><ele>127.0</ele><time>2026-03-22T08:41:35.698Z</time></trkpt><trkpt lat="45.6650023" lon="11.3914051"><ele>127.0</ele><time>2026-03-22T08:41:39.697Z</time></trkpt><trkpt lat="45.6650973" lon="11.3914221"><ele>126.99999999999999</ele><time>2026-03-22T08:41:41.698Z</time></trkpt><trkpt lat="45.6651593" lon="11.391442"><ele>126.99999999999999</ele><time>2026-03-22T08:41:42.697Z</time></trkpt><trkpt lat="45.6652736" lon="11.3914926"><ele>127.0</ele><time>2026-03-22T08:41:44.699Z</time></trkpt><trkpt lat="45.6653831" lon="11.391522"><ele>127.0</ele><time>2026-03-22T08:41:46.699Z</time></trkpt><trkpt lat="45.6654625" lon="11.3915185"><ele>127.6</ele><time>2026-03-22T08:41:48.698Z</time></trkpt><trkpt lat="45.6655468" lon="11.391515"><ele>128.2</ele><time>2026-03-22T08:41:50.698Z</time></trkpt><trkpt lat="45.6656157" lon="11.3915125"><ele>128.8</ele><time>2026-03-22T08:41:52.699Z</time></trkpt><trkpt lat="45.6656955" lon="11.391484"><ele>129.4</ele><time>2026-03-22T08:41:54.697Z</time></trkpt><trkpt lat="45.6657946" lon="11.3914204"><ele>130.0</ele><time>2026-03-22T08:41:56.699Z</time></trkpt><trkpt lat="45.6658898" lon="11.3913529"><ele>129.6</ele><time>2026-03-22T08:41:58.699Z</time></trkpt><trkpt lat="45.6659832" lon="11.3912778"><ele>129.2</ele><time>2026-03-22T08:42:00.698Z</time></trkpt><trkpt lat="45.6660695" lon="11.3912094"><ele>128.8</ele><time>2026-03-22T08:42:02.699Z</time></trkpt><trkpt lat="45.6661686" lon="11.3911282"><ele>128.4</ele><time>2026-03-22T08:42:04.699Z</time></trkpt><trkpt lat="45.6662701" lon="11.3910452"><ele>128.0</ele><time>2026-03-22T08:42:06.698Z</time></trkpt><trkpt lat="45.6663612" lon="11.3909649"><ele>128.83333333333331</ele><time>2026-03-22T08:42:08.698Z</time></trkpt><trkpt lat="45.6664518" lon="11.3908943"><ele>129.66666666666666</ele><time>2026-03-22T08:42:10.698Z</time></trkpt><trkpt lat="45.6665479" lon="11.3908175"><ele>130.5</ele><time>2026-03-22T08:42:12.699Z</time></trkpt><trkpt lat="45.6666362" lon="11.3907699"><ele>131.33333333333334</ele><time>2026-03-22T08:42:14.699Z</time></trkpt><trkpt lat="45.6667093" lon="11.3907327"><ele>132.16666666666669</ele><time>2026-03-22T08:42:16.697Z</time></trkpt><trkpt lat="45.6667681" lon="11.3906984"><ele>133.0</ele><time>2026-03-22T08:42:18.698Z</time></trkpt><trkpt lat="45.6668511" lon="11.3906739"><ele>133.0</ele><time>2026-03-22T08:42:20.699Z</time></trkpt><trkpt lat="45.6669347" lon="11.3906515"><ele>133.0</ele><time>2026-03-22T08:42:22.698Z</time></trkpt><trkpt lat="45.6670181" lon="11.3906281"><ele>133.0</ele><time>2026-03-22T08:42:24.698Z</time></trkpt><trkpt lat="45.667089" lon="11.3906122"><ele>133.0</ele><time>2026-03-22T08:42:26.699Z</time></trkpt><trkpt lat="45.6671582" lon="11.3906034"><ele>133.0</ele><time>2026-03-22T08:42:28.699Z</time></trkpt><trkpt lat="45.6672373" lon="11.3906067"><ele>133.0</ele><time>2026-03-22T08:42:30.699Z</time></trkpt><trkpt lat="45.6673139" lon="11.3906123"><ele>133.16666666666669</ele><time>2026-03-22T08:42:32.698Z</time></trkpt><trkpt lat="45.6673817" lon="11.390622"><ele>133.33333333333334</ele><time>2026-03-22T08:42:34.698Z</time></trkpt><trkpt lat="45.6674585" lon="11.3906543"><ele>133.5</ele><time>2026-03-22T08:42:36.698Z</time></trkpt><trkpt lat="45.6675225" lon="11.3906125"><ele>133.66666666666666</ele><time>2026-03-22T08:42:38.699Z</time></trkpt><trkpt lat="45.6675923" lon="11.3905561"><ele>133.83333333333331</ele><time>2026-03-22T08:42:40.697Z</time></trkpt><trkpt lat="45.6676658" lon="11.3905086"><ele>134.0</ele><time>2026-03-22T08:42:42.699Z</time></trkpt><trkpt lat="45.6677316" lon="11.39047"><ele>134.33333333333331</ele><time>2026-03-22T08:42:44.698Z</time></trkpt><trkpt lat="45.6677928" lon="11.3904312"><ele>134.66666666666666</ele><time>2026-03-22T08:42:47.699Z</time></trkpt><trkpt lat="45.6678587" lon="11.3903828"><ele>135.0</ele><time>2026-03-22T08:42:51.698Z</time></trkpt><trkpt lat="45.6679327" lon="11.3904655"><ele>135.33333333333334</ele><time>2026-03-22T08:42:55.699Z</time></trkpt><trkpt lat="45.667989" lon="11.3905877"><ele>135.66666666666669</ele><time>2026-03-22T08:42:57.699Z</time></trkpt><trkpt lat="45.6680302" lon="11.3907084"><ele>136.0</ele><time>2026-03-22T08:43:00.698Z</time></trkpt><trkpt lat="45.668072" lon="11.390831"><ele>136.0</ele><time>2026-03-22T08:43:02.699Z</time></trkpt><trkpt lat="45.6681256" lon="11.3909471"><ele>136.0</ele><time>2026-03-22T08:43:04.699Z</time></trkpt><trkpt lat="45.6681822" lon="11.3910689"><ele>136.0</ele><time>2026-03-22T08:43:06.698Z</time></trkpt><trkpt lat="45.6682317" lon="11.3912047"><ele>136.0</ele><time>2026-03-22T08:43:08.697Z</time></trkpt><trkpt lat="45.6682676" lon="11.3913524"><ele>136.0</ele><time>2026-03-22T08:43:10.699Z</time></trkpt><trkpt lat="45.6683169" lon="11.3915468"><ele>136.2</ele><time>2026-03-22T08:43:11.699Z</time></trkpt><trkpt lat="45.6683596" lon="11.3917201"><ele>136.39999999999998</ele><time>2026-03-22T08:43:13.699Z</time></trkpt><trkpt lat="45.6684211" lon="11.3917762"><ele>136.6</ele><time>2026-03-22T08:43:16.697Z</time></trkpt><trkpt lat="45.668518" lon="11.3917669"><ele>136.79999999999998</ele><time>2026-03-22T08:43:18.697Z</time></trkpt><trkpt lat="45.6685734" lon="11.3917233"><ele>137.0</ele><time>2026-03-22T08:43:19.698Z</time></trkpt><trkpt lat="45.6686536" lon="11.3916612"><ele>137.0</ele><time>2026-03-22T08:43:22.698Z</time></trkpt><trkpt lat="45.668751" lon="11.3916449"><ele>137.0</ele><time>2026-03-22T08:43:24.698Z</time></trkpt><trkpt lat="45.6688568" lon="11.3915518"><ele>137.0</ele><time>2026-03-22T08:43:27.699Z</time></trkpt><trkpt lat="45.6689418" lon="11.3914766"><ele>137.0</ele><time>2026-03-22T08:43:29.698Z</time></trkpt><trkpt lat="45.6690427" lon="11.3913867"><ele>137.0</ele><time>2026-03-22T08:43:31.699Z</time></trkpt><trkpt lat="45.6691136" lon="11.3912702"><ele>137.0</ele><time>2026-03-22T08:43:32.698Z</time></trkpt><trkpt lat="45.6691812" lon="11.3911672"><ele>137.0</ele><time>2026-03-22T08:43:33.698Z</time></trkpt><trkpt lat="45.6692318" lon="11.3911127"><ele>137.0</ele><time>2026-03-22T08:43:34.698Z</time></trkpt><trkpt lat="45.6693338" lon="11.3910137"><ele>137.0</ele><time>2026-03-22T08:43:36.698Z</time></trkpt><trkpt lat="45.6693968" lon="11.3909214"><ele>137.0</ele><time>2026-03-22T08:43:38.698Z</time></trkpt><trkpt lat="45.6694729" lon="11.3908393"><ele>137.0</ele><time>2026-03-22T08:43:40.698Z</time></trkpt><trkpt lat="45.6695458" lon="11.39076"><ele>137.0</ele><time>2026-03-22T08:43:42.698Z</time></trkpt><trkpt lat="45.6696239" lon="11.3906894"><ele>137.0</ele><time>2026-03-22T08:43:44.698Z</time></trkpt><trkpt lat="45.6697039" lon="11.3906299"><ele>137.0</ele><time>2026-03-22T08:43:46.699Z</time></trkpt><trkpt lat="45.6697824" lon="11.3905658"><ele>137.0</ele><time>2026-03-22T08:43:48.699Z</time></trkpt><trkpt lat="45.6698663" lon="11.3905097"><ele>137.4</ele><time>2026-03-22T08:43:50.698Z</time></trkpt><trkpt lat="45.6699466" lon="11.3904389"><ele>137.79999999999998</ele><time>2026-03-22T08:43:52.698Z</time></trkpt><trkpt lat="45.6700144" lon="11.3903663"><ele>138.2</ele><time>2026-03-22T08:43:54.699Z</time></trkpt><trkpt lat="45.6700807" lon="11.3903011"><ele>138.6</ele><time>2026-03-22T08:43:56.698Z</time></trkpt><trkpt lat="45.6701713" lon="11.3902304"><ele>139.0</ele><time>2026-03-22T08:43:58.699Z</time></trkpt><trkpt lat="45.6702585" lon="11.3901771"><ele>138.8</ele><time>2026-03-22T08:44:00.698Z</time></trkpt><trkpt lat="45.6703154" lon="11.390098"><ele>138.60000000000002</ele><time>2026-03-22T08:44:02.698Z</time></trkpt><trkpt lat="45.670376" lon="11.3900195"><ele>138.4</ele><time>2026-03-22T08:44:04.696Z</time></trkpt><trkpt lat="45.6704678" lon="11.3899389"><ele>138.20000000000002</ele><time>2026-03-22T08:44:06.697Z</time></trkpt><trkpt lat="45.670545" lon="11.3898515"><ele>138.0</ele><time>2026-03-22T08:44:08.697Z</time></trkpt><trkpt lat="45.670631" lon="11.3897714"><ele>138.0</ele><time>2026-03-22T08:44:10.697Z</time></trkpt><trkpt lat="45.6706886" lon="11.3896958"><ele>138.0</ele><time>2026-03-22T08:44:12.698Z</time></trkpt><trkpt lat="45.6707285" lon="11.3896175"><ele>138.0</ele><time>2026-03-22T08:44:14.698Z</time></trkpt><trkpt lat="45.6707896" lon="11.3895412"><ele>138.0</ele><time>2026-03-22T08:44:16.698Z</time></trkpt><trkpt lat="45.6708727" lon="11.3894489"><ele>138.0</ele><time>2026-03-22T08:44:18.698Z</time></trkpt><trkpt lat="45.6709587" lon="11.3893795"><ele>138.0</ele><time>2026-03-22T08:44:20.697Z</time></trkpt><trkpt lat="45.6710257" lon="11.3892675"><ele>138.0</ele><time>2026-03-22T08:44:22.698Z</time></trkpt><trkpt lat="45.6710849" lon="11.3891585"><ele>138.0</ele><time>2026-03-22T08:44:24.697Z</time></trkpt><trkpt lat="45.6711604" lon="11.3890738"><ele>138.0</ele><time>2026-03-22T08:44:26.697Z</time></trkpt><trkpt lat="45.6712088" lon="11.3889902"><ele>138.0</ele><time>2026-03-22T08:44:28.697Z</time></trkpt><trkpt lat="45.6712771" lon="11.3889048"><ele>138.0</ele><time>2026-03-22T08:44:30.698Z</time></trkpt><trkpt lat="45.6713438" lon="11.3888048"><ele>138.6</ele><time>2026-03-22T08:44:32.697Z</time></trkpt><trkpt lat="45.6714073" lon="11.3887144"><ele>139.20000000000002</ele><time>2026-03-22T08:44:34.698Z</time></trkpt><trkpt lat="45.6714854" lon="11.3886227"><ele>139.8</ele><time>2026-03-22T08:44:36.697Z</time></trkpt><trkpt lat="45.6715758" lon="11.3885322"><ele>140.4</ele><time>2026-03-22T08:44:38.697Z</time></trkpt><trkpt lat="45.6716382" lon="11.3884281"><ele>141.0</ele><time>2026-03-22T08:44:40.698Z</time></trkpt><trkpt lat="45.6717108" lon="11.3883471"><ele>141.0</ele><time>2026-03-22T08:44:42.697Z</time></trkpt><trkpt lat="45.6717616" lon="11.3882661"><ele>141.0</ele><time>2026-03-22T08:44:44.698Z</time></trkpt><trkpt lat="45.6718224" lon="11.3881899"><ele>141.0</ele><time>2026-03-22T08:44:46.697Z</time></trkpt><trkpt lat="45.6718958" lon="11.3880878"><ele>141.0</ele><time>2026-03-22T08:44:48.698Z</time></trkpt><trkpt lat="45.6719671" lon="11.3879943"><ele>141.0</ele><time>2026-03-22T08:44:50.698Z</time></trkpt><trkpt lat="45.672028" lon="11.3878831"><ele>141.2</ele><time>2026-03-22T08:44:52.697Z</time></trkpt><trkpt lat="45.6721036" lon="11.3877902"><ele>141.39999999999998</ele><time>2026-03-22T08:44:54.698Z</time></trkpt><trkpt lat="45.6721584" lon="11.3877089"><ele>141.6</ele><time>2026-03-22T08:44:56.698Z</time></trkpt><trkpt lat="45.6722219" lon="11.3876398"><ele>141.79999999999998</ele><time>2026-03-22T08:44:58.698Z</time></trkpt><trkpt lat="45.6722877" lon="11.3875489"><ele>142.0</ele><time>2026-03-22T08:45:00.697Z</time></trkpt><trkpt lat="45.6723718" lon="11.3874524"><ele>142.0</ele><time>2026-03-22T08:45:02.698Z</time></trkpt><trkpt lat="45.6724289" lon="11.3873601"><ele>142.0</ele><time>2026-03-22T08:45:04.698Z</time></trkpt><trkpt lat="45.6724932" lon="11.3872695"><ele>142.0</ele><time>2026-03-22T08:45:06.697Z</time></trkpt><trkpt lat="45.6725503" lon="11.3871908"><ele>142.0</ele><time>2026-03-22T08:45:08.696Z</time></trkpt><trkpt lat="45.6726134" lon="11.3871078"><ele>142.0</ele><time>2026-03-22T08:45:10.698Z</time></trkpt><trkpt lat="45.6726682" lon="11.387026"><ele>142.0</ele><time>2026-03-22T08:45:12.698Z</time></trkpt><trkpt lat="45.6727343" lon="11.3869481"><ele>142.0</ele><time>2026-03-22T08:45:14.697Z</time></trkpt><trkpt lat="45.6728018" lon="11.3868495"><ele>142.0</ele><time>2026-03-22T08:45:16.699Z</time></trkpt><trkpt lat="45.6728633" lon="11.3867583"><ele>142.0</ele><time>2026-03-22T08:45:18.699Z</time></trkpt><trkpt lat="45.6729283" lon="11.3866761"><ele>142.0</ele><time>2026-03-22T08:45:20.7Z</time></trkpt><trkpt lat="45.6729923" lon="11.3865764"><ele>142.0</ele><time>2026-03-22T08:45:22.698Z</time></trkpt><trkpt lat="45.6730539" lon="11.386496"><ele>142.0</ele><time>2026-03-22T08:45:24.698Z</time></trkpt><trkpt lat="45.6731215" lon="11.3863995"><ele>142.0</ele><time>2026-03-22T08:45:26.697Z</time></trkpt><trkpt lat="45.6731932" lon="11.3863238"><ele>142.0</ele><time>2026-03-22T08:45:28.698Z</time></trkpt><trkpt lat="45.6732652" lon="11.3862403"><ele>142.0</ele><time>2026-03-22T08:45:30.697Z</time></trkpt><trkpt lat="45.6733466" lon="11.3861591"><ele>142.0</ele><time>2026-03-22T08:45:32.698Z</time></trkpt><trkpt lat="45.673431" lon="11.3860568"><ele>142.0</ele><time>2026-03-22T08:45:34.698Z</time></trkpt><trkpt lat="45.6735045" lon="11.3859715"><ele>142.0</ele><time>2026-03-22T08:45:36.698Z</time></trkpt><trkpt lat="45.6735821" lon="11.3858885"><ele>142.0</ele><time>2026-03-22T08:45:38.698Z</time></trkpt><trkpt lat="45.6736667" lon="11.3857943"><ele>142.0</ele><time>2026-03-22T08:45:40.698Z</time></trkpt><trkpt lat="45.6737475" lon="11.3857005"><ele>142.0</ele><time>2026-03-22T08:45:42.698Z</time></trkpt><trkpt lat="45.6738222" lon="11.3856075"><ele>142.2</ele><time>2026-03-22T08:45:44.697Z</time></trkpt><trkpt lat="45.6738974" lon="11.3855076"><ele>142.39999999999998</ele><time>2026-03-22T08:45:46.697Z</time></trkpt><trkpt lat="45.6739751" lon="11.3854129"><ele>142.60000000000002</ele><time>2026-03-22T08:45:48.697Z</time></trkpt><trkpt lat="45.6740535" lon="11.3853186"><ele>142.8</ele><time>2026-03-22T08:45:50.696Z</time></trkpt><trkpt lat="45.6741283" lon="11.3852242"><ele>143.0</ele><time>2026-03-22T08:45:52.697Z</time></trkpt><trkpt lat="45.6741955" lon="11.385122"><ele>143.0</ele><time>2026-03-22T08:45:54.698Z</time></trkpt><trkpt lat="45.6742695" lon="11.3850162"><ele>143.0</ele><time>2026-03-22T08:45:56.698Z</time></trkpt><trkpt lat="45.6743373" lon="11.3849257"><ele>143.0</ele><time>2026-03-22T08:45:58.698Z</time></trkpt><trkpt lat="45.6744157" lon="11.3848368"><ele>143.0</ele><time>2026-03-22T08:46:00.697Z</time></trkpt><trkpt lat="45.674487" lon="11.3847399"><ele>143.0</ele><time>2026-03-22T08:46:02.696Z</time></trkpt><trkpt lat="45.674567" lon="11.3846492"><ele>143.33333333333331</ele><time>2026-03-22T08:46:04.698Z</time></trkpt><trkpt lat="45.6746335" lon="11.384565"><ele>143.66666666666666</ele><time>2026-03-22T08:46:06.699Z</time></trkpt><trkpt lat="45.6746831" lon="11.3845033"><ele>144.0</ele><time>2026-03-22T08:46:07.698Z</time></trkpt><trkpt lat="45.6747548" lon="11.3844027"><ele>144.33333333333334</ele><time>2026-03-22T08:46:09.697Z</time></trkpt><trkpt lat="45.6748201" lon="11.3842981"><ele>144.66666666666669</ele><time>2026-03-22T08:46:11.698Z</time></trkpt><trkpt lat="45.6748904" lon="11.3842034"><ele>145.0</ele><time>2026-03-22T08:46:13.697Z</time></trkpt><trkpt lat="45.6749606" lon="11.3841155"><ele>145.0</ele><time>2026-03-22T08:46:15.698Z</time></trkpt><trkpt lat="45.6750454" lon="11.3840072"><ele>145.0</ele><time>2026-03-22T08:46:17.698Z</time></trkpt><trkpt lat="45.6751324" lon="11.3838942"><ele>145.0</ele><time>2026-03-22T08:46:19.697Z</time></trkpt><trkpt lat="45.6752085" lon="11.3838008"><ele>145.0</ele><time>2026-03-22T08:46:21.698Z</time></trkpt><trkpt lat="45.6752887" lon="11.3836982"><ele>145.0</ele><time>2026-03-22T08:46:23.697Z</time></trkpt><trkpt lat="45.6753779" lon="11.3835999"><ele>145.2</ele><time>2026-03-22T08:46:25.698Z</time></trkpt><trkpt lat="45.6754548" lon="11.3835103"><ele>145.4</ele><time>2026-03-22T08:46:27.697Z</time></trkpt><trkpt lat="45.6755346" lon="11.3834042"><ele>145.6</ele><time>2026-03-22T08:46:29.698Z</time></trkpt><trkpt lat="45.675612" lon="11.3832977"><ele>145.8</ele><time>2026-03-22T08:46:31.698Z</time></trkpt><trkpt lat="45.6756904" lon="11.3832067"><ele>146.0</ele><time>2026-03-22T08:46:33.698Z</time></trkpt><trkpt lat="45.6757593" lon="11.383106"><ele>146.2</ele><time>2026-03-22T08:46:35.698Z</time></trkpt><trkpt lat="45.6758285" lon="11.3830077"><ele>146.39999999999998</ele><time>2026-03-22T08:46:37.698Z</time></trkpt><trkpt lat="45.6759132" lon="11.3829095"><ele>146.6</ele><time>2026-03-22T08:46:39.698Z</time></trkpt><trkpt lat="45.6759939" lon="11.3828184"><ele>146.79999999999998</ele><time>2026-03-22T08:46:41.697Z</time></trkpt><trkpt lat="45.6760732" lon="11.3827156"><ele>147.0</ele><time>2026-03-22T08:46:43.696Z</time></trkpt><trkpt lat="45.6761551" lon="11.3826193"><ele>147.6</ele><time>2026-03-22T08:46:45.698Z</time></trkpt><trkpt lat="45.676225" lon="11.3825178"><ele>148.2</ele><time>2026-03-22T08:46:47.698Z</time></trkpt><trkpt lat="45.6762982" lon="11.3824209"><ele>148.8</ele><time>2026-03-22T08:46:49.698Z</time></trkpt><trkpt lat="45.6763795" lon="11.3823196"><ele>149.4</ele><time>2026-03-22T08:46:51.696Z</time></trkpt><trkpt lat="45.6764566" lon="11.3822214"><ele>150.0</ele><time>2026-03-22T08:46:53.697Z</time></trkpt><trkpt lat="45.6765448" lon="11.3821276"><ele>150.0</ele><time>2026-03-22T08:46:55.698Z</time></trkpt><trkpt lat="45.6766163" lon="11.3820313"><ele>150.0</ele><time>2026-03-22T08:46:57.698Z</time></trkpt><trkpt lat="45.6766914" lon="11.3819246"><ele>150.0</ele><time>2026-03-22T08:46:59.698Z</time></trkpt><trkpt lat="45.6767807" lon="11.3818365"><ele>150.0</ele><time>2026-03-22T08:47:01.698Z</time></trkpt><trkpt lat="45.6768571" lon="11.3817392"><ele>150.0</ele><time>2026-03-22T08:47:03.698Z</time></trkpt><trkpt lat="45.6769303" lon="11.3816366"><ele>150.4</ele><time>2026-03-22T08:47:05.698Z</time></trkpt><trkpt lat="45.677013" lon="11.3815463"><ele>150.8</ele><time>2026-03-22T08:47:07.697Z</time></trkpt><trkpt lat="45.6770918" lon="11.3814447"><ele>151.2</ele><time>2026-03-22T08:47:09.698Z</time></trkpt><trkpt lat="45.6771752" lon="11.3813362"><ele>151.6</ele><time>2026-03-22T08:47:11.697Z</time></trkpt><trkpt lat="45.6772545" lon="11.3812348"><ele>152.0</ele><time>2026-03-22T08:47:13.696Z</time></trkpt><trkpt lat="45.6773504" lon="11.3811518"><ele>152.0</ele><time>2026-03-22T08:47:15.698Z</time></trkpt><trkpt lat="45.6774263" lon="11.3810977"><ele>152.0</ele><time>2026-03-22T08:47:17.697Z</time></trkpt><trkpt lat="45.677522" lon="11.3810271"><ele>152.0</ele><time>2026-03-22T08:47:19.697Z</time></trkpt><trkpt lat="45.67761" lon="11.3809217"><ele>152.0</ele><time>2026-03-22T08:47:21.697Z</time></trkpt><trkpt lat="45.6777203" lon="11.3808981"><ele>152.0</ele><time>2026-03-22T08:47:23.697Z</time></trkpt><trkpt lat="45.6777849" lon="11.380822"><ele>152.0</ele><time>2026-03-22T08:47:25.697Z</time></trkpt><trkpt lat="45.6778832" lon="11.3807553"><ele>152.0</ele><time>2026-03-22T08:47:27.697Z</time></trkpt><trkpt lat="45.6779746" lon="11.3806882"><ele>152.0</ele><time>2026-03-22T08:47:29.697Z</time></trkpt><trkpt lat="45.6780755" lon="11.3806224"><ele>152.0</ele><time>2026-03-22T08:47:31.697Z</time></trkpt><trkpt lat="45.678173" lon="11.380563"><ele>152.0</ele><time>2026-03-22T08:47:33.698Z</time></trkpt><trkpt lat="45.6782497" lon="11.3804917"><ele>152.0</ele><time>2026-03-22T08:47:35.697Z</time></trkpt><trkpt lat="45.6783372" lon="11.3804087"><ele>152.0</ele><time>2026-03-22T08:47:37.698Z</time></trkpt><trkpt lat="45.6784113" lon="11.3803132"><ele>152.0</ele><time>2026-03-22T08:47:39.698Z</time></trkpt><trkpt lat="45.678498" lon="11.3802279"><ele>152.0</ele><time>2026-03-22T08:47:41.698Z</time></trkpt><trkpt lat="45.6785882" lon="11.3801594"><ele>152.0</ele><time>2026-03-22T08:47:43.698Z</time></trkpt><trkpt lat="45.67867" lon="11.3800843"><ele>152.6</ele><time>2026-03-22T08:47:45.697Z</time></trkpt><trkpt lat="45.6787498" lon="11.3800148"><ele>153.2</ele><time>2026-03-22T08:47:47.698Z</time></trkpt><trkpt lat="45.6788292" lon="11.3799059"><ele>153.8</ele><time>2026-03-22T08:47:49.697Z</time></trkpt><trkpt lat="45.6788557" lon="11.3797579"><ele>154.4</ele><time>2026-03-22T08:47:51.697Z</time></trkpt><trkpt lat="45.6788789" lon="11.3796382"><ele>155.0</ele><time>2026-03-22T08:47:53.697Z</time></trkpt><trkpt lat="45.6789084" lon="11.3794874"><ele>155.0</ele><time>2026-03-22T08:47:55.698Z</time></trkpt><trkpt lat="45.6789232" lon="11.379316"><ele>155.0</ele><time>2026-03-22T08:47:57.698Z</time></trkpt><trkpt lat="45.6789492" lon="11.3791408"><ele>155.0</ele><time>2026-03-22T08:47:59.698Z</time></trkpt><trkpt lat="45.6789874" lon="11.3790544"><ele>155.0</ele><time>2026-03-22T08:48:00.698Z</time></trkpt><trkpt lat="45.6790837" lon="11.3789283"><ele>155.0</ele><time>2026-03-22T08:48:02.697Z</time></trkpt><trkpt lat="45.6791314" lon="11.3788661"><ele>155.0</ele><time>2026-03-22T08:48:03.698Z</time></trkpt><trkpt lat="45.6792304" lon="11.3787497"><ele>155.0</ele><time>2026-03-22T08:48:05.696Z</time></trkpt><trkpt lat="45.6793126" lon="11.3786218"><ele>155.0</ele><time>2026-03-22T08:48:07.698Z</time></trkpt><trkpt lat="45.6794007" lon="11.3785282"><ele>155.0</ele><time>2026-03-22T08:48:09.698Z</time></trkpt><trkpt lat="45.6795018" lon="11.3784423"><ele>155.0</ele><time>2026-03-22T08:48:11.697Z</time></trkpt><trkpt lat="45.6795959" lon="11.3783672"><ele>155.0</ele><time>2026-03-22T08:48:13.698Z</time></trkpt><trkpt lat="45.6796953" lon="11.3782949"><ele>155.0</ele><time>2026-03-22T08:48:15.698Z</time></trkpt><trkpt lat="45.6797803" lon="11.3782466"><ele>155.0</ele><time>2026-03-22T08:48:17.698Z</time></trkpt><trkpt lat="45.6798777" lon="11.3782046"><ele>155.0</ele><time>2026-03-22T08:48:19.697Z</time></trkpt><trkpt lat="45.6799654" lon="11.3781557"><ele>155.0</ele><time>2026-03-22T08:48:21.697Z</time></trkpt><trkpt lat="45.6800592" lon="11.3780952"><ele>155.0</ele><time>2026-03-22T08:48:23.697Z</time></trkpt><trkpt lat="45.6801456" lon="11.3780517"><ele>155.0</ele><time>2026-03-22T08:48:25.696Z</time></trkpt><trkpt lat="45.6802387" lon="11.3779787"><ele>155.0</ele><time>2026-03-22T08:48:27.697Z</time></trkpt><trkpt lat="45.6803072" lon="11.3778859"><ele>155.0</ele><time>2026-03-22T08:48:29.698Z</time></trkpt><trkpt lat="45.6803596" lon="11.3778281"><ele>155.33333333333331</ele><time>2026-03-22T08:48:30.698Z</time></trkpt><trkpt lat="45.6804204" lon="11.377767"><ele>155.66666666666666</ele><time>2026-03-22T08:48:32.698Z</time></trkpt><trkpt lat="45.6804726" lon="11.3776554"><ele>156.0</ele><time>2026-03-22T08:48:34.698Z</time></trkpt><trkpt lat="45.6805299" lon="11.3775735"><ele>156.33333333333334</ele><time>2026-03-22T08:48:36.697Z</time></trkpt><trkpt lat="45.6805762" lon="11.3774826"><ele>156.66666666666669</ele><time>2026-03-22T08:48:38.697Z</time></trkpt><trkpt lat="45.6806282" lon="11.3774183"><ele>157.0</ele><time>2026-03-22T08:48:40.698Z</time></trkpt><trkpt lat="45.6807164" lon="11.3773608"><ele>157.0</ele><time>2026-03-22T08:48:43.697Z</time></trkpt><trkpt lat="45.6807663" lon="11.3772922"><ele>157.0</ele><time>2026-03-22T08:48:45.698Z</time></trkpt><trkpt lat="45.6808381" lon="11.3772321"><ele>157.0</ele><time>2026-03-22T08:48:47.698Z</time></trkpt><trkpt lat="45.6809058" lon="11.377172"><ele>157.0</ele><time>2026-03-22T08:48:49.697Z</time></trkpt><trkpt lat="45.6809788" lon="11.3771039"><ele>157.0</ele><time>2026-03-22T08:48:51.697Z</time></trkpt><trkpt lat="45.6810591" lon="11.3770319"><ele>157.0</ele><time>2026-03-22T08:48:53.698Z</time></trkpt><trkpt lat="45.6811506" lon="11.3769639"><ele>157.4</ele><time>2026-03-22T08:48:55.697Z</time></trkpt><trkpt lat="45.6812553" lon="11.3768979"><ele>157.79999999999998</ele><time>2026-03-22T08:48:57.697Z</time></trkpt><trkpt lat="45.6813233" lon="11.3767985"><ele>158.2</ele><time>2026-03-22T08:48:59.697Z</time></trkpt><trkpt lat="45.6813652" lon="11.3767191"><ele>158.6</ele><time>2026-03-22T08:49:01.698Z</time></trkpt><trkpt lat="45.6814405" lon="11.3766432"><ele>159.0</ele><time>2026-03-22T08:49:03.697Z</time></trkpt><trkpt lat="45.6815003" lon="11.3765657"><ele>159.0</ele><time>2026-03-22T08:49:05.696Z</time></trkpt><trkpt lat="45.6814974" lon="11.3764389"><ele>159.0</ele><time>2026-03-22T08:49:07.697Z</time></trkpt><trkpt lat="45.6814738" lon="11.3763023"><ele>159.0</ele><time>2026-03-22T08:49:09.696Z</time></trkpt><trkpt lat="45.681449" lon="11.3761679"><ele>159.0</ele><time>2026-03-22T08:49:11.697Z</time></trkpt><trkpt lat="45.6814563" lon="11.376011"><ele>159.0</ele><time>2026-03-22T08:49:13.698Z</time></trkpt><trkpt lat="45.6814593" lon="11.3759182"><ele>159.0</ele><time>2026-03-22T08:49:14.698Z</time></trkpt><trkpt lat="45.6814653" lon="11.3757424"><ele>159.0</ele><time>2026-03-22T08:49:16.698Z</time></trkpt><trkpt lat="45.6814324" lon="11.3755886"><ele>159.0</ele><time>2026-03-22T08:49:18.698Z</time></trkpt><trkpt lat="45.6814001" lon="11.3754199"><ele>159.0</ele><time>2026-03-22T08:49:20.696Z</time></trkpt><trkpt lat="45.6813664" lon="11.3752601"><ele>158.75</ele><time>2026-03-22T08:49:22.697Z</time></trkpt><trkpt lat="45.6813403" lon="11.375088"><ele>158.5</ele><time>2026-03-22T08:49:24.697Z</time></trkpt><trkpt lat="45.681312" lon="11.3749414"><ele>158.25</ele><time>2026-03-22T08:49:26.698Z</time></trkpt><trkpt lat="45.6812777" lon="11.3747792"><ele>158.0</ele><time>2026-03-22T08:49:28.698Z</time></trkpt><trkpt lat="45.6812665" lon="11.3746301"><ele>157.8</ele><time>2026-03-22T08:49:30.697Z</time></trkpt><trkpt lat="45.6813235" lon="11.374514"><ele>157.60000000000002</ele><time>2026-03-22T08:49:32.698Z</time></trkpt><trkpt lat="45.6814272" lon="11.3744486"><ele>157.39999999999998</ele><time>2026-03-22T08:49:34.698Z</time></trkpt><trkpt lat="45.6815355" lon="11.3743932"><ele>157.2</ele><time>2026-03-22T08:49:36.697Z</time></trkpt><trkpt lat="45.6816323" lon="11.3743575"><ele>157.0</ele><time>2026-03-22T08:49:38.697Z</time></trkpt><trkpt lat="45.6817354" lon="11.3743229"><ele>157.0</ele><time>2026-03-22T08:49:40.697Z</time></trkpt><trkpt lat="45.6818204" lon="11.3743075"><ele>157.0</ele><time>2026-03-22T08:49:42.698Z</time></trkpt><trkpt lat="45.6819067" lon="11.3742788"><ele>157.0</ele><time>2026-03-22T08:49:44.697Z</time></trkpt><trkpt lat="45.6819884" lon="11.3742487"><ele>157.0</ele><time>2026-03-22T08:49:46.698Z</time></trkpt><trkpt lat="45.6820136" lon="11.3741564"><ele>157.0</ele><time>2026-03-22T08:49:50.697Z</time></trkpt><trkpt lat="45.6819911" lon="11.3740642"><ele>157.0</ele><time>2026-03-22T08:49:54.697Z</time></trkpt><trkpt lat="45.68198" lon="11.3739644"><ele>157.0</ele><time>2026-03-22T08:49:59.697Z</time></trkpt><trkpt lat="45.6820551" lon="11.3739352"><ele>157.0</ele><time>2026-03-22T08:50:02.698Z</time></trkpt><trkpt lat="45.6821406" lon="11.3738877"><ele>157.0</ele><time>2026-03-22T08:50:05.696Z</time></trkpt><trkpt lat="45.6822094" lon="11.373871"><ele>157.0</ele><time>2026-03-22T08:50:07.696Z</time></trkpt><trkpt lat="45.6822873" lon="11.3738315"><ele>157.0</ele><time>2026-03-22T08:50:09.698Z</time></trkpt><trkpt lat="45.682373" lon="11.3738173"><ele>157.0</ele><time>2026-03-22T08:50:11.699Z</time></trkpt><trkpt lat="45.6824549" lon="11.3738146"><ele>156.66666666666669</ele><time>2026-03-22T08:50:13.699Z</time></trkpt><trkpt lat="45.6825292" lon="11.3738185"><ele>156.33333333333334</ele><time>2026-03-22T08:50:15.699Z</time></trkpt><trkpt lat="45.6826066" lon="11.3738282"><ele>156.0</ele><time>2026-03-22T08:50:17.698Z</time></trkpt><trkpt lat="45.6826859" lon="11.3738483"><ele>155.66666666666666</ele><time>2026-03-22T08:50:19.698Z</time></trkpt><trkpt lat="45.6827622" lon="11.3738527"><ele>155.33333333333331</ele><time>2026-03-22T08:50:21.697Z</time></trkpt><trkpt lat="45.6828419" lon="11.3738602"><ele>155.0</ele><time>2026-03-22T08:50:23.698Z</time></trkpt><trkpt lat="45.6829252" lon="11.3738672"><ele>155.66666666666666</ele><time>2026-03-22T08:50:25.697Z</time></trkpt><trkpt lat="45.6830087" lon="11.3738702"><ele>156.33333333333331</ele><time>2026-03-22T08:50:27.698Z</time></trkpt><trkpt lat="45.6830899" lon="11.3738792"><ele>157.0</ele><time>2026-03-22T08:50:29.698Z</time></trkpt><trkpt lat="45.6831706" lon="11.3738776"><ele>157.66666666666666</ele><time>2026-03-22T08:50:31.699Z</time></trkpt><trkpt lat="45.6832449" lon="11.3738738"><ele>158.33333333333334</ele><time>2026-03-22T08:50:33.696Z</time></trkpt><trkpt lat="45.6833211" lon="11.3738817"><ele>159.0</ele><time>2026-03-22T08:50:35.696Z</time></trkpt><trkpt lat="45.683408" lon="11.3738872"><ele>159.0</ele><time>2026-03-22T08:50:37.698Z</time></trkpt><trkpt lat="45.6834832" lon="11.3738786"><ele>159.0</ele><time>2026-03-22T08:50:39.698Z</time></trkpt><trkpt lat="45.6835529" lon="11.3738611"><ele>159.0</ele><time>2026-03-22T08:50:41.696Z</time></trkpt><trkpt lat="45.683622" lon="11.3738315"><ele>159.0</ele><time>2026-03-22T08:50:43.699Z</time></trkpt><trkpt lat="45.6836985" lon="11.3737989"><ele>159.0</ele><time>2026-03-22T08:50:45.699Z</time></trkpt><trkpt lat="45.6837849" lon="11.3737666"><ele>159.0</ele><time>2026-03-22T08:50:47.698Z</time></trkpt><trkpt lat="45.6838634" lon="11.3737262"><ele>158.83333333333334</ele><time>2026-03-22T08:50:49.696Z</time></trkpt><trkpt lat="45.6839362" lon="11.3736793"><ele>158.66666666666666</ele><time>2026-03-22T08:50:51.699Z</time></trkpt><trkpt lat="45.6840153" lon="11.3736436"><ele>158.5</ele><time>2026-03-22T08:50:53.697Z</time></trkpt><trkpt lat="45.6840951" lon="11.37361"><ele>158.33333333333331</ele><time>2026-03-22T08:50:55.699Z</time></trkpt><trkpt lat="45.6841838" lon="11.3735617"><ele>158.16666666666666</ele><time>2026-03-22T08:50:57.696Z</time></trkpt><trkpt lat="45.6842306" lon="11.3734755"><ele>158.0</ele><time>2026-03-22T08:50:59.698Z</time></trkpt><trkpt lat="45.6842394" lon="11.3733631"><ele>158.00000000000003</ele><time>2026-03-22T08:51:01.697Z</time></trkpt><trkpt lat="45.6842398" lon="11.3732381"><ele>158.0</ele><time>2026-03-22T08:51:03.699Z</time></trkpt><trkpt lat="45.684247" lon="11.3731279"><ele>158.0</ele><time>2026-03-22T08:51:05.699Z</time></trkpt><trkpt lat="45.6842489" lon="11.3730319"><ele>158.0</ele><time>2026-03-22T08:51:07.697Z</time></trkpt><trkpt lat="45.6842378" lon="11.3729339"><ele>158.0</ele><time>2026-03-22T08:51:09.698Z</time></trkpt><trkpt lat="45.6842337" lon="11.3728367"><ele>158.00000000000003</ele><time>2026-03-22T08:51:11.699Z</time></trkpt><trkpt lat="45.6842317" lon="11.3727408"><ele>158.0</ele><time>2026-03-22T08:51:13.697Z</time></trkpt><trkpt lat="45.6842265" lon="11.3726469"><ele>158.42857142857144</ele><time>2026-03-22T08:51:15.697Z</time></trkpt><trkpt lat="45.6842217" lon="11.3725536"><ele>158.85714285714286</ele><time>2026-03-22T08:51:17.699Z</time></trkpt><trkpt lat="45.6842185" lon="11.3724553"><ele>159.28571428571428</ele><time>2026-03-22T08:51:19.697Z</time></trkpt><trkpt lat="45.6842123" lon="11.3723581"><ele>159.71428571428572</ele><time>2026-03-22T08:51:21.698Z</time></trkpt><trkpt lat="45.6842048" lon="11.3722567"><ele>160.14285714285714</ele><time>2026-03-22T08:51:23.698Z</time></trkpt><trkpt lat="45.6842044" lon="11.372152"><ele>160.57142857142858</ele><time>2026-03-22T08:51:25.699Z</time></trkpt><trkpt lat="45.6841912" lon="11.3720441"><ele>161.0</ele><time>2026-03-22T08:51:27.697Z</time></trkpt><trkpt lat="45.6841822" lon="11.3719347"><ele>161.14285714285714</ele><time>2026-03-22T08:51:29.698Z</time></trkpt><trkpt lat="45.6841905" lon="11.3718363"><ele>161.28571428571428</ele><time>2026-03-22T08:51:31.699Z</time></trkpt><trkpt lat="45.6842193" lon="11.3717388"><ele>161.42857142857144</ele><time>2026-03-22T08:51:33.698Z</time></trkpt><trkpt lat="45.6842585" lon="11.3716565"><ele>161.57142857142856</ele><time>2026-03-22T08:51:35.697Z</time></trkpt><trkpt lat="45.6843128" lon="11.3715852"><ele>161.71428571428572</ele><time>2026-03-22T08:51:37.698Z</time></trkpt><trkpt lat="45.6843798" lon="11.3715403"><ele>161.85714285714286</ele><time>2026-03-22T08:51:39.699Z</time></trkpt><trkpt lat="45.6844465" lon="11.3714866"><ele>162.0</ele><time>2026-03-22T08:51:41.699Z</time></trkpt><trkpt lat="45.6845083" lon="11.3714235"><ele>162.33333333333334</ele><time>2026-03-22T08:51:43.697Z</time></trkpt><trkpt lat="45.684575" lon="11.3713563"><ele>162.66666666666666</ele><time>2026-03-22T08:51:45.699Z</time></trkpt><trkpt lat="45.6846455" lon="11.3712827"><ele>163.0</ele><time>2026-03-22T08:51:47.699Z</time></trkpt><trkpt lat="45.6847144" lon="11.3712049"><ele>163.33333333333331</ele><time>2026-03-22T08:51:49.698Z</time></trkpt><trkpt lat="45.6847817" lon="11.3711245"><ele>163.66666666666666</ele><time>2026-03-22T08:51:51.698Z</time></trkpt><trkpt lat="45.6848347" lon="11.371031"><ele>164.0</ele><time>2026-03-22T08:51:53.698Z</time></trkpt><trkpt lat="45.6848521" lon="11.37094"><ele>164.0</ele><time>2026-03-22T08:51:55.699Z</time></trkpt><trkpt lat="45.6847969" lon="11.3708496"><ele>164.0</ele><time>2026-03-22T08:51:57.698Z</time></trkpt><trkpt lat="45.6847408" lon="11.370725"><ele>164.0</ele><time>2026-03-22T08:51:59.699Z</time></trkpt><trkpt lat="45.6846842" lon="11.3706027"><ele>164.0</ele><time>2026-03-22T08:52:01.698Z</time></trkpt><trkpt lat="45.6846128" lon="11.3704846"><ele>164.0</ele><time>2026-03-22T08:52:03.697Z</time></trkpt><trkpt lat="45.6845474" lon="11.3703735"><ele>164.0</ele><time>2026-03-22T08:52:05.699Z</time></trkpt><trkpt lat="45.6844965" lon="11.3702637"><ele>164.0</ele><time>2026-03-22T08:52:07.696Z</time></trkpt><trkpt lat="45.684449" lon="11.3701353"><ele>164.0</ele><time>2026-03-22T08:52:09.698Z</time></trkpt><trkpt lat="45.6844013" lon="11.3700232"><ele>164.0</ele><time>2026-03-22T08:52:11.699Z</time></trkpt><trkpt lat="45.6843569" lon="11.3699156"><ele>164.0</ele><time>2026-03-22T08:52:13.699Z</time></trkpt><trkpt lat="45.6843096" lon="11.3697864"><ele>164.0</ele><time>2026-03-22T08:52:15.697Z</time></trkpt><trkpt lat="45.6842657" lon="11.369672"><ele>164.0</ele><time>2026-03-22T08:52:17.697Z</time></trkpt><trkpt lat="45.6842326" lon="11.3695326"><ele>164.0</ele><time>2026-03-22T08:52:19.698Z</time></trkpt><trkpt lat="45.6841989" lon="11.3694017"><ele>164.0</ele><time>2026-03-22T08:52:21.696Z</time></trkpt><trkpt lat="45.6841747" lon="11.3692807"><ele>164.0</ele><time>2026-03-22T08:52:23.698Z</time></trkpt><trkpt lat="45.6841595" lon="11.3691665"><ele>164.0</ele><time>2026-03-22T08:52:25.697Z</time></trkpt><trkpt lat="45.6841387" lon="11.369021"><ele>164.0</ele><time>2026-03-22T08:52:27.7Z</time></trkpt><trkpt lat="45.6841298" lon="11.3689022"><ele>164.0</ele><time>2026-03-22T08:52:29.699Z</time></trkpt><trkpt lat="45.6841125" lon="11.3687537"><ele>164.0</ele><time>2026-03-22T08:52:31.699Z</time></trkpt><trkpt lat="45.6840822" lon="11.3686513"><ele>164.0</ele><time>2026-03-22T08:52:33.697Z</time></trkpt><trkpt lat="45.6840389" lon="11.3685301"><ele>164.5</ele><time>2026-03-22T08:52:35.699Z</time></trkpt><trkpt lat="45.6840128" lon="11.3684277"><ele>165.0</ele><time>2026-03-22T08:52:37.698Z</time></trkpt><trkpt lat="45.6839608" lon="11.3683079"><ele>165.5</ele><time>2026-03-22T08:52:39.697Z</time></trkpt><trkpt lat="45.6839052" lon="11.3681894"><ele>166.0</ele><time>2026-03-22T08:52:41.698Z</time></trkpt><trkpt lat="45.6838673" lon="11.3680881"><ele>166.5</ele><time>2026-03-22T08:52:43.699Z</time></trkpt><trkpt lat="45.6838406" lon="11.3679625"><ele>167.0</ele><time>2026-03-22T08:52:45.698Z</time></trkpt><trkpt lat="45.6838455" lon="11.3678301"><ele>167.5</ele><time>2026-03-22T08:52:48.698Z</time></trkpt><trkpt lat="45.6838241" lon="11.3677105"><ele>168.0</ele><time>2026-03-22T08:52:50.697Z</time></trkpt><trkpt lat="45.6838351" lon="11.3675755"><ele>168.5</ele><time>2026-03-22T08:52:52.699Z</time></trkpt><trkpt lat="45.6838344" lon="11.367451"><ele>169.0</ele><time>2026-03-22T08:52:54.697Z</time></trkpt><trkpt lat="45.6838263" lon="11.3673254"><ele>169.5</ele><time>2026-03-22T08:52:56.696Z</time></trkpt><trkpt lat="45.6838132" lon="11.3672069"><ele>170.0</ele><time>2026-03-22T08:52:58.698Z</time></trkpt><trkpt lat="45.6837825" lon="11.3670983"><ele>170.33333333333331</ele><time>2026-03-22T08:53:00.699Z</time></trkpt><trkpt lat="45.6837551" lon="11.3669934"><ele>170.66666666666666</ele><time>2026-03-22T08:53:02.699Z</time></trkpt><trkpt lat="45.683728" lon="11.3668868"><ele>171.0</ele><time>2026-03-22T08:53:04.699Z</time></trkpt><trkpt lat="45.6837049" lon="11.3667907"><ele>171.33333333333334</ele><time>2026-03-22T08:53:06.698Z</time></trkpt><trkpt lat="45.6837005" lon="11.3666947"><ele>171.66666666666669</ele><time>2026-03-22T08:53:08.697Z</time></trkpt><trkpt lat="45.6837387" lon="11.3666028"><ele>172.0</ele><time>2026-03-22T08:53:10.697Z</time></trkpt><trkpt lat="45.6837981" lon="11.3665234"><ele>172.00000000000003</ele><time>2026-03-22T08:53:12.697Z</time></trkpt><trkpt lat="45.6838674" lon="11.3664727"><ele>172.0</ele><time>2026-03-22T08:53:14.697Z</time></trkpt><trkpt lat="45.683933" lon="11.3664236"><ele>172.0</ele><time>2026-03-22T08:53:16.698Z</time></trkpt><trkpt lat="45.6839888" lon="11.3663656"><ele>172.0</ele><time>2026-03-22T08:53:18.697Z</time></trkpt><trkpt lat="45.6840406" lon="11.3662996"><ele>172.0</ele><time>2026-03-22T08:53:20.698Z</time></trkpt><trkpt lat="45.6840978" lon="11.3662348"><ele>172.00000000000003</ele><time>2026-03-22T08:53:22.698Z</time></trkpt><trkpt lat="45.6841586" lon="11.3661675"><ele>172.0</ele><time>2026-03-22T08:53:24.697Z</time></trkpt><trkpt lat="45.6842172" lon="11.3660926"><ele>172.2857142857143</ele><time>2026-03-22T08:53:26.698Z</time></trkpt><trkpt lat="45.6842767" lon="11.3660215"><ele>172.57142857142858</ele><time>2026-03-22T08:53:28.698Z</time></trkpt><trkpt lat="45.6843255" lon="11.3659388"><ele>172.85714285714286</ele><time>2026-03-22T08:53:30.698Z</time></trkpt><trkpt lat="45.6843754" lon="11.3658555"><ele>173.14285714285717</ele><time>2026-03-22T08:53:32.696Z</time></trkpt><trkpt lat="45.6843977" lon="11.3657585"><ele>173.42857142857144</ele><time>2026-03-22T08:53:34.698Z</time></trkpt><trkpt lat="45.6843783" lon="11.3656616"><ele>173.71428571428572</ele><time>2026-03-22T08:53:36.697Z</time></trkpt><trkpt lat="45.684331" lon="11.3655804"><ele>174.0</ele><time>2026-03-22T08:53:38.698Z</time></trkpt><trkpt lat="45.684274" lon="11.3655077"><ele>174.5</ele><time>2026-03-22T08:53:40.698Z</time></trkpt><trkpt lat="45.6842138" lon="11.3654328"><ele>175.0</ele><time>2026-03-22T08:53:42.697Z</time></trkpt><trkpt lat="45.6841556" lon="11.3653609"><ele>175.5</ele><time>2026-03-22T08:53:44.697Z</time></trkpt><trkpt lat="45.6840968" lon="11.3652825"><ele>176.0</ele><time>2026-03-22T08:53:46.698Z</time></trkpt><trkpt lat="45.6840494" lon="11.3651892"><ele>176.5</ele><time>2026-03-22T08:53:48.698Z</time></trkpt><trkpt lat="45.6840166" lon="11.365089"><ele>177.0</ele><time>2026-03-22T08:53:50.7Z</time></trkpt><trkpt lat="45.6839979" lon="11.3649811"><ele>177.0</ele><time>2026-03-22T08:53:52.696Z</time></trkpt><trkpt lat="45.684004" lon="11.3648785"><ele>177.0</ele><time>2026-03-22T08:53:54.698Z</time></trkpt><trkpt lat="45.6840145" lon="11.3647746"><ele>177.0</ele><time>2026-03-22T08:53:56.699Z</time></trkpt><trkpt lat="45.6840224" lon="11.3646729"><ele>177.0</ele><time>2026-03-22T08:53:58.697Z</time></trkpt><trkpt lat="45.6840093" lon="11.3645358"><ele>177.0</ele><time>2026-03-22T08:54:00.696Z</time></trkpt><trkpt lat="45.6840278" lon="11.3644427"><ele>177.0</ele><time>2026-03-22T08:54:03.697Z</time></trkpt><trkpt lat="45.6840345" lon="11.3643248"><ele>177.5</ele><time>2026-03-22T08:54:05.698Z</time></trkpt><trkpt lat="45.684052" lon="11.3642244"><ele>178.0</ele><time>2026-03-22T08:54:08.698Z</time></trkpt><trkpt lat="45.6840881" lon="11.3640723"><ele>178.5</ele><time>2026-03-22T08:54:11.697Z</time></trkpt><trkpt lat="45.6841143" lon="11.3639636"><ele>179.0</ele><time>2026-03-22T08:54:13.698Z</time></trkpt><trkpt lat="45.6841327" lon="11.3638647"><ele>179.5</ele><time>2026-03-22T08:54:15.698Z</time></trkpt><trkpt lat="45.6841443" lon="11.3637721"><ele>180.0</ele><time>2026-03-22T08:54:17.698Z</time></trkpt><trkpt lat="45.6841562" lon="11.3636727"><ele>180.83333333333334</ele><time>2026-03-22T08:54:19.697Z</time></trkpt><trkpt lat="45.6841762" lon="11.3635707"><ele>181.66666666666666</ele><time>2026-03-22T08:54:21.698Z</time></trkpt><trkpt lat="45.6841868" lon="11.3634768"><ele>182.5</ele><time>2026-03-22T08:54:23.698Z</time></trkpt><trkpt lat="45.6841678" lon="11.3633514"><ele>183.33333333333331</ele><time>2026-03-22T08:54:26.698Z</time></trkpt><trkpt lat="45.68412" lon="11.3632453"><ele>184.16666666666666</ele><time>2026-03-22T08:54:29.698Z</time></trkpt><trkpt lat="45.6840779" lon="11.3631714"><ele>185.0</ele><time>2026-03-22T08:54:31.698Z</time></trkpt><trkpt lat="45.684032" lon="11.3630893"><ele>185.7142857142857</ele><time>2026-03-22T08:54:33.697Z</time></trkpt><trkpt lat="45.6839834" lon="11.3630154"><ele>186.42857142857142</ele><time>2026-03-22T08:54:35.696Z</time></trkpt><trkpt lat="45.6839339" lon="11.3629448"><ele>187.14285714285714</ele><time>2026-03-22T08:54:37.698Z</time></trkpt><trkpt lat="45.6838874" lon="11.3628731"><ele>187.85714285714283</ele><time>2026-03-22T08:54:39.698Z</time></trkpt><trkpt lat="45.6838392" lon="11.3627989"><ele>188.57142857142858</ele><time>2026-03-22T08:54:41.698Z</time></trkpt><trkpt lat="45.6837942" lon="11.362721"><ele>189.28571428571428</ele><time>2026-03-22T08:54:43.697Z</time></trkpt><trkpt lat="45.6837427" lon="11.3626299"><ele>190.0</ele><time>2026-03-22T08:54:46.697Z</time></trkpt><trkpt lat="45.6836876" lon="11.3625725"><ele>189.8</ele><time>2026-03-22T08:54:49.698Z</time></trkpt><trkpt lat="45.6835891" lon="11.3624893"><ele>189.6</ele><time>2026-03-22T08:54:54.698Z</time></trkpt><trkpt lat="45.6835016" lon="11.3624711"><ele>189.39999999999998</ele><time>2026-03-22T08:54:57.697Z</time></trkpt><trkpt lat="45.6834198" lon="11.3624439"><ele>189.2</ele><time>2026-03-22T08:55:00.697Z</time></trkpt><trkpt lat="45.6833424" lon="11.3623853"><ele>189.0</ele><time>2026-03-22T08:55:03.697Z</time></trkpt><trkpt lat="45.683263" lon="11.3623455"><ele>189.0</ele><time>2026-03-22T08:55:06.698Z</time></trkpt><trkpt lat="45.6831907" lon="11.362304"><ele>189.0</ele><time>2026-03-22T08:55:09.697Z</time></trkpt><trkpt lat="45.6831362" lon="11.3622368"><ele>189.0</ele><time>2026-03-22T08:55:12.698Z</time></trkpt><trkpt lat="45.6830905" lon="11.3621625"><ele>189.0</ele><time>2026-03-22T08:55:15.696Z</time></trkpt><trkpt lat="45.6830491" lon="11.362078"><ele>189.0</ele><time>2026-03-22T08:55:18.698Z</time></trkpt><trkpt lat="45.6829961" lon="11.3619837"><ele>189.0</ele><time>2026-03-22T08:55:21.698Z</time></trkpt><trkpt lat="45.6829536" lon="11.3618794"><ele>190.0</ele><time>2026-03-22T08:55:24.698Z</time></trkpt><trkpt lat="45.682909" lon="11.3617578"><ele>191.0</ele><time>2026-03-22T08:55:27.698Z</time></trkpt><trkpt lat="45.6828841" lon="11.3616702"><ele>192.0</ele><time>2026-03-22T08:55:29.697Z</time></trkpt><trkpt lat="45.6828528" lon="11.3615475"><ele>193.0</ele><time>2026-03-22T08:55:32.698Z</time></trkpt><trkpt lat="45.682818" lon="11.361422"><ele>194.0</ele><time>2026-03-22T08:55:35.698Z</time></trkpt><trkpt lat="45.6827789" lon="11.3613004"><ele>195.0</ele><time>2026-03-22T08:55:38.698Z</time></trkpt><trkpt lat="45.6827361" lon="11.3612236"><ele>195.28571428571428</ele><time>2026-03-22T08:55:40.696Z</time></trkpt><trkpt lat="45.6826842" lon="11.3611664"><ele>195.57142857142856</ele><time>2026-03-22T08:55:42.696Z</time></trkpt><trkpt lat="45.6826265" lon="11.361113"><ele>195.85714285714286</ele><time>2026-03-22T08:55:44.697Z</time></trkpt><trkpt lat="45.6825662" lon="11.3610619"><ele>196.14285714285714</ele><time>2026-03-22T08:55:46.697Z</time></trkpt><trkpt lat="45.6825082" lon="11.3610169"><ele>196.42857142857144</ele><time>2026-03-22T08:55:48.698Z</time></trkpt><trkpt lat="45.682446" lon="11.3609806"><ele>196.71428571428572</ele><time>2026-03-22T08:55:50.698Z</time></trkpt><trkpt lat="45.682383" lon="11.3609584"><ele>197.0</ele><time>2026-03-22T08:55:52.697Z</time></trkpt><trkpt lat="45.6823026" lon="11.3609076"><ele>197.00000000000003</ele><time>2026-03-22T08:55:55.698Z</time></trkpt><trkpt lat="45.6822401" lon="11.3608673"><ele>197.0</ele><time>2026-03-22T08:55:58.697Z</time></trkpt><trkpt lat="45.6821755" lon="11.3607664"><ele>197.0</ele><time>2026-03-22T08:56:01.698Z</time></trkpt><trkpt lat="45.6821275" lon="11.3606573"><ele>197.0</ele><time>2026-03-22T08:56:04.697Z</time></trkpt><trkpt lat="45.6820992" lon="11.3605415"><ele>197.00000000000003</ele><time>2026-03-22T08:56:07.699Z</time></trkpt><trkpt lat="45.6820748" lon="11.3604516"><ele>197.0</ele><time>2026-03-22T08:56:09.698Z</time></trkpt><trkpt lat="45.6820533" lon="11.3603663"><ele>197.42857142857144</ele><time>2026-03-22T08:56:11.698Z</time></trkpt><trkpt lat="45.6820287" lon="11.3602784"><ele>197.85714285714286</ele><time>2026-03-22T08:56:13.698Z</time></trkpt><trkpt lat="45.6820041" lon="11.3601944"><ele>198.28571428571428</ele><time>2026-03-22T08:56:15.697Z</time></trkpt><trkpt lat="45.6819821" lon="11.3601069"><ele>198.71428571428572</ele><time>2026-03-22T08:56:17.696Z</time></trkpt><trkpt lat="45.68196" lon="11.3600195"><ele>199.14285714285714</ele><time>2026-03-22T08:56:19.698Z</time></trkpt><trkpt lat="45.6819379" lon="11.3599351"><ele>199.57142857142858</ele><time>2026-03-22T08:56:21.696Z</time></trkpt><trkpt lat="45.6819074" lon="11.3598117"><ele>200.0</ele><time>2026-03-22T08:56:24.698Z</time></trkpt><trkpt lat="45.6818839" lon="11.3597276"><ele>200.14285714285717</ele><time>2026-03-22T08:56:26.698Z</time></trkpt><trkpt lat="45.6818555" lon="11.3596437"><ele>200.28571428571428</ele><time>2026-03-22T08:56:28.697Z</time></trkpt><trkpt lat="45.681825" lon="11.3595585"><ele>200.42857142857144</ele><time>2026-03-22T08:56:30.698Z</time></trkpt><trkpt lat="45.6817948" lon="11.3594698"><ele>200.57142857142858</ele><time>2026-03-22T08:56:32.698Z</time></trkpt><trkpt lat="45.6817618" lon="11.3593843"><ele>200.71428571428572</ele><time>2026-03-22T08:56:34.698Z</time></trkpt><trkpt lat="45.6817285" lon="11.3592993"><ele>200.85714285714286</ele><time>2026-03-22T08:56:36.697Z</time></trkpt><trkpt lat="45.6817023" lon="11.3592133"><ele>201.0</ele><time>2026-03-22T08:56:38.697Z</time></trkpt><trkpt lat="45.6816746" lon="11.3591235"><ele>201.0</ele><time>2026-03-22T08:56:40.698Z</time></trkpt><trkpt lat="45.6816415" lon="11.3590312"><ele>201.0</ele><time>2026-03-22T08:56:42.696Z</time></trkpt><trkpt lat="45.6816101" lon="11.3589417"><ele>201.0</ele><time>2026-03-22T08:56:44.697Z</time></trkpt><trkpt lat="45.6815861" lon="11.3588546"><ele>201.0</ele><time>2026-03-22T08:56:46.697Z</time></trkpt><trkpt lat="45.6815662" lon="11.358765"><ele>201.0</ele><time>2026-03-22T08:56:48.698Z</time></trkpt><trkpt lat="45.6815259" lon="11.3586397"><ele>201.0</ele><time>2026-03-22T08:56:51.698Z</time></trkpt><trkpt lat="45.6814803" lon="11.358519"><ele>201.83333333333334</ele><time>2026-03-22T08:56:54.699Z</time></trkpt><trkpt lat="45.6814281" lon="11.3584064"><ele>202.66666666666669</ele><time>2026-03-22T08:56:57.698Z</time></trkpt><trkpt lat="45.6813957" lon="11.3583274"><ele>203.5</ele><time>2026-03-22T08:56:59.696Z</time></trkpt><trkpt lat="45.6813475" lon="11.3582203"><ele>204.33333333333334</ele><time>2026-03-22T08:57:02.697Z</time></trkpt><trkpt lat="45.6813022" lon="11.3581011"><ele>205.16666666666669</ele><time>2026-03-22T08:57:05.696Z</time></trkpt><trkpt lat="45.6812784" lon="11.3580142"><ele>206.0</ele><time>2026-03-22T08:57:07.696Z</time></trkpt><trkpt lat="45.6812553" lon="11.3579268"><ele>206.14285714285714</ele><time>2026-03-22T08:57:09.698Z</time></trkpt><trkpt lat="45.6812308" lon="11.3578416"><ele>206.28571428571428</ele><time>2026-03-22T08:57:11.697Z</time></trkpt><trkpt lat="45.6811971" lon="11.3577186"><ele>206.42857142857144</ele><time>2026-03-22T08:57:14.697Z</time></trkpt><trkpt lat="45.6811704" lon="11.3576317"><ele>206.57142857142856</ele><time>2026-03-22T08:57:16.698Z</time></trkpt><trkpt lat="45.6811427" lon="11.357543"><ele>206.71428571428572</ele><time>2026-03-22T08:57:18.697Z</time></trkpt><trkpt lat="45.6811167" lon="11.3574582"><ele>206.85714285714286</ele><time>2026-03-22T08:57:20.698Z</time></trkpt><trkpt lat="45.6810857" lon="11.3573325"><ele>207.0</ele><time>2026-03-22T08:57:23.698Z</time></trkpt><trkpt lat="45.6810608" lon="11.3572488"><ele>208.0</ele><time>2026-03-22T08:57:25.698Z</time></trkpt><trkpt lat="45.6810277" lon="11.3571699"><ele>209.0</ele><time>2026-03-22T08:57:27.698Z</time></trkpt><trkpt lat="45.68099" lon="11.357092"><ele>210.0</ele><time>2026-03-22T08:57:29.698Z</time></trkpt><trkpt lat="45.680953" lon="11.357018"><ele>211.0</ele><time>2026-03-22T08:57:31.696Z</time></trkpt><trkpt lat="45.6809047" lon="11.356913"><ele>212.0</ele><time>2026-03-22T08:57:34.698Z</time></trkpt><trkpt lat="45.6808509" lon="11.356811"><ele>213.0</ele><time>2026-03-22T08:57:37.697Z</time></trkpt><trkpt lat="45.680788" lon="11.3567152"><ele>213.0</ele><time>2026-03-22T08:57:40.697Z</time></trkpt><trkpt lat="45.6807436" lon="11.3566452"><ele>213.0</ele><time>2026-03-22T08:57:42.697Z</time></trkpt><trkpt lat="45.6806835" lon="11.3565579"><ele>213.0</ele><time>2026-03-22T08:57:45.696Z</time></trkpt><trkpt lat="45.6806309" lon="11.3564775"><ele>213.0</ele><time>2026-03-22T08:57:48.698Z</time></trkpt><trkpt lat="45.6805889" lon="11.3564021"><ele>213.0</ele><time>2026-03-22T08:57:50.696Z</time></trkpt><trkpt lat="45.6805362" lon="11.3563373"><ele>213.0</ele><time>2026-03-22T08:57:52.697Z</time></trkpt><trkpt lat="45.6804681" lon="11.3562569"><ele>213.66666666666666</ele><time>2026-03-22T08:57:55.697Z</time></trkpt><trkpt lat="45.6804135" lon="11.3561471"><ele>214.33333333333331</ele><time>2026-03-22T08:57:58.697Z</time></trkpt><trkpt lat="45.6803855" lon="11.3560511"><ele>215.0</ele><time>2026-03-22T08:58:00.697Z</time></trkpt><trkpt lat="45.6803629" lon="11.3559594"><ele>215.66666666666666</ele><time>2026-03-22T08:58:02.698Z</time></trkpt><trkpt lat="45.6803253" lon="11.3558544"><ele>216.33333333333331</ele><time>2026-03-22T08:58:04.698Z</time></trkpt><trkpt lat="45.6802795" lon="11.3557436"><ele>217.0</ele><time>2026-03-22T08:58:07.698Z</time></trkpt><trkpt lat="45.6802306" lon="11.3556291"><ele>217.0</ele><time>2026-03-22T08:58:10.696Z</time></trkpt><trkpt lat="45.6801901" lon="11.3555438"><ele>217.0</ele><time>2026-03-22T08:58:12.697Z</time></trkpt><trkpt lat="45.6801566" lon="11.3554534"><ele>217.0</ele><time>2026-03-22T08:58:14.698Z</time></trkpt><trkpt lat="45.6801278" lon="11.3553612"><ele>217.0</ele><time>2026-03-22T08:58:16.698Z</time></trkpt><trkpt lat="45.6800992" lon="11.3552698"><ele>217.0</ele><time>2026-03-22T08:58:18.698Z</time></trkpt><trkpt lat="45.6800755" lon="11.3551815"><ele>217.0</ele><time>2026-03-22T08:58:20.697Z</time></trkpt><trkpt lat="45.6800621" lon="11.3550886"><ele>217.0</ele><time>2026-03-22T08:58:22.698Z</time></trkpt><trkpt lat="45.6800498" lon="11.3549932"><ele>217.14285714285714</ele><time>2026-03-22T08:58:24.698Z</time></trkpt><trkpt lat="45.6800371" lon="11.3548977"><ele>217.28571428571428</ele><time>2026-03-22T08:58:26.697Z</time></trkpt><trkpt lat="45.6800239" lon="11.354801"><ele>217.42857142857144</ele><time>2026-03-22T08:58:28.698Z</time></trkpt><trkpt lat="45.6800113" lon="11.3547006"><ele>217.57142857142856</ele><time>2026-03-22T08:58:30.698Z</time></trkpt><trkpt lat="45.6800054" lon="11.3545745"><ele>217.71428571428572</ele><time>2026-03-22T08:58:33.698Z</time></trkpt><trkpt lat="45.6800045" lon="11.3544815"><ele>217.85714285714286</ele><time>2026-03-22T08:58:35.697Z</time></trkpt><trkpt lat="45.6800234" lon="11.3543955"><ele>218.0</ele><time>2026-03-22T08:58:37.697Z</time></trkpt><trkpt lat="45.6800618" lon="11.3543216"><ele>218.42857142857144</ele><time>2026-03-22T08:58:39.697Z</time></trkpt><trkpt lat="45.6800924" lon="11.3542355"><ele>218.85714285714286</ele><time>2026-03-22T08:58:41.697Z</time></trkpt><trkpt lat="45.6800839" lon="11.3541346"><ele>219.28571428571428</ele><time>2026-03-22T08:58:43.698Z</time></trkpt><trkpt lat="45.6800517" lon="11.3540348"><ele>219.71428571428572</ele><time>2026-03-22T08:58:45.698Z</time></trkpt><trkpt lat="45.6800217" lon="11.3539366"><ele>220.14285714285714</ele><time>2026-03-22T08:58:47.697Z</time></trkpt><trkpt lat="45.6799958" lon="11.3538539"><ele>220.57142857142858</ele><time>2026-03-22T08:58:49.697Z</time></trkpt><trkpt lat="45.6799689" lon="11.3537722"><ele>221.0</ele><time>2026-03-22T08:58:51.697Z</time></trkpt><trkpt lat="45.6799349" lon="11.353648"><ele>221.2857142857143</ele><time>2026-03-22T08:58:54.698Z</time></trkpt><trkpt lat="45.6799235" lon="11.353557"><ele>221.57142857142858</ele><time>2026-03-22T08:58:56.697Z</time></trkpt><trkpt lat="45.6799106" lon="11.3534624"><ele>221.85714285714286</ele><time>2026-03-22T08:58:58.697Z</time></trkpt><trkpt lat="45.6798959" lon="11.353369"><ele>222.14285714285717</ele><time>2026-03-22T08:59:00.697Z</time></trkpt><trkpt lat="45.6798743" lon="11.3532764"><ele>222.42857142857142</ele><time>2026-03-22T08:59:02.698Z</time></trkpt><trkpt lat="45.6798484" lon="11.3531841"><ele>222.71428571428572</ele><time>2026-03-22T08:59:04.697Z</time></trkpt><trkpt lat="45.6798256" lon="11.353091"><ele>223.0</ele><time>2026-03-22T08:59:06.698Z</time></trkpt><trkpt lat="45.6797995" lon="11.353001"><ele>223.57142857142856</ele><time>2026-03-22T08:59:08.697Z</time></trkpt><trkpt lat="45.6797731" lon="11.3529137"><ele>224.14285714285714</ele><time>2026-03-22T08:59:10.698Z</time></trkpt><trkpt lat="45.6797506" lon="11.3528239"><ele>224.71428571428572</ele><time>2026-03-22T08:59:12.696Z</time></trkpt><trkpt lat="45.6797237" lon="11.352735"><ele>225.28571428571428</ele><time>2026-03-22T08:59:14.697Z</time></trkpt><trkpt lat="45.6797009" lon="11.352642"><ele>225.8571428571429</ele><time>2026-03-22T08:59:16.698Z</time></trkpt><trkpt lat="45.6796773" lon="11.352554"><ele>226.42857142857144</ele><time>2026-03-22T08:59:18.698Z</time></trkpt><trkpt lat="45.6796483" lon="11.3524719"><ele>227.0</ele><time>2026-03-22T08:59:20.698Z</time></trkpt><trkpt lat="45.6796241" lon="11.3523414"><ele>227.0</ele><time>2026-03-22T08:59:23.697Z</time></trkpt><trkpt lat="45.6796018" lon="11.352254"><ele>227.00000000000003</ele><time>2026-03-22T08:59:25.698Z</time></trkpt><trkpt lat="45.6795762" lon="11.3521642"><ele>227.0</ele><time>2026-03-22T08:59:27.697Z</time></trkpt><trkpt lat="45.6795506" lon="11.3520783"><ele>227.0</ele><time>2026-03-22T08:59:29.698Z</time></trkpt><trkpt lat="45.6795237" lon="11.3519851"><ele>227.00000000000003</ele><time>2026-03-22T08:59:31.697Z</time></trkpt><trkpt lat="45.679499" lon="11.3518932"><ele>227.0</ele><time>2026-03-22T08:59:33.697Z</time></trkpt><trkpt lat="45.6794718" lon="11.3517984"><ele>227.0</ele><time>2026-03-22T08:59:35.697Z</time></trkpt><trkpt lat="45.6794455" lon="11.3517146"><ele>227.85714285714286</ele><time>2026-03-22T08:59:37.698Z</time></trkpt><trkpt lat="45.6794162" lon="11.3516239"><ele>228.71428571428572</ele><time>2026-03-22T08:59:39.696Z</time></trkpt><trkpt lat="45.679382" lon="11.351532"><ele>229.57142857142858</ele><time>2026-03-22T08:59:41.697Z</time></trkpt><trkpt lat="45.6793477" lon="11.3514449"><ele>230.42857142857144</ele><time>2026-03-22T08:59:43.696Z</time></trkpt><trkpt lat="45.6793096" lon="11.3513556"><ele>231.28571428571428</ele><time>2026-03-22T08:59:45.697Z</time></trkpt><trkpt lat="45.679263" lon="11.3512768"><ele>232.14285714285717</ele><time>2026-03-22T08:59:47.696Z</time></trkpt><trkpt lat="45.6792183" lon="11.3511991"><ele>233.0</ele><time>2026-03-22T08:59:49.697Z</time></trkpt><trkpt lat="45.6791749" lon="11.3511237"><ele>233.50000000000003</ele><time>2026-03-22T08:59:51.698Z</time></trkpt><trkpt lat="45.6791344" lon="11.3510487"><ele>234.0</ele><time>2026-03-22T08:59:53.699Z</time></trkpt><trkpt lat="45.6790821" lon="11.3509441"><ele>234.5</ele><time>2026-03-22T08:59:56.698Z</time></trkpt><trkpt lat="45.6790363" lon="11.3508642"><ele>235.0</ele><time>2026-03-22T08:59:59.695Z</time></trkpt><trkpt lat="45.6789949" lon="11.3507919"><ele>235.50000000000003</ele><time>2026-03-22T09:00:02.698Z</time></trkpt><trkpt lat="45.6789293" lon="11.3507298"><ele>236.0</ele><time>2026-03-22T09:00:05.696Z</time></trkpt><trkpt lat="45.678868" lon="11.3506525"><ele>236.00000000000003</ele><time>2026-03-22T09:00:08.697Z</time></trkpt><trkpt lat="45.678807" lon="11.3505806"><ele>236.0</ele><time>2026-03-22T09:00:11.696Z</time></trkpt><trkpt lat="45.6787461" lon="11.3505021"><ele>236.0</ele><time>2026-03-22T09:00:14.697Z</time></trkpt><trkpt lat="45.6787082" lon="11.3504225"><ele>236.0</ele><time>2026-03-22T09:00:17.697Z</time></trkpt><trkpt lat="45.6786728" lon="11.3503297"><ele>236.00000000000003</ele><time>2026-03-22T09:00:20.697Z</time></trkpt><trkpt lat="45.6786441" lon="11.3502293"><ele>236.0</ele><time>2026-03-22T09:00:23.697Z</time></trkpt><trkpt lat="45.6786249" lon="11.3501235"><ele>237.71428571428572</ele><time>2026-03-22T09:00:26.696Z</time></trkpt><trkpt lat="45.6786138" lon="11.3500241"><ele>239.42857142857144</ele><time>2026-03-22T09:00:29.698Z</time></trkpt><trkpt lat="45.6785914" lon="11.3499265"><ele>241.14285714285717</ele><time>2026-03-22T09:00:32.697Z</time></trkpt><trkpt lat="45.6785776" lon="11.3498177"><ele>242.85714285714286</ele><time>2026-03-22T09:00:35.698Z</time></trkpt><trkpt lat="45.6785866" lon="11.3497285"><ele>244.5714285714286</ele><time>2026-03-22T09:00:38.697Z</time></trkpt><trkpt lat="45.6786039" lon="11.3496315"><ele>246.2857142857143</ele><time>2026-03-22T09:00:41.698Z</time></trkpt><trkpt lat="45.6786261" lon="11.3495267"><ele>248.0</ele><time>2026-03-22T09:00:44.698Z</time></trkpt><trkpt lat="45.6786374" lon="11.3496448"><ele>248.0</ele><time>2026-03-22T09:01:09.698Z</time></trkpt><trkpt lat="45.6786436" lon="11.3497638"><ele>248.0</ele><time>2026-03-22T09:01:12.696Z</time></trkpt><trkpt lat="45.6786938" lon="11.3499509"><ele>248.0</ele><time>2026-03-22T09:01:15.697Z</time></trkpt><trkpt lat="45.6787192" lon="11.3501277"><ele>248.0</ele><time>2026-03-22T09:01:17.698Z</time></trkpt><trkpt lat="45.678767" lon="11.3503046"><ele>248.00000000000003</ele><time>2026-03-22T09:01:19.697Z</time></trkpt><trkpt lat="45.6788197" lon="11.3504831"><ele>248.0</ele><time>2026-03-22T09:01:21.697Z</time></trkpt><trkpt lat="45.6788679" lon="11.3505497"><ele>248.0</ele><time>2026-03-22T09:01:22.697Z</time></trkpt><trkpt lat="45.6789162" lon="11.3506388"><ele>248.0</ele><time>2026-03-22T09:01:23.697Z</time></trkpt><trkpt lat="45.6789584" lon="11.3507372"><ele>248.00000000000003</ele><time>2026-03-22T09:01:24.698Z</time></trkpt><trkpt lat="45.6790179" lon="11.3508281"><ele>248.0</ele><time>2026-03-22T09:01:25.698Z</time></trkpt><trkpt lat="45.6790672" lon="11.3509149"><ele>246.00000000000003</ele><time>2026-03-22T09:01:26.697Z</time></trkpt><trkpt lat="45.6791248" lon="11.3509908"><ele>244.0</ele><time>2026-03-22T09:01:27.698Z</time></trkpt><trkpt lat="45.6791852" lon="11.3510957"><ele>242.0</ele><time>2026-03-22T09:01:28.697Z</time></trkpt><trkpt lat="45.6792335" lon="11.3511996"><ele>240.0</ele><time>2026-03-22T09:01:29.698Z</time></trkpt><trkpt lat="45.679276" lon="11.3513098"><ele>238.00000000000003</ele><time>2026-03-22T09:01:30.697Z</time></trkpt><trkpt lat="45.6793184" lon="11.351414"><ele>236.0</ele><time>2026-03-22T09:01:31.697Z</time></trkpt><trkpt lat="45.6793594" lon="11.3515161"><ele>235.50000000000003</ele><time>2026-03-22T09:01:32.697Z</time></trkpt><trkpt lat="45.6794041" lon="11.3516228"><ele>235.0</ele><time>2026-03-22T09:01:33.698Z</time></trkpt><trkpt lat="45.6794447" lon="11.3517299"><ele>234.5</ele><time>2026-03-22T09:01:34.697Z</time></trkpt><trkpt lat="45.6794763" lon="11.3518361"><ele>234.0</ele><time>2026-03-22T09:01:35.698Z</time></trkpt><trkpt lat="45.679512" lon="11.3519353"><ele>233.50000000000003</ele><time>2026-03-22T09:01:36.698Z</time></trkpt><trkpt lat="45.6795492" lon="11.3520355"><ele>233.0</ele><time>2026-03-22T09:01:37.697Z</time></trkpt><trkpt lat="45.6795858" lon="11.352136"><ele>232.00000000000003</ele><time>2026-03-22T09:01:38.697Z</time></trkpt><trkpt lat="45.6796214" lon="11.3522333"><ele>231.0</ele><time>2026-03-22T09:01:39.696Z</time></trkpt><trkpt lat="45.6796503" lon="11.352326"><ele>230.0</ele><time>2026-03-22T09:01:40.698Z</time></trkpt><trkpt lat="45.6796936" lon="11.3524332"><ele>229.0</ele><time>2026-03-22T09:01:41.698Z</time></trkpt><trkpt lat="45.6797069" lon="11.3525326"><ele>228.00000000000003</ele><time>2026-03-22T09:01:42.697Z</time></trkpt><trkpt lat="45.6797424" lon="11.3526514"><ele>227.0</ele><time>2026-03-22T09:01:43.697Z</time></trkpt><trkpt lat="45.6797578" lon="11.3527436"><ele>227.0</ele><time>2026-03-22T09:01:44.698Z</time></trkpt><trkpt lat="45.6797937" lon="11.3529269"><ele>227.0</ele><time>2026-03-22T09:01:46.697Z</time></trkpt><trkpt lat="45.6798176" lon="11.3530637"><ele>227.0</ele><time>2026-03-22T09:01:48.697Z</time></trkpt><trkpt lat="45.6798485" lon="11.3532128"><ele>227.0</ele><time>2026-03-22T09:01:50.698Z</time></trkpt><trkpt lat="45.6798902" lon="11.35333"><ele>227.0</ele><time>2026-03-22T09:01:52.696Z</time></trkpt><trkpt lat="45.6799268" lon="11.3534743"><ele>226.33333333333334</ele><time>2026-03-22T09:01:54.698Z</time></trkpt><trkpt lat="45.6799403" lon="11.3536359"><ele>225.66666666666669</ele><time>2026-03-22T09:01:56.698Z</time></trkpt><trkpt lat="45.6799702" lon="11.3537767"><ele>225.0</ele><time>2026-03-22T09:01:58.698Z</time></trkpt><trkpt lat="45.6800025" lon="11.3538757"><ele>224.33333333333331</ele><time>2026-03-22T09:01:59.698Z</time></trkpt><trkpt lat="45.6800287" lon="11.3539795"><ele>223.66666666666666</ele><time>2026-03-22T09:02:00.697Z</time></trkpt><trkpt lat="45.6800544" lon="11.3540845"><ele>223.0</ele><time>2026-03-22T09:02:01.698Z</time></trkpt><trkpt lat="45.6800594" lon="11.3541818"><ele>222.71428571428572</ele><time>2026-03-22T09:02:02.697Z</time></trkpt><trkpt lat="45.6800303" lon="11.3542622"><ele>222.42857142857142</ele><time>2026-03-22T09:02:03.698Z</time></trkpt><trkpt lat="45.6799914" lon="11.3543477"><ele>222.14285714285717</ele><time>2026-03-22T09:02:04.697Z</time></trkpt><trkpt lat="45.6799633" lon="11.3544317"><ele>221.85714285714286</ele><time>2026-03-22T09:02:05.697Z</time></trkpt><trkpt lat="45.6799718" lon="11.3545331"><ele>221.57142857142858</ele><time>2026-03-22T09:02:06.698Z</time></trkpt><trkpt lat="45.6799728" lon="11.3546389"><ele>221.2857142857143</ele><time>2026-03-22T09:02:07.696Z</time></trkpt><trkpt lat="45.6799858" lon="11.3547382"><ele>221.0</ele><time>2026-03-22T09:02:08.697Z</time></trkpt><trkpt lat="45.6800028" lon="11.3548395"><ele>220.50000000000003</ele><time>2026-03-22T09:02:09.696Z</time></trkpt><trkpt lat="45.6800257" lon="11.3549518"><ele>220.0</ele><time>2026-03-22T09:02:10.697Z</time></trkpt><trkpt lat="45.6800441" lon="11.3550483"><ele>219.5</ele><time>2026-03-22T09:02:11.697Z</time></trkpt><trkpt lat="45.680062" lon="11.3551522"><ele>219.0</ele><time>2026-03-22T09:02:12.698Z</time></trkpt><trkpt lat="45.6800797" lon="11.3552494"><ele>218.50000000000003</ele><time>2026-03-22T09:02:13.696Z</time></trkpt><trkpt lat="45.6801111" lon="11.3553502"><ele>218.0</ele><time>2026-03-22T09:02:14.696Z</time></trkpt><trkpt lat="45.6801501" lon="11.3554521"><ele>218.00000000000003</ele><time>2026-03-22T09:02:15.697Z</time></trkpt><trkpt lat="45.6801895" lon="11.3555518"><ele>218.0</ele><time>2026-03-22T09:02:16.698Z</time></trkpt><trkpt lat="45.6802432" lon="11.3557228"><ele>218.0</ele><time>2026-03-22T09:02:18.697Z</time></trkpt><trkpt lat="45.6802778" lon="11.355808"><ele>218.0</ele><time>2026-03-22T09:02:19.697Z</time></trkpt><trkpt lat="45.680312" lon="11.3558979"><ele>218.00000000000003</ele><time>2026-03-22T09:02:20.697Z</time></trkpt><trkpt lat="45.6803606" lon="11.3559941"><ele>218.0</ele><time>2026-03-22T09:02:21.697Z</time></trkpt><trkpt lat="45.6804007" lon="11.356082"><ele>218.00000000000003</ele><time>2026-03-22T09:02:22.697Z</time></trkpt><trkpt lat="45.6804484" lon="11.3561746"><ele>218.0</ele><time>2026-03-22T09:02:23.698Z</time></trkpt><trkpt lat="45.6804977" lon="11.356268"><ele>218.0</ele><time>2026-03-22T09:02:24.697Z</time></trkpt><trkpt lat="45.680545" lon="11.3563587"><ele>218.0</ele><time>2026-03-22T09:02:25.698Z</time></trkpt><trkpt lat="45.6805986" lon="11.356443"><ele>218.00000000000003</ele><time>2026-03-22T09:02:26.697Z</time></trkpt><trkpt lat="45.6806475" lon="11.3565258"><ele>218.0</ele><time>2026-03-22T09:02:27.698Z</time></trkpt><trkpt lat="45.6806964" lon="11.3566093"><ele>217.16666666666669</ele><time>2026-03-22T09:02:28.696Z</time></trkpt><trkpt lat="45.6807463" lon="11.3566897"><ele>216.33333333333334</ele><time>2026-03-22T09:02:29.698Z</time></trkpt><trkpt lat="45.6808019" lon="11.356774"><ele>215.5</ele><time>2026-03-22T09:02:30.698Z</time></trkpt><trkpt lat="45.6808466" lon="11.356858"><ele>214.66666666666669</ele><time>2026-03-22T09:02:31.696Z</time></trkpt><trkpt lat="45.6808954" lon="11.3569458"><ele>213.83333333333334</ele><time>2026-03-22T09:02:32.697Z</time></trkpt><trkpt lat="45.6809393" lon="11.3570399"><ele>213.0</ele><time>2026-03-22T09:02:33.697Z</time></trkpt><trkpt lat="45.6809873" lon="11.3571488"><ele>212.83333333333334</ele><time>2026-03-22T09:02:34.696Z</time></trkpt><trkpt lat="45.6810259" lon="11.3572587"><ele>212.66666666666669</ele><time>2026-03-22T09:02:35.697Z</time></trkpt><trkpt lat="45.6810611" lon="11.357366"><ele>212.5</ele><time>2026-03-22T09:02:36.697Z</time></trkpt><trkpt lat="45.6810943" lon="11.3574696"><ele>212.33333333333334</ele><time>2026-03-22T09:02:37.698Z</time></trkpt><trkpt lat="45.6811308" lon="11.3575774"><ele>212.16666666666669</ele><time>2026-03-22T09:02:38.697Z</time></trkpt><trkpt lat="45.6811659" lon="11.357684"><ele>212.0</ele><time>2026-03-22T09:02:39.698Z</time></trkpt><trkpt lat="45.6811971" lon="11.3577998"><ele>212.00000000000003</ele><time>2026-03-22T09:02:40.697Z</time></trkpt><trkpt lat="45.6812348" lon="11.3579217"><ele>212.0</ele><time>2026-03-22T09:02:41.697Z</time></trkpt><trkpt lat="45.6812635" lon="11.358035"><ele>212.0</ele><time>2026-03-22T09:02:42.696Z</time></trkpt><trkpt lat="45.6812941" lon="11.3581456"><ele>212.0</ele><time>2026-03-22T09:02:43.698Z</time></trkpt><trkpt lat="45.6813392" lon="11.3582397"><ele>212.00000000000003</ele><time>2026-03-22T09:02:44.698Z</time></trkpt><trkpt lat="45.6813778" lon="11.3583367"><ele>212.0</ele><time>2026-03-22T09:02:45.696Z</time></trkpt><trkpt lat="45.6814129" lon="11.3584462"><ele>211.00000000000003</ele><time>2026-03-22T09:02:46.696Z</time></trkpt><trkpt lat="45.6814543" lon="11.3585483"><ele>210.0</ele><time>2026-03-22T09:02:47.697Z</time></trkpt><trkpt lat="45.6814916" lon="11.3586489"><ele>209.0</ele><time>2026-03-22T09:02:48.696Z</time></trkpt><trkpt lat="45.6815212" lon="11.3587584"><ele>208.0</ele><time>2026-03-22T09:02:49.697Z</time></trkpt><trkpt lat="45.6815615" lon="11.3588757"><ele>207.00000000000003</ele><time>2026-03-22T09:02:50.698Z</time></trkpt><trkpt lat="45.6815929" lon="11.3589942"><ele>206.0</ele><time>2026-03-22T09:02:51.697Z</time></trkpt><trkpt lat="45.6816214" lon="11.3591097"><ele>205.16666666666669</ele><time>2026-03-22T09:02:52.697Z</time></trkpt><trkpt lat="45.6816575" lon="11.3592224"><ele>204.33333333333334</ele><time>2026-03-22T09:02:53.697Z</time></trkpt><trkpt lat="45.6816913" lon="11.3593261"><ele>203.5</ele><time>2026-03-22T09:02:54.696Z</time></trkpt><trkpt lat="45.6817283" lon="11.3594226"><ele>202.66666666666669</ele><time>2026-03-22T09:02:55.698Z</time></trkpt><trkpt lat="45.6817679" lon="11.359518"><ele>201.83333333333334</ele><time>2026-03-22T09:02:56.698Z</time></trkpt><trkpt lat="45.6818045" lon="11.3596054"><ele>201.0</ele><time>2026-03-22T09:02:57.698Z</time></trkpt><trkpt lat="45.681841" lon="11.3596952"><ele>201.0</ele><time>2026-03-22T09:02:58.696Z</time></trkpt><trkpt lat="45.6818692" lon="11.359783"><ele>201.0</ele><time>2026-03-22T09:02:59.697Z</time></trkpt><trkpt lat="45.6818961" lon="11.3598814"><ele>201.0</ele><time>2026-03-22T09:03:00.698Z</time></trkpt><trkpt lat="45.6819266" lon="11.3599857"><ele>201.0</ele><time>2026-03-22T09:03:01.697Z</time></trkpt><trkpt lat="45.6819571" lon="11.3600884"><ele>201.0</ele><time>2026-03-22T09:03:02.697Z</time></trkpt><trkpt lat="45.6819855" lon="11.3601959"><ele>201.0</ele><time>2026-03-22T09:03:03.697Z</time></trkpt><trkpt lat="45.6820069" lon="11.3603019"><ele>201.0</ele><time>2026-03-22T09:03:04.698Z</time></trkpt><trkpt lat="45.6820258" lon="11.3604046"><ele>201.0</ele><time>2026-03-22T09:03:05.698Z</time></trkpt><trkpt lat="45.6820511" lon="11.3605064"><ele>201.0</ele><time>2026-03-22T09:03:06.697Z</time></trkpt><trkpt lat="45.6820813" lon="11.3606007"><ele>201.0</ele><time>2026-03-22T09:03:07.698Z</time></trkpt><trkpt lat="45.6821133" lon="11.3606966"><ele>201.0</ele><time>2026-03-22T09:03:08.697Z</time></trkpt><trkpt lat="45.6821529" lon="11.3607922"><ele>201.0</ele><time>2026-03-22T09:03:09.697Z</time></trkpt><trkpt lat="45.6821991" lon="11.3608749"><ele>201.0</ele><time>2026-03-22T09:03:10.698Z</time></trkpt><trkpt lat="45.6822636" lon="11.3609416"><ele>200.33333333333334</ele><time>2026-03-22T09:03:11.697Z</time></trkpt><trkpt lat="45.6823308" lon="11.3610099"><ele>199.66666666666669</ele><time>2026-03-22T09:03:12.697Z</time></trkpt><trkpt lat="45.6824028" lon="11.3610655"><ele>199.0</ele><time>2026-03-22T09:03:13.697Z</time></trkpt><trkpt lat="45.6824768" lon="11.3611171"><ele>198.33333333333334</ele><time>2026-03-22T09:03:14.696Z</time></trkpt><trkpt lat="45.6825567" lon="11.3611642"><ele>197.66666666666669</ele><time>2026-03-22T09:03:15.699Z</time></trkpt><trkpt lat="45.6826273" lon="11.3612427"><ele>197.0</ele><time>2026-03-22T09:03:16.698Z</time></trkpt><trkpt lat="45.6827046" lon="11.3613122"><ele>196.6</ele><time>2026-03-22T09:03:17.697Z</time></trkpt><trkpt lat="45.6827498" lon="11.3614749"><ele>196.2</ele><time>2026-03-22T09:03:18.697Z</time></trkpt><trkpt lat="45.6828045" lon="11.3615866"><ele>195.8</ele><time>2026-03-22T09:03:19.698Z</time></trkpt><trkpt lat="45.6828465" lon="11.3617059"><ele>195.4</ele><time>2026-03-22T09:03:20.697Z</time></trkpt><trkpt lat="45.6828882" lon="11.3618158"><ele>195.0</ele><time>2026-03-22T09:03:21.698Z</time></trkpt><trkpt lat="45.6829267" lon="11.3619252"><ele>195.0</ele><time>2026-03-22T09:03:22.695Z</time></trkpt><trkpt lat="45.6829693" lon="11.3620245"><ele>195.0</ele><time>2026-03-22T09:03:23.697Z</time></trkpt><trkpt lat="45.6830162" lon="11.3621291"><ele>195.0</ele><time>2026-03-22T09:03:24.697Z</time></trkpt><trkpt lat="45.683071" lon="11.362211"><ele>195.0</ele><time>2026-03-22T09:03:25.698Z</time></trkpt><trkpt lat="45.6831304" lon="11.3622812"><ele>195.0</ele><time>2026-03-22T09:03:26.697Z</time></trkpt><trkpt lat="45.6831873" lon="11.3623476"><ele>195.0</ele><time>2026-03-22T09:03:27.696Z</time></trkpt><trkpt lat="45.6832598" lon="11.3623809"><ele>194.16666666666666</ele><time>2026-03-22T09:03:28.697Z</time></trkpt><trkpt lat="45.6833297" lon="11.3624215"><ele>193.33333333333334</ele><time>2026-03-22T09:03:29.698Z</time></trkpt><trkpt lat="45.6834002" lon="11.3624521"><ele>192.5</ele><time>2026-03-22T09:03:30.696Z</time></trkpt><trkpt lat="45.6834749" lon="11.3624845"><ele>191.66666666666669</ele><time>2026-03-22T09:03:31.697Z</time></trkpt><trkpt lat="45.6835584" lon="11.3625118"><ele>190.83333333333334</ele><time>2026-03-22T09:03:32.697Z</time></trkpt><trkpt lat="45.683627" lon="11.3625417"><ele>190.0</ele><time>2026-03-22T09:03:33.697Z</time></trkpt><trkpt lat="45.6837219" lon="11.3626271"><ele>190.0</ele><time>2026-03-22T09:03:35.697Z</time></trkpt><trkpt lat="45.6837552" lon="11.3627049"><ele>190.0</ele><time>2026-03-22T09:03:36.698Z</time></trkpt><trkpt lat="45.6838067" lon="11.3627737"><ele>190.0</ele><time>2026-03-22T09:03:37.696Z</time></trkpt><trkpt lat="45.6838618" lon="11.3628453"><ele>190.0</ele><time>2026-03-22T09:03:38.698Z</time></trkpt><trkpt lat="45.6839178" lon="11.3629267"><ele>190.0</ele><time>2026-03-22T09:03:39.697Z</time></trkpt><trkpt lat="45.6839794" lon="11.3630094"><ele>190.0</ele><time>2026-03-22T09:03:40.696Z</time></trkpt><trkpt lat="45.6840314" lon="11.3630779"><ele>190.0</ele><time>2026-03-22T09:03:41.698Z</time></trkpt><trkpt lat="45.6840806" lon="11.3631539"><ele>189.28571428571428</ele><time>2026-03-22T09:03:42.697Z</time></trkpt><trkpt lat="45.6841278" lon="11.3632307"><ele>188.57142857142858</ele><time>2026-03-22T09:03:43.696Z</time></trkpt><trkpt lat="45.6841687" lon="11.3633051"><ele>187.85714285714283</ele><time>2026-03-22T09:03:44.695Z</time></trkpt><trkpt lat="45.6841995" lon="11.3634074"><ele>187.14285714285714</ele><time>2026-03-22T09:03:45.696Z</time></trkpt><trkpt lat="45.6842321" lon="11.3635037"><ele>186.42857142857142</ele><time>2026-03-22T09:03:46.697Z</time></trkpt><trkpt lat="45.6842374" lon="11.3636041"><ele>185.7142857142857</ele><time>2026-03-22T09:03:47.696Z</time></trkpt><trkpt lat="45.6842121" lon="11.3636967"><ele>185.0</ele><time>2026-03-22T09:03:48.696Z</time></trkpt><trkpt lat="45.6841847" lon="11.3637916"><ele>184.28571428571428</ele><time>2026-03-22T09:03:49.696Z</time></trkpt><trkpt lat="45.6841734" lon="11.3638986"><ele>183.57142857142856</ele><time>2026-03-22T09:03:50.696Z</time></trkpt><trkpt lat="45.6841557" lon="11.3639975"><ele>182.85714285714283</ele><time>2026-03-22T09:03:51.696Z</time></trkpt><trkpt lat="45.6841449" lon="11.3640893"><ele>182.14285714285714</ele><time>2026-03-22T09:03:52.696Z</time></trkpt><trkpt lat="45.6841221" lon="11.3641832"><ele>181.42857142857144</ele><time>2026-03-22T09:03:53.696Z</time></trkpt><trkpt lat="45.6840999" lon="11.3642808"><ele>180.7142857142857</ele><time>2026-03-22T09:03:54.696Z</time></trkpt><trkpt lat="45.6840769" lon="11.364376"><ele>180.0</ele><time>2026-03-22T09:03:55.697Z</time></trkpt><trkpt lat="45.6840591" lon="11.3644803"><ele>180.0</ele><time>2026-03-22T09:03:56.696Z</time></trkpt><trkpt lat="45.6840526" lon="11.3645803"><ele>180.0</ele><time>2026-03-22T09:03:57.697Z</time></trkpt><trkpt lat="45.6840408" lon="11.3646818"><ele>180.0</ele><time>2026-03-22T09:03:58.697Z</time></trkpt><trkpt lat="45.6840292" lon="11.3647747"><ele>180.0</ele><time>2026-03-22T09:03:59.697Z</time></trkpt><trkpt lat="45.6840126" lon="11.3648698"><ele>180.0</ele><time>2026-03-22T09:04:00.696Z</time></trkpt><trkpt lat="45.6840007" lon="11.3649624"><ele>180.0</ele><time>2026-03-22T09:04:01.696Z</time></trkpt><trkpt lat="45.6840037" lon="11.3650543"><ele>180.0</ele><time>2026-03-22T09:04:02.697Z</time></trkpt><trkpt lat="45.6840189" lon="11.3651519"><ele>179.5</ele><time>2026-03-22T09:04:03.696Z</time></trkpt><trkpt lat="45.6840535" lon="11.3652395"><ele>179.0</ele><time>2026-03-22T09:04:04.696Z</time></trkpt><trkpt lat="45.6840908" lon="11.3653208"><ele>178.5</ele><time>2026-03-22T09:04:05.696Z</time></trkpt><trkpt lat="45.6841339" lon="11.3653956"><ele>178.0</ele><time>2026-03-22T09:04:06.697Z</time></trkpt><trkpt lat="45.6842298" lon="11.3655116"><ele>177.5</ele><time>2026-03-22T09:04:08.697Z</time></trkpt><trkpt lat="45.684282" lon="11.3655702"><ele>177.0</ele><time>2026-03-22T09:04:09.695Z</time></trkpt><trkpt lat="45.6843668" lon="11.3656955"><ele>176.39999999999998</ele><time>2026-03-22T09:04:11.697Z</time></trkpt><trkpt lat="45.684383" lon="11.3658619"><ele>175.79999999999998</ele><time>2026-03-22T09:04:13.696Z</time></trkpt><trkpt lat="45.6843247" lon="11.3660113"><ele>175.2</ele><time>2026-03-22T09:04:15.698Z</time></trkpt><trkpt lat="45.6842259" lon="11.3661219"><ele>174.6</ele><time>2026-03-22T09:04:17.696Z</time></trkpt><trkpt lat="45.6841655" lon="11.3661749"><ele>174.0</ele><time>2026-03-22T09:04:18.698Z</time></trkpt><trkpt lat="45.684109" lon="11.3662274"><ele>174.0</ele><time>2026-03-22T09:04:19.696Z</time></trkpt><trkpt lat="45.6840525" lon="11.3663005"><ele>174.0</ele><time>2026-03-22T09:04:20.698Z</time></trkpt><trkpt lat="45.6839905" lon="11.3663532"><ele>174.0</ele><time>2026-03-22T09:04:21.697Z</time></trkpt><trkpt lat="45.6839258" lon="11.3663889"><ele>174.0</ele><time>2026-03-22T09:04:22.697Z</time></trkpt><trkpt lat="45.6838791" lon="11.366451"><ele>174.0</ele><time>2026-03-22T09:04:23.695Z</time></trkpt><trkpt lat="45.6838311" lon="11.3665115"><ele>174.0</ele><time>2026-03-22T09:04:24.697Z</time></trkpt><trkpt lat="45.6837712" lon="11.3665478"><ele>174.0</ele><time>2026-03-22T09:04:25.696Z</time></trkpt><trkpt lat="45.6837213" lon="11.3666032"><ele>173.66666666666666</ele><time>2026-03-22T09:04:26.697Z</time></trkpt><trkpt lat="45.6836767" lon="11.3667557"><ele>173.33333333333334</ele><time>2026-03-22T09:04:28.697Z</time></trkpt><trkpt lat="45.6836955" lon="11.3669123"><ele>173.0</ele><time>2026-03-22T09:04:30.698Z</time></trkpt><trkpt lat="45.6837245" lon="11.3670162"><ele>172.66666666666669</ele><time>2026-03-22T09:04:31.698Z</time></trkpt><trkpt lat="45.68375" lon="11.3671068"><ele>172.33333333333334</ele><time>2026-03-22T09:04:32.698Z</time></trkpt><trkpt lat="45.6837749" lon="11.3672058"><ele>172.0</ele><time>2026-03-22T09:04:33.696Z</time></trkpt><trkpt lat="45.6838002" lon="11.3673012"><ele>171.66666666666669</ele><time>2026-03-22T09:04:34.697Z</time></trkpt><trkpt lat="45.6838218" lon="11.3674011"><ele>171.33333333333334</ele><time>2026-03-22T09:04:35.697Z</time></trkpt><trkpt lat="45.6838358" lon="11.3675054"><ele>171.0</ele><time>2026-03-22T09:04:36.698Z</time></trkpt><trkpt lat="45.6838417" lon="11.3676024"><ele>170.66666666666666</ele><time>2026-03-22T09:04:37.698Z</time></trkpt><trkpt lat="45.6838446" lon="11.3677046"><ele>170.33333333333331</ele><time>2026-03-22T09:04:38.697Z</time></trkpt><trkpt lat="45.6838396" lon="11.3677967"><ele>170.0</ele><time>2026-03-22T09:04:39.698Z</time></trkpt><trkpt lat="45.6838606" lon="11.3679757"><ele>169.4</ele><time>2026-03-22T09:04:41.697Z</time></trkpt><trkpt lat="45.6839094" lon="11.3681318"><ele>168.8</ele><time>2026-03-22T09:04:43.697Z</time></trkpt><trkpt lat="45.6839334" lon="11.3682193"><ele>168.2</ele><time>2026-03-22T09:04:44.697Z</time></trkpt><trkpt lat="45.6839718" lon="11.368296"><ele>167.6</ele><time>2026-03-22T09:04:45.696Z</time></trkpt><trkpt lat="45.6840295" lon="11.3684463"><ele>167.0</ele><time>2026-03-22T09:04:47.697Z</time></trkpt><trkpt lat="45.684059" lon="11.3685551"><ele>167.0</ele><time>2026-03-22T09:04:48.698Z</time></trkpt><trkpt lat="45.6841123" lon="11.3687124"><ele>167.0</ele><time>2026-03-22T09:04:50.698Z</time></trkpt><trkpt lat="45.6841244" lon="11.3688064"><ele>167.0</ele><time>2026-03-22T09:04:51.697Z</time></trkpt><trkpt lat="45.6841349" lon="11.3689244"><ele>167.0</ele><time>2026-03-22T09:04:52.697Z</time></trkpt><trkpt lat="45.6841506" lon="11.3690232"><ele>167.0</ele><time>2026-03-22T09:04:53.697Z</time></trkpt><trkpt lat="45.6841763" lon="11.3691988"><ele>166.39999999999998</ele><time>2026-03-22T09:04:55.698Z</time></trkpt><trkpt lat="45.6842017" lon="11.3693735"><ele>165.79999999999998</ele><time>2026-03-22T09:04:57.697Z</time></trkpt><trkpt lat="45.6842141" lon="11.3694622"><ele>165.2</ele><time>2026-03-22T09:04:58.697Z</time></trkpt><trkpt lat="45.6842672" lon="11.3696248"><ele>164.6</ele><time>2026-03-22T09:05:00.697Z</time></trkpt><trkpt lat="45.6843172" lon="11.369786"><ele>164.0</ele><time>2026-03-22T09:05:02.698Z</time></trkpt><trkpt lat="45.6843775" lon="11.3699396"><ele>164.0</ele><time>2026-03-22T09:05:04.697Z</time></trkpt><trkpt lat="45.6844379" lon="11.3700984"><ele>164.0</ele><time>2026-03-22T09:05:06.698Z</time></trkpt><trkpt lat="45.684475" lon="11.3701768"><ele>164.0</ele><time>2026-03-22T09:05:07.698Z</time></trkpt><trkpt lat="45.6845105" lon="11.3702586"><ele>164.0</ele><time>2026-03-22T09:05:08.698Z</time></trkpt><trkpt lat="45.6845754" lon="11.3704039"><ele>164.0</ele><time>2026-03-22T09:05:10.696Z</time></trkpt><trkpt lat="45.6846484" lon="11.370547"><ele>164.0</ele><time>2026-03-22T09:05:12.697Z</time></trkpt><trkpt lat="45.6847106" lon="11.3706773"><ele>164.0</ele><time>2026-03-22T09:05:14.697Z</time></trkpt><trkpt lat="45.684774" lon="11.3707946"><ele>164.0</ele><time>2026-03-22T09:05:16.697Z</time></trkpt><trkpt lat="45.6848262" lon="11.3709199"><ele>164.0</ele><time>2026-03-22T09:05:18.698Z</time></trkpt><trkpt lat="45.6848311" lon="11.3710475"><ele>164.0</ele><time>2026-03-22T09:05:20.697Z</time></trkpt><trkpt lat="45.6848021" lon="11.3711672"><ele>164.0</ele><time>2026-03-22T09:05:22.696Z</time></trkpt><trkpt lat="45.6847356" lon="11.3712773"><ele>164.0</ele><time>2026-03-22T09:05:24.697Z</time></trkpt><trkpt lat="45.6846769" lon="11.3713183"><ele>164.0</ele><time>2026-03-22T09:05:25.697Z</time></trkpt><trkpt lat="45.6845803" lon="11.3713959"><ele>164.0</ele><time>2026-03-22T09:05:27.696Z</time></trkpt><trkpt lat="45.6844971" lon="11.3714947"><ele>164.0</ele><time>2026-03-22T09:05:29.698Z</time></trkpt><trkpt lat="45.6843952" lon="11.3715907"><ele>163.79999999999998</ele><time>2026-03-22T09:05:31.696Z</time></trkpt><trkpt lat="45.6842969" lon="11.3716893"><ele>163.6</ele><time>2026-03-22T09:05:33.697Z</time></trkpt><trkpt lat="45.6842303" lon="11.3717249"><ele>163.4</ele><time>2026-03-22T09:05:34.699Z</time></trkpt><trkpt lat="45.6841618" lon="11.3718548"><ele>163.2</ele><time>2026-03-22T09:05:36.697Z</time></trkpt><trkpt lat="45.6841543" lon="11.3719487"><ele>163.0</ele><time>2026-03-22T09:05:37.697Z</time></trkpt><trkpt lat="45.6841768" lon="11.3721073"><ele>162.66666666666669</ele><time>2026-03-22T09:05:39.696Z</time></trkpt><trkpt lat="45.6841989" lon="11.3722884"><ele>162.33333333333334</ele><time>2026-03-22T09:05:41.696Z</time></trkpt><trkpt lat="45.6842124" lon="11.3723848"><ele>162.0</ele><time>2026-03-22T09:05:42.696Z</time></trkpt><trkpt lat="45.6842219" lon="11.3724821"><ele>161.66666666666666</ele><time>2026-03-22T09:05:43.696Z</time></trkpt><trkpt lat="45.6842338" lon="11.3725857"><ele>161.33333333333331</ele><time>2026-03-22T09:05:44.697Z</time></trkpt><trkpt lat="45.6842511" lon="11.3726903"><ele>161.0</ele><time>2026-03-22T09:05:45.696Z</time></trkpt><trkpt lat="45.6842525" lon="11.3728076"><ele>161.0</ele><time>2026-03-22T09:05:46.696Z</time></trkpt><trkpt lat="45.6842599" lon="11.3729247"><ele>161.0</ele><time>2026-03-22T09:05:47.695Z</time></trkpt><trkpt lat="45.6842712" lon="11.3730369"><ele>161.0</ele><time>2026-03-22T09:05:48.697Z</time></trkpt><trkpt lat="45.6842851" lon="11.3731402"><ele>161.0</ele><time>2026-03-22T09:05:49.696Z</time></trkpt><trkpt lat="45.6842841" lon="11.3732495"><ele>161.0</ele><time>2026-03-22T09:05:50.696Z</time></trkpt><trkpt lat="45.684275" lon="11.3733659"><ele>161.0</ele><time>2026-03-22T09:05:51.697Z</time></trkpt><trkpt lat="45.6842431" lon="11.3734627"><ele>160.57142857142858</ele><time>2026-03-22T09:05:52.697Z</time></trkpt><trkpt lat="45.6841817" lon="11.3735335"><ele>160.14285714285714</ele><time>2026-03-22T09:05:53.697Z</time></trkpt><trkpt lat="45.684127" lon="11.373579"><ele>159.71428571428572</ele><time>2026-03-22T09:05:54.696Z</time></trkpt><trkpt lat="45.6840641" lon="11.3736098"><ele>159.28571428571428</ele><time>2026-03-22T09:05:55.697Z</time></trkpt><trkpt lat="45.6839953" lon="11.3736436"><ele>158.85714285714286</ele><time>2026-03-22T09:05:56.697Z</time></trkpt><trkpt lat="45.6839281" lon="11.3736695"><ele>158.42857142857144</ele><time>2026-03-22T09:05:57.697Z</time></trkpt><trkpt lat="45.6838648" lon="11.3736966"><ele>158.0</ele><time>2026-03-22T09:05:58.696Z</time></trkpt><trkpt lat="45.6838011" lon="11.3737204"><ele>158.0</ele><time>2026-03-22T09:05:59.697Z</time></trkpt><trkpt lat="45.6837341" lon="11.3737385"><ele>158.0</ele><time>2026-03-22T09:06:00.697Z</time></trkpt><trkpt lat="45.6836207" lon="11.3737835"><ele>158.0</ele><time>2026-03-22T09:06:02.697Z</time></trkpt><trkpt lat="45.6835146" lon="11.3737993"><ele>158.0</ele><time>2026-03-22T09:06:04.697Z</time></trkpt><trkpt lat="45.683451" lon="11.3738004"><ele>158.0</ele><time>2026-03-22T09:06:05.698Z</time></trkpt><trkpt lat="45.683314" lon="11.3738147"><ele>157.8</ele><time>2026-03-22T09:06:07.698Z</time></trkpt><trkpt lat="45.683202" lon="11.3738279"><ele>157.60000000000002</ele><time>2026-03-22T09:06:09.697Z</time></trkpt><trkpt lat="45.6831349" lon="11.3738266"><ele>157.39999999999998</ele><time>2026-03-22T09:06:10.698Z</time></trkpt><trkpt lat="45.6830704" lon="11.3738418"><ele>157.2</ele><time>2026-03-22T09:06:11.696Z</time></trkpt><trkpt lat="45.6829564" lon="11.3738163"><ele>157.0</ele><time>2026-03-22T09:06:13.696Z</time></trkpt><trkpt lat="45.6828459" lon="11.3738058"><ele>156.6</ele><time>2026-03-22T09:06:15.698Z</time></trkpt><trkpt lat="45.6827307" lon="11.3738129"><ele>156.2</ele><time>2026-03-22T09:06:17.697Z</time></trkpt><trkpt lat="45.6826309" lon="11.3737896"><ele>155.8</ele><time>2026-03-22T09:06:19.697Z</time></trkpt><trkpt lat="45.6825242" lon="11.3737882"><ele>155.4</ele><time>2026-03-22T09:06:21.698Z</time></trkpt><trkpt lat="45.6824223" lon="11.3737839"><ele>155.0</ele><time>2026-03-22T09:06:23.697Z</time></trkpt><trkpt lat="45.6823076" lon="11.3738294"><ele>155.33333333333331</ele><time>2026-03-22T09:06:25.696Z</time></trkpt><trkpt lat="45.6822027" lon="11.3738578"><ele>155.66666666666666</ele><time>2026-03-22T09:06:27.698Z</time></trkpt><trkpt lat="45.6821054" lon="11.3738772"><ele>156.0</ele><time>2026-03-22T09:06:29.698Z</time></trkpt><trkpt lat="45.6820185" lon="11.3738912"><ele>156.33333333333334</ele><time>2026-03-22T09:06:31.696Z</time></trkpt><trkpt lat="45.6819509" lon="11.3738986"><ele>156.66666666666669</ele><time>2026-03-22T09:06:33.696Z</time></trkpt><trkpt lat="45.6819084" lon="11.3739681"><ele>157.0</ele><time>2026-03-22T09:06:38.697Z</time></trkpt><trkpt lat="45.6819312" lon="11.3740683"><ele>157.0</ele><time>2026-03-22T09:06:43.696Z</time></trkpt><trkpt lat="45.6819281" lon="11.3741625"><ele>157.0</ele><time>2026-03-22T09:06:46.698Z</time></trkpt><trkpt lat="45.68191" lon="11.3742649"><ele>157.0</ele><time>2026-03-22T09:06:49.698Z</time></trkpt><trkpt lat="45.6818356" lon="11.3743092"><ele>157.0</ele><time>2026-03-22T09:06:52.698Z</time></trkpt><trkpt lat="45.6817429" lon="11.3743462"><ele>157.0</ele><time>2026-03-22T09:06:55.698Z</time></trkpt><trkpt lat="45.6816722" lon="11.3743755"><ele>157.0</ele><time>2026-03-22T09:06:57.698Z</time></trkpt><trkpt lat="45.6815918" lon="11.3743991"><ele>157.0</ele><time>2026-03-22T09:06:59.697Z</time></trkpt><trkpt lat="45.6815093" lon="11.3744338"><ele>157.0</ele><time>2026-03-22T09:07:01.697Z</time></trkpt><trkpt lat="45.6814361" lon="11.3744635"><ele>157.0</ele><time>2026-03-22T09:07:03.698Z</time></trkpt><trkpt lat="45.6813693" lon="11.3744914"><ele>157.0</ele><time>2026-03-22T09:07:05.697Z</time></trkpt><trkpt lat="45.6813041" lon="11.3745243"><ele>157.0</ele><time>2026-03-22T09:07:07.698Z</time></trkpt><trkpt lat="45.6812351" lon="11.3745908"><ele>157.0</ele><time>2026-03-22T09:07:10.698Z</time></trkpt><trkpt lat="45.681209" lon="11.3747153"><ele>157.16666666666669</ele><time>2026-03-22T09:07:13.697Z</time></trkpt><trkpt lat="45.6812124" lon="11.3748199"><ele>157.33333333333334</ele><time>2026-03-22T09:07:15.698Z</time></trkpt><trkpt lat="45.6812452" lon="11.3749292"><ele>157.5</ele><time>2026-03-22T09:07:17.698Z</time></trkpt><trkpt lat="45.6812821" lon="11.3750382"><ele>157.66666666666666</ele><time>2026-03-22T09:07:19.697Z</time></trkpt><trkpt lat="45.6813153" lon="11.3751515"><ele>157.83333333333331</ele><time>2026-03-22T09:07:21.696Z</time></trkpt><trkpt lat="45.6813468" lon="11.3752682"><ele>158.0</ele><time>2026-03-22T09:07:23.698Z</time></trkpt><trkpt lat="45.6813926" lon="11.3753942"><ele>158.0</ele><time>2026-03-22T09:07:25.697Z</time></trkpt><trkpt lat="45.6814209" lon="11.3755157"><ele>158.0</ele><time>2026-03-22T09:07:27.698Z</time></trkpt><trkpt lat="45.6814537" lon="11.3756298"><ele>158.0</ele><time>2026-03-22T09:07:29.697Z</time></trkpt><trkpt lat="45.6814828" lon="11.3757365"><ele>158.0</ele><time>2026-03-22T09:07:31.698Z</time></trkpt><trkpt lat="45.6815062" lon="11.3758526"><ele>158.0</ele><time>2026-03-22T09:07:33.698Z</time></trkpt><trkpt lat="45.681509" lon="11.3759568"><ele>158.0</ele><time>2026-03-22T09:07:35.697Z</time></trkpt><trkpt lat="45.6815456" lon="11.3760775"><ele>158.16666666666666</ele><time>2026-03-22T09:07:37.698Z</time></trkpt><trkpt lat="45.6815834" lon="11.3761766"><ele>158.33333333333331</ele><time>2026-03-22T09:07:39.697Z</time></trkpt><trkpt lat="45.6816106" lon="11.3762784"><ele>158.5</ele><time>2026-03-22T09:07:41.698Z</time></trkpt><trkpt lat="45.6816122" lon="11.3763917"><ele>158.66666666666666</ele><time>2026-03-22T09:07:43.697Z</time></trkpt><trkpt lat="45.6815809" lon="11.3765051"><ele>158.83333333333334</ele><time>2026-03-22T09:07:45.698Z</time></trkpt><trkpt lat="45.681522" lon="11.3766014"><ele>159.0</ele><time>2026-03-22T09:07:47.697Z</time></trkpt><trkpt lat="45.6814589" lon="11.3766436"><ele>159.0</ele><time>2026-03-22T09:07:48.698Z</time></trkpt><trkpt lat="45.6813755" lon="11.376725"><ele>159.0</ele><time>2026-03-22T09:07:50.696Z</time></trkpt><trkpt lat="45.6812863" lon="11.376807"><ele>159.0</ele><time>2026-03-22T09:07:52.698Z</time></trkpt><trkpt lat="45.6812008" lon="11.3768965"><ele>159.0</ele><time>2026-03-22T09:07:54.698Z</time></trkpt><trkpt lat="45.6811173" lon="11.3769883"><ele>159.0</ele><time>2026-03-22T09:07:56.698Z</time></trkpt><trkpt lat="45.6810484" lon="11.3770736"><ele>158.6</ele><time>2026-03-22T09:07:58.697Z</time></trkpt><trkpt lat="45.6809909" lon="11.3771531"><ele>158.2</ele><time>2026-03-22T09:08:00.696Z</time></trkpt><trkpt lat="45.6809132" lon="11.3772262"><ele>157.79999999999998</ele><time>2026-03-22T09:08:03.696Z</time></trkpt><trkpt lat="45.6808313" lon="11.3772394"><ele>157.4</ele><time>2026-03-22T09:08:04.695Z</time></trkpt><trkpt lat="45.680748" lon="11.3773239"><ele>157.0</ele><time>2026-03-22T09:08:06.696Z</time></trkpt><trkpt lat="45.6806627" lon="11.3773971"><ele>157.0</ele><time>2026-03-22T09:08:08.697Z</time></trkpt><trkpt lat="45.6806025" lon="11.3774739"><ele>157.0</ele><time>2026-03-22T09:08:10.697Z</time></trkpt><trkpt lat="45.6805355" lon="11.3775493"><ele>157.0</ele><time>2026-03-22T09:08:12.697Z</time></trkpt><trkpt lat="45.6804654" lon="11.3776127"><ele>157.0</ele><time>2026-03-22T09:08:14.697Z</time></trkpt><trkpt lat="45.680398" lon="11.3776728"><ele>157.0</ele><time>2026-03-22T09:08:16.697Z</time></trkpt><trkpt lat="45.6803261" lon="11.377726"><ele>157.0</ele><time>2026-03-22T09:08:18.696Z</time></trkpt><trkpt lat="45.6802811" lon="11.3778026"><ele>156.66666666666669</ele><time>2026-03-22T09:08:20.696Z</time></trkpt><trkpt lat="45.6802248" lon="11.3779203"><ele>156.33333333333334</ele><time>2026-03-22T09:08:23.697Z</time></trkpt><trkpt lat="45.680167" lon="11.3779957"><ele>156.0</ele><time>2026-03-22T09:08:25.697Z</time></trkpt><trkpt lat="45.6800991" lon="11.3780512"><ele>155.66666666666666</ele><time>2026-03-22T09:08:27.695Z</time></trkpt><trkpt lat="45.6800231" lon="11.3781048"><ele>155.33333333333331</ele><time>2026-03-22T09:08:29.695Z</time></trkpt><trkpt lat="45.6799546" lon="11.378111"><ele>155.0</ele><time>2026-03-22T09:08:30.697Z</time></trkpt><trkpt lat="45.6798781" lon="11.3781757"><ele>155.0</ele><time>2026-03-22T09:08:32.695Z</time></trkpt><trkpt lat="45.6797712" lon="11.3782207"><ele>155.0</ele><time>2026-03-22T09:08:34.695Z</time></trkpt><trkpt lat="45.6796706" lon="11.3782869"><ele>155.0</ele><time>2026-03-22T09:08:36.696Z</time></trkpt><trkpt lat="45.6795718" lon="11.3783601"><ele>155.0</ele><time>2026-03-22T09:08:38.696Z</time></trkpt><trkpt lat="45.6794873" lon="11.3784669"><ele>155.0</ele><time>2026-03-22T09:08:40.697Z</time></trkpt><trkpt lat="45.6793987" lon="11.3785432"><ele>155.0</ele><time>2026-03-22T09:08:42.697Z</time></trkpt><trkpt lat="45.6793064" lon="11.3786428"><ele>155.0</ele><time>2026-03-22T09:08:44.697Z</time></trkpt><trkpt lat="45.6792149" lon="11.3787343"><ele>155.0</ele><time>2026-03-22T09:08:46.697Z</time></trkpt><trkpt lat="45.6791367" lon="11.3788175"><ele>155.0</ele><time>2026-03-22T09:08:48.697Z</time></trkpt><trkpt lat="45.6790438" lon="11.3789042"><ele>155.0</ele><time>2026-03-22T09:08:50.697Z</time></trkpt><trkpt lat="45.678983" lon="11.379024"><ele>155.0</ele><time>2026-03-22T09:08:52.697Z</time></trkpt><trkpt lat="45.6789482" lon="11.3791613"><ele>155.0</ele><time>2026-03-22T09:08:54.696Z</time></trkpt><trkpt lat="45.6789261" lon="11.3793128"><ele>155.0</ele><time>2026-03-22T09:08:56.696Z</time></trkpt><trkpt lat="45.6789062" lon="11.3794574"><ele>155.0</ele><time>2026-03-22T09:08:58.697Z</time></trkpt><trkpt lat="45.6788926" lon="11.379574"><ele>155.0</ele><time>2026-03-22T09:09:00.696Z</time></trkpt><trkpt lat="45.6788728" lon="11.3796995"><ele>155.0</ele><time>2026-03-22T09:09:02.696Z</time></trkpt><trkpt lat="45.6788161" lon="11.3798031"><ele>155.0</ele><time>2026-03-22T09:09:04.697Z</time></trkpt><trkpt lat="45.6787561" lon="11.379905"><ele>155.0</ele><time>2026-03-22T09:09:06.696Z</time></trkpt><trkpt lat="45.6786708" lon="11.3799849"><ele>155.0</ele><time>2026-03-22T09:09:08.697Z</time></trkpt><trkpt lat="45.6785704" lon="11.3800693"><ele>155.0</ele><time>2026-03-22T09:09:10.696Z</time></trkpt><trkpt lat="45.6784778" lon="11.3801616"><ele>154.25</ele><time>2026-03-22T09:09:12.696Z</time></trkpt><trkpt lat="45.6783814" lon="11.3802438"><ele>153.5</ele><time>2026-03-22T09:09:14.696Z</time></trkpt><trkpt lat="45.6782895" lon="11.3803347"><ele>152.75</ele><time>2026-03-22T09:09:16.695Z</time></trkpt><trkpt lat="45.6781933" lon="11.3804227"><ele>152.0</ele><time>2026-03-22T09:09:18.696Z</time></trkpt><trkpt lat="45.6780936" lon="11.380513"><ele>152.0</ele><time>2026-03-22T09:09:20.696Z</time></trkpt><trkpt lat="45.6780035" lon="11.3805987"><ele>152.0</ele><time>2026-03-22T09:09:22.697Z</time></trkpt><trkpt lat="45.6778877" lon="11.3806662"><ele>152.0</ele><time>2026-03-22T09:09:24.696Z</time></trkpt><trkpt lat="45.6777886" lon="11.3807358"><ele>152.0</ele><time>2026-03-22T09:09:26.696Z</time></trkpt><trkpt lat="45.6776956" lon="11.3808"><ele>152.0</ele><time>2026-03-22T09:09:28.696Z</time></trkpt><trkpt lat="45.6776084" lon="11.3808476"><ele>152.0</ele><time>2026-03-22T09:09:30.696Z</time></trkpt><trkpt lat="45.6775444" lon="11.3808699"><ele>152.0</ele><time>2026-03-22T09:09:31.696Z</time></trkpt><trkpt lat="45.6774781" lon="11.3809065"><ele>152.0</ele><time>2026-03-22T09:09:32.697Z</time></trkpt><trkpt lat="45.6773823" lon="11.3810089"><ele>152.0</ele><time>2026-03-22T09:09:34.696Z</time></trkpt><trkpt lat="45.6772975" lon="11.3810824"><ele>152.0</ele><time>2026-03-22T09:09:36.697Z</time></trkpt><trkpt lat="45.6772206" lon="11.381162"><ele>152.0</ele><time>2026-03-22T09:09:38.696Z</time></trkpt><trkpt lat="45.6771493" lon="11.3812743"><ele>152.0</ele><time>2026-03-22T09:09:40.697Z</time></trkpt><trkpt lat="45.677082" lon="11.3813922"><ele>152.0</ele><time>2026-03-22T09:09:42.696Z</time></trkpt><trkpt lat="45.6770359" lon="11.3814728"><ele>152.0</ele><time>2026-03-22T09:09:43.696Z</time></trkpt><trkpt lat="45.6769201" lon="11.381584"><ele>152.0</ele><time>2026-03-22T09:09:45.696Z</time></trkpt><trkpt lat="45.6768341" lon="11.3816807"><ele>151.5</ele><time>2026-03-22T09:09:47.697Z</time></trkpt><trkpt lat="45.6767501" lon="11.3817887"><ele>151.0</ele><time>2026-03-22T09:09:49.697Z</time></trkpt><trkpt lat="45.6766686" lon="11.3818976"><ele>150.5</ele><time>2026-03-22T09:09:51.696Z</time></trkpt><trkpt lat="45.676582" lon="11.3820048"><ele>150.0</ele><time>2026-03-22T09:09:53.696Z</time></trkpt><trkpt lat="45.6764883" lon="11.382106"><ele>150.2</ele><time>2026-03-22T09:09:55.697Z</time></trkpt><trkpt lat="45.6764127" lon="11.3821848"><ele>150.4</ele><time>2026-03-22T09:09:56.697Z</time></trkpt><trkpt lat="45.6763294" lon="11.3822842"><ele>150.6</ele><time>2026-03-22T09:09:58.696Z</time></trkpt><trkpt lat="45.6762521" lon="11.3824082"><ele>150.8</ele><time>2026-03-22T09:10:00.696Z</time></trkpt><trkpt lat="45.6761636" lon="11.382515"><ele>151.0</ele><time>2026-03-22T09:10:02.696Z</time></trkpt><trkpt lat="45.6760711" lon="11.3826209"><ele>150.2</ele><time>2026-03-22T09:10:04.696Z</time></trkpt><trkpt lat="45.6759808" lon="11.3827455"><ele>149.39999999999998</ele><time>2026-03-22T09:10:06.697Z</time></trkpt><trkpt lat="45.6759029" lon="11.3828638"><ele>148.6</ele><time>2026-03-22T09:10:08.695Z</time></trkpt><trkpt lat="45.6758423" lon="11.38292"><ele>147.79999999999998</ele><time>2026-03-22T09:10:09.696Z</time></trkpt><trkpt lat="45.675744" lon="11.3830253"><ele>147.0</ele><time>2026-03-22T09:10:11.696Z</time></trkpt><trkpt lat="45.6756971" lon="11.3830916"><ele>146.83333333333334</ele><time>2026-03-22T09:10:12.697Z</time></trkpt><trkpt lat="45.675608" lon="11.3832095"><ele>146.66666666666666</ele><time>2026-03-22T09:10:14.695Z</time></trkpt><trkpt lat="45.675559" lon="11.3832784"><ele>146.5</ele><time>2026-03-22T09:10:15.697Z</time></trkpt><trkpt lat="45.6755118" lon="11.3833383"><ele>146.33333333333331</ele><time>2026-03-22T09:10:16.697Z</time></trkpt><trkpt lat="45.6754243" lon="11.3834391"><ele>146.16666666666666</ele><time>2026-03-22T09:10:18.696Z</time></trkpt><trkpt lat="45.6753692" lon="11.3834929"><ele>146.0</ele><time>2026-03-22T09:10:19.697Z</time></trkpt><trkpt lat="45.6752783" lon="11.3835983"><ele>146.2</ele><time>2026-03-22T09:10:21.697Z</time></trkpt><trkpt lat="45.6752293" lon="11.3836657"><ele>146.39999999999998</ele><time>2026-03-22T09:10:22.697Z</time></trkpt><trkpt lat="45.6751429" lon="11.3837751"><ele>146.6</ele><time>2026-03-22T09:10:24.698Z</time></trkpt><trkpt lat="45.6750652" lon="11.3838682"><ele>146.79999999999998</ele><time>2026-03-22T09:10:26.697Z</time></trkpt><trkpt lat="45.6749886" lon="11.3839976"><ele>147.0</ele><time>2026-03-22T09:10:28.697Z</time></trkpt><trkpt lat="45.674888" lon="11.3840984"><ele>146.66666666666666</ele><time>2026-03-22T09:10:30.696Z</time></trkpt><trkpt lat="45.6748396" lon="11.3841657"><ele>146.33333333333334</ele><time>2026-03-22T09:10:31.695Z</time></trkpt><trkpt lat="45.6747703" lon="11.3842741"><ele>146.0</ele><time>2026-03-22T09:10:33.696Z</time></trkpt><trkpt lat="45.6747185" lon="11.3843292"><ele>145.66666666666669</ele><time>2026-03-22T09:10:34.696Z</time></trkpt><trkpt lat="45.6746704" lon="11.384391"><ele>145.33333333333334</ele><time>2026-03-22T09:10:35.696Z</time></trkpt><trkpt lat="45.674623" lon="11.38446"><ele>145.0</ele><time>2026-03-22T09:10:36.696Z</time></trkpt><trkpt lat="45.6745436" lon="11.3845831"><ele>145.0</ele><time>2026-03-22T09:10:38.696Z</time></trkpt><trkpt lat="45.674496" lon="11.3846455"><ele>145.0</ele><time>2026-03-22T09:10:39.697Z</time></trkpt><trkpt lat="45.6744476" lon="11.3847114"><ele>145.0</ele><time>2026-03-22T09:10:40.697Z</time></trkpt><trkpt lat="45.6743583" lon="11.3848391"><ele>145.0</ele><time>2026-03-22T09:10:42.697Z</time></trkpt><trkpt lat="45.6742701" lon="11.3849474"><ele>145.0</ele><time>2026-03-22T09:10:44.696Z</time></trkpt><trkpt lat="45.6741842" lon="11.3850726"><ele>144.83333333333334</ele><time>2026-03-22T09:10:46.697Z</time></trkpt><trkpt lat="45.6740908" lon="11.3851937"><ele>144.66666666666669</ele><time>2026-03-22T09:10:48.697Z</time></trkpt><trkpt lat="45.6740423" lon="11.3852575"><ele>144.5</ele><time>2026-03-22T09:10:49.696Z</time></trkpt><trkpt lat="45.6739968" lon="11.3853294"><ele>144.33333333333334</ele><time>2026-03-22T09:10:50.696Z</time></trkpt><trkpt lat="45.6739511" lon="11.3853922"><ele>144.16666666666666</ele><time>2026-03-22T09:10:51.696Z</time></trkpt><trkpt lat="45.6738932" lon="11.3854508"><ele>144.0</ele><time>2026-03-22T09:10:52.698Z</time></trkpt><trkpt lat="45.6737976" lon="11.3855599"><ele>144.00000000000003</ele><time>2026-03-22T09:10:54.697Z</time></trkpt><trkpt lat="45.6737502" lon="11.3856202"><ele>144.0</ele><time>2026-03-22T09:10:55.696Z</time></trkpt><trkpt lat="45.6736969" lon="11.3856809"><ele>144.0</ele><time>2026-03-22T09:10:56.696Z</time></trkpt><trkpt lat="45.673644" lon="11.3857403"><ele>144.0</ele><time>2026-03-22T09:10:57.697Z</time></trkpt><trkpt lat="45.673553" lon="11.3858365"><ele>144.0</ele><time>2026-03-22T09:10:59.697Z</time></trkpt><trkpt lat="45.6735049" lon="11.3859016"><ele>144.00000000000003</ele><time>2026-03-22T09:11:00.696Z</time></trkpt><trkpt lat="45.6734575" lon="11.3859616"><ele>144.0</ele><time>2026-03-22T09:11:01.697Z</time></trkpt><trkpt lat="45.6734158" lon="11.3860352"><ele>143.6</ele><time>2026-03-22T09:11:02.697Z</time></trkpt><trkpt lat="45.6733501" lon="11.3860855"><ele>143.2</ele><time>2026-03-22T09:11:03.696Z</time></trkpt><trkpt lat="45.6733008" lon="11.3861429"><ele>142.79999999999998</ele><time>2026-03-22T09:11:04.695Z</time></trkpt><trkpt lat="45.6732211" lon="11.3862489"><ele>142.4</ele><time>2026-03-22T09:11:06.696Z</time></trkpt><trkpt lat="45.6731364" lon="11.3863511"><ele>142.0</ele><time>2026-03-22T09:11:08.696Z</time></trkpt><trkpt lat="45.6730536" lon="11.3864668"><ele>142.0</ele><time>2026-03-22T09:11:10.698Z</time></trkpt><trkpt lat="45.6729594" lon="11.3865835"><ele>142.0</ele><time>2026-03-22T09:11:12.697Z</time></trkpt><trkpt lat="45.6728771" lon="11.3866959"><ele>142.0</ele><time>2026-03-22T09:11:14.696Z</time></trkpt><trkpt lat="45.6727869" lon="11.3868164"><ele>142.0</ele><time>2026-03-22T09:11:16.696Z</time></trkpt><trkpt lat="45.6727136" lon="11.3868765"><ele>142.0</ele><time>2026-03-22T09:11:17.697Z</time></trkpt><trkpt lat="45.6726622" lon="11.386951"><ele>142.0</ele><time>2026-03-22T09:11:18.697Z</time></trkpt><trkpt lat="45.6726155" lon="11.3870253"><ele>142.0</ele><time>2026-03-22T09:11:19.697Z</time></trkpt><trkpt lat="45.6725654" lon="11.3870814"><ele>142.0</ele><time>2026-03-22T09:11:20.695Z</time></trkpt><trkpt lat="45.6724711" lon="11.3871763"><ele>142.0</ele><time>2026-03-22T09:11:22.695Z</time></trkpt><trkpt lat="45.6723797" lon="11.3873087"><ele>142.0</ele><time>2026-03-22T09:11:24.696Z</time></trkpt><trkpt lat="45.6723208" lon="11.3873662"><ele>142.0</ele><time>2026-03-22T09:11:25.696Z</time></trkpt><trkpt lat="45.6722701" lon="11.3874288"><ele>142.0</ele><time>2026-03-22T09:11:26.696Z</time></trkpt><trkpt lat="45.6721828" lon="11.3875375"><ele>142.0</ele><time>2026-03-22T09:11:28.695Z</time></trkpt><trkpt lat="45.6721341" lon="11.3875971"><ele>142.0</ele><time>2026-03-22T09:11:29.695Z</time></trkpt><trkpt lat="45.672076" lon="11.3876677"><ele>142.0</ele><time>2026-03-22T09:11:30.696Z</time></trkpt><trkpt lat="45.6719838" lon="11.3877737"><ele>142.0</ele><time>2026-03-22T09:11:32.697Z</time></trkpt><trkpt lat="45.6718783" lon="11.3878821"><ele>142.0</ele><time>2026-03-22T09:11:34.696Z</time></trkpt><trkpt lat="45.6718238" lon="11.3879418"><ele>142.0</ele><time>2026-03-22T09:11:35.696Z</time></trkpt><trkpt lat="45.6717591" lon="11.388004"><ele>142.0</ele><time>2026-03-22T09:11:36.698Z</time></trkpt><trkpt lat="45.6717079" lon="11.3880685"><ele>142.0</ele><time>2026-03-22T09:11:37.695Z</time></trkpt><trkpt lat="45.671657" lon="11.3881321"><ele>142.0</ele><time>2026-03-22T09:11:38.696Z</time></trkpt><trkpt lat="45.6715839" lon="11.388274"><ele>142.0</ele><time>2026-03-22T09:11:40.697Z</time></trkpt><trkpt lat="45.6715369" lon="11.3883441"><ele>141.75</ele><time>2026-03-22T09:11:41.697Z</time></trkpt><trkpt lat="45.6714453" lon="11.3884655"><ele>141.5</ele><time>2026-03-22T09:11:43.695Z</time></trkpt><trkpt lat="45.6713587" lon="11.3885959"><ele>141.25</ele><time>2026-03-22T09:11:45.696Z</time></trkpt><trkpt lat="45.671273" lon="11.3887154"><ele>141.0</ele><time>2026-03-22T09:11:47.695Z</time></trkpt><trkpt lat="45.6711865" lon="11.3888491"><ele>140.66666666666666</ele><time>2026-03-22T09:11:49.695Z</time></trkpt><trkpt lat="45.6711402" lon="11.3889119"><ele>140.33333333333334</ele><time>2026-03-22T09:11:50.695Z</time></trkpt><trkpt lat="45.6710934" lon="11.3889727"><ele>140.0</ele><time>2026-03-22T09:11:51.696Z</time></trkpt><trkpt lat="45.6710068" lon="11.389092"><ele>139.66666666666669</ele><time>2026-03-22T09:11:53.696Z</time></trkpt><trkpt lat="45.6709244" lon="11.3892071"><ele>139.33333333333334</ele><time>2026-03-22T09:11:55.696Z</time></trkpt><trkpt lat="45.6708786" lon="11.3892713"><ele>139.0</ele><time>2026-03-22T09:11:56.696Z</time></trkpt><trkpt lat="45.6707833" lon="11.3893982"><ele>139.0</ele><time>2026-03-22T09:11:58.695Z</time></trkpt><trkpt lat="45.6707364" lon="11.3894589"><ele>139.0</ele><time>2026-03-22T09:11:59.697Z</time></trkpt><trkpt lat="45.6706483" lon="11.3895916"><ele>139.0</ele><time>2026-03-22T09:12:01.695Z</time></trkpt><trkpt lat="45.6705951" lon="11.3896586"><ele>139.0</ele><time>2026-03-22T09:12:02.697Z</time></trkpt><trkpt lat="45.6705471" lon="11.3897236"><ele>139.0</ele><time>2026-03-22T09:12:03.696Z</time></trkpt><trkpt lat="45.6704952" lon="11.3897844"><ele>139.0</ele><time>2026-03-22T09:12:04.697Z</time></trkpt><trkpt lat="45.670446" lon="11.3898443"><ele>139.0</ele><time>2026-03-22T09:12:05.697Z</time></trkpt><trkpt lat="45.670379" lon="11.389903"><ele>139.0</ele><time>2026-03-22T09:12:06.696Z</time></trkpt><trkpt lat="45.6703102" lon="11.3899765"><ele>139.0</ele><time>2026-03-22T09:12:07.696Z</time></trkpt><trkpt lat="45.6702201" lon="11.3900885"><ele>139.0</ele><time>2026-03-22T09:12:09.697Z</time></trkpt><trkpt lat="45.6701327" lon="11.3901983"><ele>139.0</ele><time>2026-03-22T09:12:11.697Z</time></trkpt><trkpt lat="45.6700733" lon="11.3902512"><ele>139.0</ele><time>2026-03-22T09:12:12.697Z</time></trkpt><trkpt lat="45.6699826" lon="11.3903547"><ele>139.0</ele><time>2026-03-22T09:12:14.697Z</time></trkpt><trkpt lat="45.6699177" lon="11.3903963"><ele>139.0</ele><time>2026-03-22T09:12:15.695Z</time></trkpt><trkpt lat="45.669864" lon="11.3904446"><ele>139.0</ele><time>2026-03-22T09:12:16.695Z</time></trkpt><trkpt lat="45.6697442" lon="11.3905327"><ele>139.0</ele><time>2026-03-22T09:12:18.696Z</time></trkpt><trkpt lat="45.6696332" lon="11.3906425"><ele>138.6</ele><time>2026-03-22T09:12:20.697Z</time></trkpt><trkpt lat="45.6695354" lon="11.3907277"><ele>138.2</ele><time>2026-03-22T09:12:22.696Z</time></trkpt><trkpt lat="45.669489" lon="11.3907954"><ele>137.79999999999998</ele><time>2026-03-22T09:12:23.696Z</time></trkpt><trkpt lat="45.669383" lon="11.3908918"><ele>137.4</ele><time>2026-03-22T09:12:25.697Z</time></trkpt><trkpt lat="45.669275" lon="11.3909816"><ele>137.0</ele><time>2026-03-22T09:12:27.697Z</time></trkpt><trkpt lat="45.6691782" lon="11.3910651"><ele>137.0</ele><time>2026-03-22T09:12:29.696Z</time></trkpt><trkpt lat="45.6690828" lon="11.3911633"><ele>137.0</ele><time>2026-03-22T09:12:31.696Z</time></trkpt><trkpt lat="45.6689815" lon="11.3912546"><ele>137.0</ele><time>2026-03-22T09:12:33.696Z</time></trkpt><trkpt lat="45.6688824" lon="11.3913373"><ele>137.0</ele><time>2026-03-22T09:12:35.696Z</time></trkpt><trkpt lat="45.6687831" lon="11.3914107"><ele>137.0</ele><time>2026-03-22T09:12:37.696Z</time></trkpt><trkpt lat="45.6686857" lon="11.3914927"><ele>137.0</ele><time>2026-03-22T09:12:39.697Z</time></trkpt><trkpt lat="45.6685829" lon="11.3915756"><ele>137.0</ele><time>2026-03-22T09:12:41.696Z</time></trkpt><trkpt lat="45.6684979" lon="11.391651"><ele>137.0</ele><time>2026-03-22T09:12:43.696Z</time></trkpt><trkpt lat="45.668397" lon="11.3916583"><ele>137.0</ele><time>2026-03-22T09:12:45.697Z</time></trkpt><trkpt lat="45.6683342" lon="11.3915665"><ele>137.0</ele><time>2026-03-22T09:12:47.696Z</time></trkpt><trkpt lat="45.6683015" lon="11.3914293"><ele>137.0</ele><time>2026-03-22T09:12:49.696Z</time></trkpt><trkpt lat="45.6682461" lon="11.3912825"><ele>137.0</ele><time>2026-03-22T09:12:51.698Z</time></trkpt><trkpt lat="45.6681901" lon="11.3911667"><ele>137.0</ele><time>2026-03-22T09:12:53.697Z</time></trkpt><trkpt lat="45.668145" lon="11.3910334"><ele>137.0</ele><time>2026-03-22T09:12:55.696Z</time></trkpt><trkpt lat="45.6680977" lon="11.390913"><ele>137.0</ele><time>2026-03-22T09:12:57.697Z</time></trkpt><trkpt lat="45.6680524" lon="11.3907775"><ele>137.0</ele><time>2026-03-22T09:12:59.695Z</time></trkpt><trkpt lat="45.6680008" lon="11.390688"><ele>137.0</ele><time>2026-03-22T09:13:00.695Z</time></trkpt><trkpt lat="45.6679666" lon="11.3905204"><ele>137.0</ele><time>2026-03-22T09:13:02.696Z</time></trkpt><trkpt lat="45.6679415" lon="11.3903663"><ele>137.0</ele><time>2026-03-22T09:13:04.697Z</time></trkpt><trkpt lat="45.6678735" lon="11.3903018"><ele>136.6</ele><time>2026-03-22T09:13:06.697Z</time></trkpt><trkpt lat="45.6677468" lon="11.3903857"><ele>136.2</ele><time>2026-03-22T09:13:09.696Z</time></trkpt><trkpt lat="45.6676507" lon="11.3904628"><ele>135.8</ele><time>2026-03-22T09:13:11.695Z</time></trkpt><trkpt lat="45.6675614" lon="11.3905312"><ele>135.4</ele><time>2026-03-22T09:13:13.697Z</time></trkpt><trkpt lat="45.6674992" lon="11.3905552"><ele>135.0</ele><time>2026-03-22T09:13:14.697Z</time></trkpt><trkpt lat="45.6674259" lon="11.3905727"><ele>135.0</ele><time>2026-03-22T09:13:15.697Z</time></trkpt><trkpt lat="45.6673094" lon="11.3905672"><ele>135.0</ele><time>2026-03-22T09:13:17.696Z</time></trkpt><trkpt lat="45.6672425" lon="11.3905754"><ele>135.0</ele><time>2026-03-22T09:13:18.695Z</time></trkpt><trkpt lat="45.6671207" lon="11.3905787"><ele>135.0</ele><time>2026-03-22T09:13:20.697Z</time></trkpt><trkpt lat="45.667054" lon="11.3905839"><ele>135.0</ele><time>2026-03-22T09:13:21.696Z</time></trkpt><trkpt lat="45.666947" lon="11.3906061"><ele>134.6</ele><time>2026-03-22T09:13:23.696Z</time></trkpt><trkpt lat="45.6668832" lon="11.3906271"><ele>134.2</ele><time>2026-03-22T09:13:24.697Z</time></trkpt><trkpt lat="45.6667706" lon="11.3906545"><ele>133.8</ele><time>2026-03-22T09:13:26.697Z</time></trkpt><trkpt lat="45.6666606" lon="11.3906608"><ele>133.4</ele><time>2026-03-22T09:13:28.697Z</time></trkpt><trkpt lat="45.6665629" lon="11.3906922"><ele>133.0</ele><time>2026-03-22T09:13:30.696Z</time></trkpt><trkpt lat="45.666461" lon="11.3907262"><ele>133.0</ele><time>2026-03-22T09:13:32.696Z</time></trkpt><trkpt lat="45.666363" lon="11.3908159"><ele>133.0</ele><time>2026-03-22T09:13:34.696Z</time></trkpt><trkpt lat="45.6662701" lon="11.3909056"><ele>133.0</ele><time>2026-03-22T09:13:36.696Z</time></trkpt><trkpt lat="45.6661824" lon="11.3909846"><ele>133.0</ele><time>2026-03-22T09:13:38.696Z</time></trkpt><trkpt lat="45.6661294" lon="11.3910375"><ele>133.0</ele><time>2026-03-22T09:13:39.696Z</time></trkpt><trkpt lat="45.66608" lon="11.391147"><ele>132.5</ele><time>2026-03-22T09:13:41.696Z</time></trkpt><trkpt lat="45.666023" lon="11.3912226"><ele>132.0</ele><time>2026-03-22T09:13:42.696Z</time></trkpt><trkpt lat="45.6659842" lon="11.3912995"><ele>131.5</ele><time>2026-03-22T09:13:43.697Z</time></trkpt><trkpt lat="45.6659307" lon="11.391349"><ele>131.0</ele><time>2026-03-22T09:13:44.696Z</time></trkpt><trkpt lat="45.6658604" lon="11.3913857"><ele>130.5</ele><time>2026-03-22T09:13:45.696Z</time></trkpt><trkpt lat="45.6657384" lon="11.3914028"><ele>130.0</ele><time>2026-03-22T09:13:47.697Z</time></trkpt><trkpt lat="45.6656732" lon="11.3913901"><ele>130.0</ele><time>2026-03-22T09:13:48.696Z</time></trkpt><trkpt lat="45.6656113" lon="11.3913427"><ele>130.0</ele><time>2026-03-22T09:13:49.697Z</time></trkpt><trkpt lat="45.6655462" lon="11.3912994"><ele>130.0</ele><time>2026-03-22T09:13:50.696Z</time></trkpt><trkpt lat="45.6654536" lon="11.3911975"><ele>130.0</ele><time>2026-03-22T09:13:52.696Z</time></trkpt><trkpt lat="45.665391" lon="11.391173"><ele>130.0</ele><time>2026-03-22T09:13:53.696Z</time></trkpt><trkpt lat="45.6653224" lon="11.3911577"><ele>130.0</ele><time>2026-03-22T09:13:54.696Z</time></trkpt><trkpt lat="45.6652524" lon="11.3911548"><ele>129.4</ele><time>2026-03-22T09:13:55.697Z</time></trkpt><trkpt lat="45.6651608" lon="11.3911988"><ele>128.8</ele><time>2026-03-22T09:13:57.697Z</time></trkpt><trkpt lat="45.6650495" lon="11.3912469"><ele>128.2</ele><time>2026-03-22T09:13:59.696Z</time></trkpt><trkpt lat="45.6649278" lon="11.391255"><ele>127.6</ele><time>2026-03-22T09:14:01.696Z</time></trkpt><trkpt lat="45.6648231" lon="11.3912349"><ele>127.0</ele><time>2026-03-22T09:14:03.697Z</time></trkpt><trkpt lat="45.6647165" lon="11.3912477"><ele>127.00000000000001</ele><time>2026-03-22T09:14:05.696Z</time></trkpt><trkpt lat="45.6646476" lon="11.3912581"><ele>127.0</ele><time>2026-03-22T09:14:06.697Z</time></trkpt><trkpt lat="45.6645278" lon="11.391248"><ele>127.0</ele><time>2026-03-22T09:14:08.696Z</time></trkpt><trkpt lat="45.6644628" lon="11.3912464"><ele>127.0</ele><time>2026-03-22T09:14:09.697Z</time></trkpt><trkpt lat="45.664342" lon="11.3912593"><ele>127.00000000000001</ele><time>2026-03-22T09:14:11.696Z</time></trkpt><trkpt lat="45.6642792" lon="11.3912836"><ele>127.0</ele><time>2026-03-22T09:14:12.695Z</time></trkpt><trkpt lat="45.6641629" lon="11.3912799"><ele>126.6</ele><time>2026-03-22T09:14:14.695Z</time></trkpt><trkpt lat="45.6640498" lon="11.3913191"><ele>126.19999999999999</ele><time>2026-03-22T09:14:16.697Z</time></trkpt><trkpt lat="45.6639165" lon="11.3913437"><ele>125.8</ele><time>2026-03-22T09:14:18.696Z</time></trkpt><trkpt lat="45.6638043" lon="11.3913367"><ele>125.4</ele><time>2026-03-22T09:14:20.696Z</time></trkpt><trkpt lat="45.6637302" lon="11.391338"><ele>125.0</ele><time>2026-03-22T09:14:21.696Z</time></trkpt><trkpt lat="45.6636647" lon="11.3913316"><ele>125.33333333333333</ele><time>2026-03-22T09:14:22.697Z</time></trkpt><trkpt lat="45.6635773" lon="11.3913432"><ele>125.66666666666666</ele><time>2026-03-22T09:14:24.695Z</time></trkpt><trkpt lat="45.6634892" lon="11.3913084"><ele>126.0</ele><time>2026-03-22T09:14:26.697Z</time></trkpt><trkpt lat="45.6634184" lon="11.3913345"><ele>126.33333333333334</ele><time>2026-03-22T09:14:28.696Z</time></trkpt><trkpt lat="45.6633517" lon="11.3913873"><ele>126.66666666666667</ele><time>2026-03-22T09:14:30.697Z</time></trkpt><trkpt lat="45.6632927" lon="11.3914517"><ele>127.0</ele><time>2026-03-22T09:14:32.696Z</time></trkpt><trkpt lat="45.6633063" lon="11.39154"><ele>127.00000000000001</ele><time>2026-03-22T09:14:34.695Z</time></trkpt><trkpt lat="45.6633607" lon="11.3916295"><ele>127.0</ele><time>2026-03-22T09:14:37.696Z</time></trkpt><trkpt lat="45.6634065" lon="11.3917096"><ele>127.0</ele><time>2026-03-22T09:14:39.697Z</time></trkpt><trkpt lat="45.6634479" lon="11.3917873"><ele>127.0</ele><time>2026-03-22T09:14:41.697Z</time></trkpt><trkpt lat="45.6634929" lon="11.3918744"><ele>127.00000000000001</ele><time>2026-03-22T09:14:43.695Z</time></trkpt><trkpt lat="45.6635382" lon="11.3919727"><ele>127.0</ele><time>2026-03-22T09:14:45.696Z</time></trkpt><trkpt lat="45.6635872" lon="11.3920802"><ele>127.00000000000001</ele><time>2026-03-22T09:14:47.695Z</time></trkpt><trkpt lat="45.6636445" lon="11.3921786"><ele>127.0</ele><time>2026-03-22T09:14:49.697Z</time></trkpt><trkpt lat="45.6636997" lon="11.392272"><ele>127.0</ele><time>2026-03-22T09:14:51.697Z</time></trkpt><trkpt lat="45.6637588" lon="11.3923597"><ele>127.0</ele><time>2026-03-22T09:14:53.696Z</time></trkpt><trkpt lat="45.6638233" lon="11.3924488"><ele>127.00000000000001</ele><time>2026-03-22T09:14:55.697Z</time></trkpt><trkpt lat="45.6638813" lon="11.3925314"><ele>127.0</ele><time>2026-03-22T09:14:57.696Z</time></trkpt><trkpt lat="45.6639402" lon="11.3926199"><ele>127.00000000000001</ele><time>2026-03-22T09:14:59.697Z</time></trkpt><trkpt lat="45.6640011" lon="11.392708"><ele>127.0</ele><time>2026-03-22T09:15:01.697Z</time></trkpt><trkpt lat="45.6640638" lon="11.3927938"><ele>127.0</ele><time>2026-03-22T09:15:03.696Z</time></trkpt><trkpt lat="45.6641257" lon="11.3928757"><ele>127.0</ele><time>2026-03-22T09:15:05.696Z</time></trkpt><trkpt lat="45.6641824" lon="11.3929536"><ele>127.00000000000001</ele><time>2026-03-22T09:15:07.696Z</time></trkpt><trkpt lat="45.6642352" lon="11.3930254"><ele>127.0</ele><time>2026-03-22T09:15:09.695Z</time></trkpt><trkpt lat="45.66429" lon="11.3930976"><ele>127.16666666666667</ele><time>2026-03-22T09:15:11.697Z</time></trkpt><trkpt lat="45.6643185" lon="11.3931904"><ele>127.33333333333334</ele><time>2026-03-22T09:15:13.696Z</time></trkpt><trkpt lat="45.6643417" lon="11.3933015"><ele>127.5</ele><time>2026-03-22T09:15:15.697Z</time></trkpt><trkpt lat="45.6643781" lon="11.3934102"><ele>127.66666666666666</ele><time>2026-03-22T09:15:17.695Z</time></trkpt><trkpt lat="45.6644174" lon="11.3935228"><ele>127.83333333333333</ele><time>2026-03-22T09:15:19.696Z</time></trkpt><trkpt lat="45.6644655" lon="11.3936299"><ele>128.0</ele><time>2026-03-22T09:15:21.697Z</time></trkpt><trkpt lat="45.6645173" lon="11.3937447"><ele>128.33333333333331</ele><time>2026-03-22T09:15:23.697Z</time></trkpt><trkpt lat="45.6645553" lon="11.3938452"><ele>128.66666666666666</ele><time>2026-03-22T09:15:25.696Z</time></trkpt><trkpt lat="45.6645983" lon="11.3939566"><ele>129.0</ele><time>2026-03-22T09:15:27.697Z</time></trkpt><trkpt lat="45.6646343" lon="11.3940558"><ele>129.33333333333334</ele><time>2026-03-22T09:15:29.695Z</time></trkpt><trkpt lat="45.6646739" lon="11.3941675"><ele>129.66666666666669</ele><time>2026-03-22T09:15:31.696Z</time></trkpt><trkpt lat="45.6647059" lon="11.3942752"><ele>130.0</ele><time>2026-03-22T09:15:33.695Z</time></trkpt><trkpt lat="45.6647534" lon="11.3943887"><ele>130.0</ele><time>2026-03-22T09:15:35.695Z</time></trkpt><trkpt lat="45.6647841" lon="11.3944929"><ele>130.0</ele><time>2026-03-22T09:15:37.697Z</time></trkpt><trkpt lat="45.6648258" lon="11.3945658"><ele>130.0</ele><time>2026-03-22T09:15:38.697Z</time></trkpt><trkpt lat="45.6648679" lon="11.3946579"><ele>130.0</ele><time>2026-03-22T09:15:40.696Z</time></trkpt><trkpt lat="45.664968" lon="11.3947715"><ele>130.0</ele><time>2026-03-22T09:15:42.697Z</time></trkpt><trkpt lat="45.6649929" lon="11.3948687"><ele>130.0</ele><time>2026-03-22T09:15:43.696Z</time></trkpt><trkpt lat="45.6650059" lon="11.3949716"><ele>131.66666666666669</ele><time>2026-03-22T09:15:45.697Z</time></trkpt><trkpt lat="45.6649165" lon="11.3949973"><ele>133.33333333333334</ele><time>2026-03-22T09:15:47.697Z</time></trkpt><trkpt lat="45.6648455" lon="11.3950198"><ele>135.0</ele><time>2026-03-22T09:15:49.697Z</time></trkpt><trkpt lat="45.6647701" lon="11.3950195"><ele>136.66666666666666</ele><time>2026-03-22T09:15:51.695Z</time></trkpt><trkpt lat="45.6647028" lon="11.3949991"><ele>138.33333333333331</ele><time>2026-03-22T09:15:52.697Z</time></trkpt><trkpt lat="45.6645967" lon="11.3949738"><ele>140.0</ele><time>2026-03-22T09:15:54.696Z</time></trkpt><trkpt lat="45.6645307" lon="11.3949891"><ele>140.0</ele><time>2026-03-22T09:15:56.695Z</time></trkpt><trkpt lat="45.664449" lon="11.3949872"><ele>140.0</ele><time>2026-03-22T09:15:58.696Z</time></trkpt><trkpt lat="45.6643827" lon="11.3949668"><ele>140.0</ele><time>2026-03-22T09:16:00.696Z</time></trkpt><trkpt lat="45.6642981" lon="11.3949371"><ele>140.0</ele><time>2026-03-22T09:16:01.697Z</time></trkpt><trkpt lat="45.664229" lon="11.3949488"><ele>140.0</ele><time>2026-03-22T09:16:02.697Z</time></trkpt><trkpt lat="45.6641194" lon="11.3949999"><ele>140.0</ele><time>2026-03-22T09:16:04.696Z</time></trkpt><trkpt lat="45.6640301" lon="11.3950475"><ele>139.33333333333331</ele><time>2026-03-22T09:16:06.696Z</time></trkpt><trkpt lat="45.6639866" lon="11.3951268"><ele>138.66666666666666</ele><time>2026-03-22T09:16:08.696Z</time></trkpt><trkpt lat="45.6639047" lon="11.3951454"><ele>138.0</ele><time>2026-03-22T09:16:11.697Z</time></trkpt><trkpt lat="45.6638295" lon="11.3951392"><ele>137.33333333333334</ele><time>2026-03-22T09:16:13.697Z</time></trkpt><trkpt lat="45.663766" lon="11.3951641"><ele>136.66666666666669</ele><time>2026-03-22T09:16:15.697Z</time></trkpt><trkpt lat="45.6636916" lon="11.395216"><ele>136.0</ele><time>2026-03-22T09:16:18.696Z</time></trkpt><trkpt lat="45.6636028" lon="11.3952264"><ele>135.66666666666669</ele><time>2026-03-22T09:16:21.697Z</time></trkpt><trkpt lat="45.6635233" lon="11.3952527"><ele>135.33333333333334</ele><time>2026-03-22T09:16:24.695Z</time></trkpt><trkpt lat="45.6634434" lon="11.3952633"><ele>135.0</ele><time>2026-03-22T09:16:26.696Z</time></trkpt><trkpt lat="45.6633521" lon="11.395278"><ele>134.66666666666666</ele><time>2026-03-22T09:16:29.697Z</time></trkpt><trkpt lat="45.6632875" lon="11.3953068"><ele>134.33333333333331</ele><time>2026-03-22T09:16:31.697Z</time></trkpt><trkpt lat="45.6632153" lon="11.3953402"><ele>134.0</ele><time>2026-03-22T09:16:33.696Z</time></trkpt><trkpt lat="45.6631551" lon="11.3953884"><ele>134.0</ele><time>2026-03-22T09:16:36.696Z</time></trkpt><trkpt lat="45.6630975" lon="11.395428"><ele>134.0</ele><time>2026-03-22T09:16:38.697Z</time></trkpt><trkpt lat="45.6630339" lon="11.395466"><ele>134.0</ele><time>2026-03-22T09:16:40.696Z</time></trkpt><trkpt lat="45.6629537" lon="11.395519"><ele>134.0</ele><time>2026-03-22T09:16:43.697Z</time></trkpt><trkpt lat="45.6628879" lon="11.3955513"><ele>134.0</ele><time>2026-03-22T09:16:45.695Z</time></trkpt><trkpt lat="45.6628224" lon="11.3955848"><ele>134.0</ele><time>2026-03-22T09:16:47.696Z</time></trkpt><trkpt lat="45.6627601" lon="11.3956345"><ele>134.0</ele><time>2026-03-22T09:16:49.696Z</time></trkpt><trkpt lat="45.6626909" lon="11.3956862"><ele>135.16666666666666</ele><time>2026-03-22T09:16:51.695Z</time></trkpt><trkpt lat="45.6626305" lon="11.3957326"><ele>136.33333333333331</ele><time>2026-03-22T09:16:53.696Z</time></trkpt><trkpt lat="45.6625752" lon="11.3957802"><ele>137.5</ele><time>2026-03-22T09:16:55.697Z</time></trkpt><trkpt lat="45.6625162" lon="11.3958409"><ele>138.66666666666666</ele><time>2026-03-22T09:16:57.697Z</time></trkpt><trkpt lat="45.6624515" lon="11.3959122"><ele>139.83333333333334</ele><time>2026-03-22T09:16:59.697Z</time></trkpt><trkpt lat="45.662372" lon="11.3959743"><ele>141.0</ele><time>2026-03-22T09:17:01.696Z</time></trkpt><trkpt lat="45.6622855" lon="11.3960667"><ele>141.0</ele><time>2026-03-22T09:17:03.697Z</time></trkpt><trkpt lat="45.6621988" lon="11.3961597"><ele>141.0</ele><time>2026-03-22T09:17:05.696Z</time></trkpt><trkpt lat="45.6621202" lon="11.3962343"><ele>141.0</ele><time>2026-03-22T09:17:07.696Z</time></trkpt><trkpt lat="45.6620415" lon="11.3963065"><ele>141.0</ele><time>2026-03-22T09:17:09.697Z</time></trkpt><trkpt lat="45.6619449" lon="11.3963721"><ele>141.0</ele><time>2026-03-22T09:17:11.695Z</time></trkpt><trkpt lat="45.6618804" lon="11.3964438"><ele>141.4</ele><time>2026-03-22T09:17:13.696Z</time></trkpt><trkpt lat="45.6617881" lon="11.3965476"><ele>141.8</ele><time>2026-03-22T09:17:16.697Z</time></trkpt><trkpt lat="45.6617037" lon="11.3965689"><ele>142.20000000000002</ele><time>2026-03-22T09:17:17.696Z</time></trkpt><trkpt lat="45.6616082" lon="11.396674"><ele>142.6</ele><time>2026-03-22T09:17:19.696Z</time></trkpt><trkpt lat="45.6615489" lon="11.3967395"><ele>143.0</ele><time>2026-03-22T09:17:20.696Z</time></trkpt><trkpt lat="45.6614829" lon="11.3967509"><ele>143.0</ele><time>2026-03-22T09:17:21.696Z</time></trkpt><trkpt lat="45.6613779" lon="11.3968065"><ele>143.0</ele><time>2026-03-22T09:17:23.695Z</time></trkpt><trkpt lat="45.6613062" lon="11.3968082"><ele>143.0</ele><time>2026-03-22T09:17:24.696Z</time></trkpt><trkpt lat="45.6611895" lon="11.3968514"><ele>143.0</ele><time>2026-03-22T09:17:26.697Z</time></trkpt><trkpt lat="45.6611232" lon="11.3969762"><ele>143.0</ele><time>2026-03-22T09:17:28.697Z</time></trkpt><trkpt lat="45.6610434" lon="11.3970718"><ele>142.20000000000002</ele><time>2026-03-22T09:17:30.696Z</time></trkpt><trkpt lat="45.6609678" lon="11.3971681"><ele>141.4</ele><time>2026-03-22T09:17:32.697Z</time></trkpt><trkpt lat="45.6609205" lon="11.3972708"><ele>140.60000000000002</ele><time>2026-03-22T09:17:34.697Z</time></trkpt><trkpt lat="45.6608604" lon="11.3973211"><ele>139.8</ele><time>2026-03-22T09:17:36.697Z</time></trkpt><trkpt lat="45.6607513" lon="11.3973452"><ele>139.0</ele><time>2026-03-22T09:17:39.696Z</time></trkpt><trkpt lat="45.6606558" lon="11.3973263"><ele>139.0</ele><time>2026-03-22T09:17:41.696Z</time></trkpt><trkpt lat="45.6605664" lon="11.3973834"><ele>139.0</ele><time>2026-03-22T09:17:43.696Z</time></trkpt><trkpt lat="45.6605035" lon="11.3974573"><ele>139.0</ele><time>2026-03-22T09:17:45.696Z</time></trkpt><trkpt lat="45.6604461" lon="11.3975339"><ele>139.0</ele><time>2026-03-22T09:17:47.695Z</time></trkpt><trkpt lat="45.6603561" lon="11.3975803"><ele>139.0</ele><time>2026-03-22T09:17:49.696Z</time></trkpt><trkpt lat="45.660263" lon="11.3976388"><ele>137.0</ele><time>2026-03-22T09:17:52.697Z</time></trkpt><trkpt lat="45.6601914" lon="11.3976837"><ele>135.0</ele><time>2026-03-22T09:17:54.697Z</time></trkpt><trkpt lat="45.6601188" lon="11.397735"><ele>133.0</ele><time>2026-03-22T09:17:56.696Z</time></trkpt><trkpt lat="45.6600227" lon="11.3978083"><ele>131.0</ele><time>2026-03-22T09:17:59.695Z</time></trkpt><trkpt lat="45.6599788" lon="11.3978954"><ele>129.0</ele><time>2026-03-22T09:18:02.697Z</time></trkpt><trkpt lat="45.6600187" lon="11.3980199"><ele>127.0</ele><time>2026-03-22T09:18:05.696Z</time></trkpt><trkpt lat="45.6600603" lon="11.3981355"><ele>127.00000000000001</ele><time>2026-03-22T09:18:07.696Z</time></trkpt><trkpt lat="45.6601055" lon="11.3982456"><ele>127.0</ele><time>2026-03-22T09:18:09.697Z</time></trkpt><trkpt lat="45.6601347" lon="11.3983474"><ele>127.0</ele><time>2026-03-22T09:18:11.695Z</time></trkpt><trkpt lat="45.6600845" lon="11.3984593"><ele>127.0</ele><time>2026-03-22T09:18:14.697Z</time></trkpt><trkpt lat="45.6600425" lon="11.3985419"><ele>127.00000000000001</ele><time>2026-03-22T09:18:16.697Z</time></trkpt><trkpt lat="45.660011" lon="11.3986391"><ele>127.0</ele><time>2026-03-22T09:18:18.696Z</time></trkpt><trkpt lat="45.6599842" lon="11.3987415"><ele>128.33333333333334</ele><time>2026-03-22T09:18:20.697Z</time></trkpt><trkpt lat="45.659961" lon="11.3988414"><ele>129.66666666666669</ele><time>2026-03-22T09:18:22.697Z</time></trkpt><trkpt lat="45.6599378" lon="11.3989426"><ele>131.0</ele><time>2026-03-22T09:18:24.696Z</time></trkpt><trkpt lat="45.6599179" lon="11.3990463"><ele>132.33333333333334</ele><time>2026-03-22T09:18:27.695Z</time></trkpt><trkpt lat="45.6599013" lon="11.3991596"><ele>133.66666666666666</ele><time>2026-03-22T09:18:30.697Z</time></trkpt><trkpt lat="45.6598697" lon="11.3992697"><ele>135.0</ele><time>2026-03-22T09:18:33.696Z</time></trkpt><trkpt lat="45.6598417" lon="11.3993645"><ele>135.0</ele><time>2026-03-22T09:18:36.696Z</time></trkpt><trkpt lat="45.6598254" lon="11.3994562"><ele>135.0</ele><time>2026-03-22T09:18:38.697Z</time></trkpt><trkpt lat="45.6598127" lon="11.3996039"><ele>135.0</ele><time>2026-03-22T09:18:40.696Z</time></trkpt><trkpt lat="45.6598101" lon="11.3997389"><ele>135.0</ele><time>2026-03-22T09:18:42.697Z</time></trkpt><trkpt lat="45.6598349" lon="11.3998313"><ele>135.0</ele><time>2026-03-22T09:18:44.697Z</time></trkpt><trkpt lat="45.6598962" lon="11.3999198"><ele>135.0</ele><time>2026-03-22T09:18:47.697Z</time></trkpt><trkpt lat="45.6599787" lon="11.3999829"><ele>133.83333333333334</ele><time>2026-03-22T09:18:50.696Z</time></trkpt><trkpt lat="45.6600324" lon="11.4000382"><ele>132.66666666666666</ele><time>2026-03-22T09:18:52.695Z</time></trkpt><trkpt lat="45.6600761" lon="11.4001085"><ele>131.5</ele><time>2026-03-22T09:18:54.695Z</time></trkpt><trkpt lat="45.6600704" lon="11.4002056"><ele>130.33333333333331</ele><time>2026-03-22T09:18:56.697Z</time></trkpt><trkpt lat="45.6599929" lon="11.4003087"><ele>129.16666666666666</ele><time>2026-03-22T09:18:58.697Z</time></trkpt><trkpt lat="45.6599013" lon="11.4004133"><ele>128.0</ele><time>2026-03-22T09:19:00.696Z</time></trkpt><trkpt lat="45.6598617" lon="11.4004871"><ele>126.80000000000001</ele><time>2026-03-22T09:19:01.697Z</time></trkpt><trkpt lat="45.6597865" lon="11.4006287"><ele>125.60000000000001</ele><time>2026-03-22T09:19:03.696Z</time></trkpt><trkpt lat="45.6597569" lon="11.4007129"><ele>124.39999999999999</ele><time>2026-03-22T09:19:04.696Z</time></trkpt><trkpt lat="45.6596917" lon="11.4008667"><ele>123.19999999999999</ele><time>2026-03-22T09:19:06.697Z</time></trkpt><trkpt lat="45.6596143" lon="11.4009743"><ele>122.0</ele><time>2026-03-22T09:19:08.697Z</time></trkpt><trkpt lat="45.6595495" lon="11.4010724"><ele>121.99999999999999</ele><time>2026-03-22T09:19:10.695Z</time></trkpt><trkpt lat="45.6594759" lon="11.4011073"><ele>122.0</ele><time>2026-03-22T09:19:12.697Z</time></trkpt><trkpt lat="45.6594055" lon="11.4011181"><ele>122.0</ele><time>2026-03-22T09:19:14.696Z</time></trkpt><trkpt lat="45.6593022" lon="11.4011536"><ele>122.0</ele><time>2026-03-22T09:19:16.696Z</time></trkpt><trkpt lat="45.6592299" lon="11.4012046"><ele>121.99999999999999</ele><time>2026-03-22T09:19:18.697Z</time></trkpt><trkpt lat="45.6591653" lon="11.4012427"><ele>122.0</ele><time>2026-03-22T09:19:20.697Z</time></trkpt><trkpt lat="45.659091" lon="11.4012915"><ele>121.57142857142856</ele><time>2026-03-22T09:19:22.696Z</time></trkpt><trkpt lat="45.6590298" lon="11.4013413"><ele>121.14285714285714</ele><time>2026-03-22T09:19:24.696Z</time></trkpt><trkpt lat="45.6589706" lon="11.4014148"><ele>120.71428571428571</ele><time>2026-03-22T09:19:26.696Z</time></trkpt><trkpt lat="45.658909" lon="11.4014696"><ele>120.28571428571428</ele><time>2026-03-22T09:19:28.697Z</time></trkpt><trkpt lat="45.6588402" lon="11.4015288"><ele>119.85714285714286</ele><time>2026-03-22T09:19:30.696Z</time></trkpt><trkpt lat="45.6587809" lon="11.4015741"><ele>119.42857142857143</ele><time>2026-03-22T09:19:32.696Z</time></trkpt><trkpt lat="45.6587184" lon="11.4016374"><ele>119.0</ele><time>2026-03-22T09:19:35.697Z</time></trkpt><trkpt lat="45.6586463" lon="11.4017321"><ele>118.83333333333333</ele><time>2026-03-22T09:19:38.697Z</time></trkpt><trkpt lat="45.6585863" lon="11.4017883"><ele>118.66666666666666</ele><time>2026-03-22T09:19:40.696Z</time></trkpt><trkpt lat="45.658516" lon="11.401841"><ele>118.5</ele><time>2026-03-22T09:19:42.697Z</time></trkpt><trkpt lat="45.658445" lon="11.4019017"><ele>118.33333333333334</ele><time>2026-03-22T09:19:44.696Z</time></trkpt><trkpt lat="45.6583746" lon="11.4019619"><ele>118.16666666666667</ele><time>2026-03-22T09:19:46.696Z</time></trkpt><trkpt lat="45.6583103" lon="11.4020219"><ele>118.0</ele><time>2026-03-22T09:19:48.696Z</time></trkpt><trkpt lat="45.6582416" lon="11.4020817"><ele>118.0</ele><time>2026-03-22T09:19:50.695Z</time></trkpt><trkpt lat="45.6581508" lon="11.4021554"><ele>118.00000000000001</ele><time>2026-03-22T09:19:52.695Z</time></trkpt><trkpt lat="45.6580688" lon="11.4022294"><ele>118.00000000000001</ele><time>2026-03-22T09:19:54.695Z</time></trkpt><trkpt lat="45.6579803" lon="11.40232"><ele>118.0</ele><time>2026-03-22T09:19:56.696Z</time></trkpt><trkpt lat="45.6578965" lon="11.4023686"><ele>118.0</ele><time>2026-03-22T09:19:58.696Z</time></trkpt><trkpt lat="45.6578222" lon="11.4024374"><ele>118.0</ele><time>2026-03-22T09:20:00.696Z</time></trkpt><trkpt lat="45.657759" lon="11.402444"><ele>118.0</ele><time>2026-03-22T09:20:02.696Z</time></trkpt><trkpt lat="45.6576989" lon="11.4024033"><ele>118.0</ele><time>2026-03-22T09:20:05.696Z</time></trkpt><trkpt lat="45.6576292" lon="11.4024852"><ele>118.0</ele><time>2026-03-22T09:20:08.695Z</time></trkpt><trkpt lat="45.6575693" lon="11.4025386"><ele>118.0</ele><time>2026-03-22T09:20:11.694Z</time></trkpt><trkpt lat="45.6574977" lon="11.4025499"><ele>118.0</ele><time>2026-03-22T09:20:15.696Z</time></trkpt><trkpt lat="45.6574305" lon="11.4025869"><ele>118.0</ele><time>2026-03-22T09:20:19.696Z</time></trkpt><trkpt lat="45.6573477" lon="11.4026288"><ele>118.0</ele><time>2026-03-22T09:20:21.696Z</time></trkpt><trkpt lat="45.6571957" lon="11.4027119"><ele>118.00000000000001</ele><time>2026-03-22T09:20:23.695Z</time></trkpt><trkpt lat="45.6571378" lon="11.4027617"><ele>118.00000000000001</ele><time>2026-03-22T09:20:25.695Z</time></trkpt><trkpt lat="45.6570608" lon="11.4028139"><ele>118.0</ele><time>2026-03-22T09:20:28.696Z</time></trkpt><trkpt lat="45.6569346" lon="11.4028644"><ele>118.0</ele><time>2026-03-22T09:20:31.695Z</time></trkpt><trkpt lat="45.6568394" lon="11.4029175"><ele>118.0</ele><time>2026-03-22T09:20:34.696Z</time></trkpt><trkpt lat="45.6567583" lon="11.4029461"><ele>118.0</ele><time>2026-03-22T09:20:37.695Z</time></trkpt><trkpt lat="45.6566866" lon="11.4029747"><ele>118.0</ele><time>2026-03-22T09:20:39.694Z</time></trkpt><trkpt lat="45.6566183" lon="11.403003"><ele>118.0</ele><time>2026-03-22T09:20:41.696Z</time></trkpt><trkpt lat="45.6565548" lon="11.4030151"><ele>118.0</ele><time>2026-03-22T09:20:43.696Z</time></trkpt><trkpt lat="45.6564863" lon="11.4030357"><ele>118.0</ele><time>2026-03-22T09:20:45.696Z</time></trkpt><trkpt lat="45.6564217" lon="11.4030985"><ele>118.0</ele><time>2026-03-22T09:20:47.696Z</time></trkpt><trkpt lat="45.6563966" lon="11.4032078"><ele>118.0</ele><time>2026-03-22T09:20:49.696Z</time></trkpt><trkpt lat="45.6563695" lon="11.4033044"><ele>118.00000000000001</ele><time>2026-03-22T09:20:51.695Z</time></trkpt><trkpt lat="45.6562931" lon="11.4033906"><ele>118.00000000000001</ele><time>2026-03-22T09:20:54.696Z</time></trkpt><trkpt lat="45.6561855" lon="11.4034277"><ele>118.0</ele><time>2026-03-22T09:20:56.694Z</time></trkpt><trkpt lat="45.656074" lon="11.4034558"><ele>118.0</ele><time>2026-03-22T09:20:58.695Z</time></trkpt><trkpt lat="45.6559516" lon="11.4034878"><ele>117.33333333333334</ele><time>2026-03-22T09:21:00.695Z</time></trkpt><trkpt lat="45.6558928" lon="11.4035217"><ele>116.66666666666667</ele><time>2026-03-22T09:21:01.695Z</time></trkpt><trkpt lat="45.6558296" lon="11.403547"><ele>116.0</ele><time>2026-03-22T09:21:02.695Z</time></trkpt><trkpt lat="45.6557666" lon="11.4035704"><ele>115.33333333333334</ele><time>2026-03-22T09:21:03.695Z</time></trkpt><trkpt lat="45.6556858" lon="11.4035914"><ele>114.66666666666667</ele><time>2026-03-22T09:21:04.696Z</time></trkpt><trkpt lat="45.6556193" lon="11.4036121"><ele>114.0</ele><time>2026-03-22T09:21:05.694Z</time></trkpt><trkpt lat="45.6554891" lon="11.4036785"><ele>114.0</ele><time>2026-03-22T09:21:07.695Z</time></trkpt><trkpt lat="45.6554121" lon="11.4037164"><ele>113.99999999999999</ele><time>2026-03-22T09:21:08.696Z</time></trkpt><trkpt lat="45.6553565" lon="11.4037728"><ele>114.0</ele><time>2026-03-22T09:21:09.695Z</time></trkpt><trkpt lat="45.6553064" lon="11.4038504"><ele>114.0</ele><time>2026-03-22T09:21:10.695Z</time></trkpt><trkpt lat="45.6552651" lon="11.403932"><ele>113.99999999999999</ele><time>2026-03-22T09:21:11.695Z</time></trkpt><trkpt lat="45.6552319" lon="11.4040108"><ele>114.0</ele><time>2026-03-22T09:21:12.695Z</time></trkpt><trkpt lat="45.6551935" lon="11.4040891"><ele>114.0</ele><time>2026-03-22T09:21:13.696Z</time></trkpt><trkpt lat="45.6551586" lon="11.4041659"><ele>113.0</ele><time>2026-03-22T09:21:14.695Z</time></trkpt><trkpt lat="45.6550896" lon="11.404317"><ele>112.0</ele><time>2026-03-22T09:21:16.695Z</time></trkpt><trkpt lat="45.6550155" lon="11.4044429"><ele>111.0</ele><time>2026-03-22T09:21:18.695Z</time></trkpt><trkpt lat="45.6549403" lon="11.4045321"><ele>110.0</ele><time>2026-03-22T09:21:20.695Z</time></trkpt><trkpt lat="45.6548644" lon="11.4046612"><ele>109.8</ele><time>2026-03-22T09:21:22.696Z</time></trkpt><trkpt lat="45.6548359" lon="11.404743"><ele>109.6</ele><time>2026-03-22T09:21:24.694Z</time></trkpt><trkpt lat="45.6547467" lon="11.4048901"><ele>109.4</ele><time>2026-03-22T09:21:27.695Z</time></trkpt><trkpt lat="45.6546892" lon="11.4050143"><ele>109.2</ele><time>2026-03-22T09:21:29.696Z</time></trkpt><trkpt lat="45.6546476" lon="11.4051292"><ele>109.0</ele><time>2026-03-22T09:21:31.696Z</time></trkpt><trkpt lat="45.6545836" lon="11.4051753"><ele>109.00000000000001</ele><time>2026-03-22T09:21:33.696Z</time></trkpt><trkpt lat="45.6544982" lon="11.4051458"><ele>109.0</ele><time>2026-03-22T09:21:36.696Z</time></trkpt><trkpt lat="45.6545373" lon="11.4052402"><ele>109.0</ele><time>2026-03-22T09:21:44.695Z</time></trkpt><trkpt lat="45.6546158" lon="11.4052887"><ele>109.0</ele><time>2026-03-22T09:21:46.696Z</time></trkpt><trkpt lat="45.6546885" lon="11.4053369"><ele>109.00000000000001</ele><time>2026-03-22T09:21:48.694Z</time></trkpt><trkpt lat="45.6547599" lon="11.405368"><ele>109.0</ele><time>2026-03-22T09:21:50.695Z</time></trkpt><trkpt lat="45.6548104" lon="11.4054332"><ele>109.16666666666667</ele><time>2026-03-22T09:21:52.696Z</time></trkpt><trkpt lat="45.6547974" lon="11.4055518"><ele>109.33333333333334</ele><time>2026-03-22T09:21:54.696Z</time></trkpt><trkpt lat="45.6547542" lon="11.4056391"><ele>109.5</ele><time>2026-03-22T09:21:56.696Z</time></trkpt><trkpt lat="45.6547164" lon="11.4057545"><ele>109.66666666666666</ele><time>2026-03-22T09:21:58.695Z</time></trkpt><trkpt lat="45.6546863" lon="11.405864"><ele>109.83333333333333</ele><time>2026-03-22T09:22:00.696Z</time></trkpt><trkpt lat="45.6546851" lon="11.4059653"><ele>110.0</ele><time>2026-03-22T09:22:04.695Z</time></trkpt><trkpt lat="45.6546611" lon="11.406081"><ele>109.99999999999999</ele><time>2026-03-22T09:22:08.694Z</time></trkpt><trkpt lat="45.6546334" lon="11.4062167"><ele>110.0</ele><time>2026-03-22T09:22:12.695Z</time></trkpt><trkpt lat="45.6546209" lon="11.4063074"><ele>110.0</ele><time>2026-03-22T09:22:13.695Z</time></trkpt><trkpt lat="45.6546057" lon="11.4064298"><ele>110.0</ele><time>2026-03-22T09:22:15.696Z</time></trkpt><trkpt lat="45.6546124" lon="11.406564"><ele>109.99999999999999</ele><time>2026-03-22T09:22:17.695Z</time></trkpt><trkpt lat="45.6546124" lon="11.4066676"><ele>110.0</ele><time>2026-03-22T09:22:18.695Z</time></trkpt><trkpt lat="45.6546051" lon="11.4067737"><ele>109.99999999999999</ele><time>2026-03-22T09:22:19.695Z</time></trkpt><trkpt lat="45.6545625" lon="11.4068627"><ele>110.0</ele><time>2026-03-22T09:22:20.694Z</time></trkpt><trkpt lat="45.6545482" lon="11.4069616"><ele>110.0</ele><time>2026-03-22T09:22:21.695Z</time></trkpt><trkpt lat="45.6545136" lon="11.4070471"><ele>110.0</ele><time>2026-03-22T09:22:22.695Z</time></trkpt><trkpt lat="45.6544751" lon="11.4072083"><ele>109.99999999999999</ele><time>2026-03-22T09:22:24.695Z</time></trkpt><trkpt lat="45.654429" lon="11.4073307"><ele>110.0</ele><time>2026-03-22T09:22:26.695Z</time></trkpt><trkpt lat="45.6544119" lon="11.40747"><ele>109.83333333333333</ele><time>2026-03-22T09:22:29.695Z</time></trkpt><trkpt lat="45.6543938" lon="11.4076084"><ele>109.66666666666666</ele><time>2026-03-22T09:22:32.694Z</time></trkpt><trkpt lat="45.6543387" lon="11.4077186"><ele>109.5</ele><time>2026-03-22T09:22:34.696Z</time></trkpt><trkpt lat="45.6542773" lon="11.4078407"><ele>109.33333333333334</ele><time>2026-03-22T09:22:36.695Z</time></trkpt><trkpt lat="45.6542223" lon="11.4079004"><ele>109.16666666666667</ele><time>2026-03-22T09:22:37.695Z</time></trkpt><trkpt lat="45.6541809" lon="11.4079982"><ele>109.0</ele><time>2026-03-22T09:22:39.696Z</time></trkpt><trkpt lat="45.6540695" lon="11.4081039"><ele>109.00000000000001</ele><time>2026-03-22T09:22:41.695Z</time></trkpt><trkpt lat="45.6539889" lon="11.4081346"><ele>109.0</ele><time>2026-03-22T09:22:42.695Z</time></trkpt><trkpt lat="45.6538873" lon="11.4082094"><ele>109.0</ele><time>2026-03-22T09:22:44.696Z</time></trkpt><trkpt lat="45.6538163" lon="11.4082947"><ele>109.0</ele><time>2026-03-22T09:22:46.696Z</time></trkpt><trkpt lat="45.6537586" lon="11.4083316"><ele>109.00000000000001</ele><time>2026-03-22T09:22:48.696Z</time></trkpt><trkpt lat="45.6536867" lon="11.4083734"><ele>109.0</ele><time>2026-03-22T09:22:50.694Z</time></trkpt><trkpt lat="45.65363" lon="11.4084473"><ele>108.66666666666667</ele><time>2026-03-22T09:22:52.696Z</time></trkpt><trkpt lat="45.6535617" lon="11.4085082"><ele>108.33333333333334</ele><time>2026-03-22T09:22:54.695Z</time></trkpt><trkpt lat="45.6535019" lon="11.4085626"><ele>108.0</ele><time>2026-03-22T09:22:56.696Z</time></trkpt><trkpt lat="45.6534098" lon="11.4086361"><ele>107.66666666666666</ele><time>2026-03-22T09:22:58.696Z</time></trkpt><trkpt lat="45.6533789" lon="11.4087152"><ele>107.33333333333333</ele><time>2026-03-22T09:22:59.696Z</time></trkpt><trkpt lat="45.6533114" lon="11.4088289"><ele>107.0</ele><time>2026-03-22T09:23:01.696Z</time></trkpt><trkpt lat="45.6532633" lon="11.4088943"><ele>106.99999999999999</ele><time>2026-03-22T09:23:03.696Z</time></trkpt><trkpt lat="45.6532353" lon="11.4089958"><ele>107.0</ele><time>2026-03-22T09:23:06.695Z</time></trkpt><trkpt lat="45.6532121" lon="11.4091276"><ele>107.0</ele><time>2026-03-22T09:23:09.694Z</time></trkpt><trkpt lat="45.6532047" lon="11.4092229"><ele>107.0</ele><time>2026-03-22T09:23:11.695Z</time></trkpt><trkpt lat="45.6531969" lon="11.4093517"><ele>106.99999999999999</ele><time>2026-03-22T09:23:14.694Z</time></trkpt><trkpt lat="45.6531812" lon="11.4094835"><ele>107.0</ele><time>2026-03-22T09:23:17.695Z</time></trkpt><trkpt lat="45.6531557" lon="11.4095679"><ele>106.99999999999999</ele><time>2026-03-22T09:23:19.697Z</time></trkpt><trkpt lat="45.653124" lon="11.4096474"><ele>107.0</ele><time>2026-03-22T09:23:21.695Z</time></trkpt><trkpt lat="45.6530682" lon="11.4097482"><ele>107.0</ele><time>2026-03-22T09:23:24.696Z</time></trkpt><trkpt lat="45.6530171" lon="11.4098462"><ele>107.0</ele><time>2026-03-22T09:23:27.696Z</time></trkpt><trkpt lat="45.6529653" lon="11.4099453"><ele>106.99999999999999</ele><time>2026-03-22T09:23:30.695Z</time></trkpt><trkpt lat="45.6529334" lon="11.410036"><ele>107.0</ele><time>2026-03-22T09:23:33.696Z</time></trkpt><trkpt lat="45.6529066" lon="11.4101565"><ele>106.8</ele><time>2026-03-22T09:23:36.695Z</time></trkpt><trkpt lat="45.6528793" lon="11.4102679"><ele>106.6</ele><time>2026-03-22T09:23:39.695Z</time></trkpt><trkpt lat="45.652825" lon="11.4103272"><ele>106.39999999999999</ele><time>2026-03-22T09:23:42.695Z</time></trkpt><trkpt lat="45.6527262" lon="11.4104221"><ele>106.19999999999999</ele><time>2026-03-22T09:23:45.696Z</time></trkpt><trkpt lat="45.6526726" lon="11.4104744"><ele>106.0</ele><time>2026-03-22T09:23:46.695Z</time></trkpt><trkpt lat="45.6525678" lon="11.410558"><ele>105.83333333333334</ele><time>2026-03-22T09:23:48.695Z</time></trkpt><trkpt lat="45.6524886" lon="11.4105905"><ele>105.66666666666667</ele><time>2026-03-22T09:23:49.696Z</time></trkpt><trkpt lat="45.6524306" lon="11.4106367"><ele>105.5</ele><time>2026-03-22T09:23:50.696Z</time></trkpt><trkpt lat="45.6523329" lon="11.4106932"><ele>105.33333333333334</ele><time>2026-03-22T09:23:52.696Z</time></trkpt><trkpt lat="45.65227" lon="11.4107528"><ele>105.16666666666667</ele><time>2026-03-22T09:23:54.696Z</time></trkpt><trkpt lat="45.6522086" lon="11.4108136"><ele>105.0</ele><time>2026-03-22T09:23:59.695Z</time></trkpt><trkpt lat="45.6522142" lon="11.4109375"><ele>105.0</ele><time>2026-03-22T09:24:03.694Z</time></trkpt><trkpt lat="45.6522566" lon="11.4110334"><ele>105.0</ele><time>2026-03-22T09:24:05.695Z</time></trkpt><trkpt lat="45.6522904" lon="11.4111413"><ele>105.0</ele><time>2026-03-22T09:24:07.696Z</time></trkpt><trkpt lat="45.6523035" lon="11.411279"><ele>105.0</ele><time>2026-03-22T09:24:09.696Z</time></trkpt><trkpt lat="45.6523431" lon="11.4114003"><ele>105.0</ele><time>2026-03-22T09:24:11.695Z</time></trkpt><trkpt lat="45.6523862" lon="11.4115251"><ele>104.4</ele><time>2026-03-22T09:24:13.696Z</time></trkpt><trkpt lat="45.6524189" lon="11.4116579"><ele>103.8</ele><time>2026-03-22T09:24:15.695Z</time></trkpt><trkpt lat="45.6524636" lon="11.4117894"><ele>103.19999999999999</ele><time>2026-03-22T09:24:17.695Z</time></trkpt><trkpt lat="45.6525111" lon="11.4119119"><ele>102.6</ele><time>2026-03-22T09:24:19.695Z</time></trkpt><trkpt lat="45.6525474" lon="11.4120388"><ele>102.0</ele><time>2026-03-22T09:24:21.696Z</time></trkpt><trkpt lat="45.6524944" lon="11.4121313"><ele>101.83333333333333</ele><time>2026-03-22T09:24:23.696Z</time></trkpt><trkpt lat="45.6524261" lon="11.4121866"><ele>101.66666666666666</ele><time>2026-03-22T09:24:25.695Z</time></trkpt><trkpt lat="45.6523579" lon="11.4122218"><ele>101.5</ele><time>2026-03-22T09:24:27.695Z</time></trkpt><trkpt lat="45.6522841" lon="11.4122522"><ele>101.33333333333333</ele><time>2026-03-22T09:24:29.696Z</time></trkpt><trkpt lat="45.6522145" lon="11.4122909"><ele>101.16666666666666</ele><time>2026-03-22T09:24:31.695Z</time></trkpt><trkpt lat="45.6521285" lon="11.4123196"><ele>101.0</ele><time>2026-03-22T09:24:33.695Z</time></trkpt><trkpt lat="45.6520483" lon="11.4123352"><ele>101.0</ele><time>2026-03-22T09:24:35.696Z</time></trkpt><trkpt lat="45.6519698" lon="11.412356"><ele>101.0</ele><time>2026-03-22T09:24:37.696Z</time></trkpt><trkpt lat="45.6518708" lon="11.4124214"><ele>101.0</ele><time>2026-03-22T09:24:39.696Z</time></trkpt><trkpt lat="45.6517895" lon="11.4124284"><ele>101.0</ele><time>2026-03-22T09:24:41.694Z</time></trkpt><trkpt lat="45.6517044" lon="11.4124809"><ele>101.0</ele><time>2026-03-22T09:24:43.695Z</time></trkpt><trkpt lat="45.6516253" lon="11.4125354"><ele>100.99999999999999</ele><time>2026-03-22T09:24:45.695Z</time></trkpt><trkpt lat="45.6515465" lon="11.412589"><ele>101.0</ele><time>2026-03-22T09:24:47.694Z</time></trkpt><trkpt lat="45.6514669" lon="11.4126497"><ele>101.0</ele><time>2026-03-22T09:24:49.695Z</time></trkpt><trkpt lat="45.6513886" lon="11.4127116"><ele>101.0</ele><time>2026-03-22T09:24:51.695Z</time></trkpt><trkpt lat="45.6513203" lon="11.4127687"><ele>100.99999999999999</ele><time>2026-03-22T09:24:53.695Z</time></trkpt><trkpt lat="45.6512485" lon="11.4128093"><ele>101.0</ele><time>2026-03-22T09:24:55.696Z</time></trkpt><trkpt lat="45.651175" lon="11.4128185"><ele>101.42857142857143</ele><time>2026-03-22T09:24:57.696Z</time></trkpt><trkpt lat="45.6511041" lon="11.4128312"><ele>101.85714285714286</ele><time>2026-03-22T09:24:59.696Z</time></trkpt><trkpt lat="45.6510406" lon="11.4128692"><ele>102.28571428571428</ele><time>2026-03-22T09:25:01.697Z</time></trkpt><trkpt lat="45.6509825" lon="11.4129148"><ele>102.71428571428572</ele><time>2026-03-22T09:25:03.696Z</time></trkpt><trkpt lat="45.6509188" lon="11.412955"><ele>103.14285714285715</ele><time>2026-03-22T09:25:05.695Z</time></trkpt><trkpt lat="45.6508547" lon="11.4129982"><ele>103.57142857142857</ele><time>2026-03-22T09:25:07.697Z</time></trkpt><trkpt lat="45.6507813" lon="11.4130432"><ele>104.0</ele><time>2026-03-22T09:25:09.695Z</time></trkpt><trkpt lat="45.6506982" lon="11.4130811"><ele>104.0</ele><time>2026-03-22T09:25:11.696Z</time></trkpt><trkpt lat="45.6506152" lon="11.4131449"><ele>104.0</ele><time>2026-03-22T09:25:13.696Z</time></trkpt><trkpt lat="45.6505173" lon="11.4131827"><ele>104.0</ele><time>2026-03-22T09:25:15.695Z</time></trkpt><trkpt lat="45.6503987" lon="11.4132143"><ele>104.0</ele><time>2026-03-22T09:25:17.697Z</time></trkpt><trkpt lat="45.6502867" lon="11.4132609"><ele>104.0</ele><time>2026-03-22T09:25:19.697Z</time></trkpt><trkpt lat="45.650195" lon="11.4133241"><ele>107.0</ele><time>2026-03-22T09:25:21.694Z</time></trkpt><trkpt lat="45.6500898" lon="11.4134175"><ele>110.0</ele><time>2026-03-22T09:25:23.697Z</time></trkpt><trkpt lat="45.6500064" lon="11.4135282"><ele>113.0</ele><time>2026-03-22T09:25:25.696Z</time></trkpt><trkpt lat="45.6499512" lon="11.4136636"><ele>116.0</ele><time>2026-03-22T09:25:27.693Z</time></trkpt><trkpt lat="45.6498872" lon="11.4138116"><ele>114.16666666666666</ele><time>2026-03-22T09:25:29.695Z</time></trkpt><trkpt lat="45.6498142" lon="11.4139134"><ele>112.33333333333333</ele><time>2026-03-22T09:25:31.694Z</time></trkpt><trkpt lat="45.6497602" lon="11.4139786"><ele>110.5</ele><time>2026-03-22T09:25:32.695Z</time></trkpt><trkpt lat="45.6497037" lon="11.4140535"><ele>108.66666666666666</ele><time>2026-03-22T09:25:33.695Z</time></trkpt><trkpt lat="45.6496484" lon="11.4141677"><ele>106.83333333333333</ele><time>2026-03-22T09:25:35.695Z</time></trkpt><trkpt lat="45.649604" lon="11.4142392"><ele>105.0</ele><time>2026-03-22T09:25:36.695Z</time></trkpt><trkpt lat="45.649608" lon="11.414343"><ele>105.0</ele><time>2026-03-22T09:25:38.695Z</time></trkpt><trkpt lat="45.6495465" lon="11.4144649"><ele>105.0</ele><time>2026-03-22T09:25:40.696Z</time></trkpt><trkpt lat="45.649523" lon="11.4146008"><ele>105.0</ele><time>2026-03-22T09:25:42.694Z</time></trkpt><trkpt lat="45.6494856" lon="11.4146957"><ele>105.0</ele><time>2026-03-22T09:25:44.695Z</time></trkpt><trkpt lat="45.6494123" lon="11.4148211"><ele>105.0</ele><time>2026-03-22T09:25:46.695Z</time></trkpt><trkpt lat="45.6493587" lon="11.4148817"><ele>107.0</ele><time>2026-03-22T09:25:47.695Z</time></trkpt><trkpt lat="45.6493239" lon="11.4149989"><ele>109.0</ele><time>2026-03-22T09:25:49.696Z</time></trkpt><trkpt lat="45.6492687" lon="11.415058"><ele>111.0</ele><time>2026-03-22T09:25:50.696Z</time></trkpt><trkpt lat="45.6492021" lon="11.4151428"><ele>113.0</ele><time>2026-03-22T09:25:52.694Z</time></trkpt><trkpt lat="45.6491108" lon="11.4152371"><ele>115.0</ele><time>2026-03-22T09:25:54.696Z</time></trkpt><trkpt lat="45.6490475" lon="11.4153303"><ele>115.0</ele><time>2026-03-22T09:25:56.696Z</time></trkpt><trkpt lat="45.6489742" lon="11.4154627"><ele>115.0</ele><time>2026-03-22T09:25:59.696Z</time></trkpt><trkpt lat="45.6489108" lon="11.415531"><ele>115.0</ele><time>2026-03-22T09:26:01.696Z</time></trkpt><trkpt lat="45.6488221" lon="11.4156116"><ele>115.0</ele><time>2026-03-22T09:26:03.695Z</time></trkpt><trkpt lat="45.6487678" lon="11.41566"><ele>115.0</ele><time>2026-03-22T09:26:04.694Z</time></trkpt><trkpt lat="45.6487198" lon="11.4157605"><ele>116.00000000000001</ele><time>2026-03-22T09:26:06.694Z</time></trkpt><trkpt lat="45.6486665" lon="11.4158568"><ele>117.0</ele><time>2026-03-22T09:26:08.695Z</time></trkpt><trkpt lat="45.6485821" lon="11.4159251"><ele>118.0</ele><time>2026-03-22T09:26:10.694Z</time></trkpt><trkpt lat="45.6485193" lon="11.4160173"><ele>119.0</ele><time>2026-03-22T09:26:12.694Z</time></trkpt><trkpt lat="45.6484647" lon="11.4160662"><ele>120.00000000000001</ele><time>2026-03-22T09:26:13.694Z</time></trkpt><trkpt lat="45.6483788" lon="11.4161572"><ele>121.0</ele><time>2026-03-22T09:26:15.695Z</time></trkpt><trkpt lat="45.6482978" lon="11.416208"><ele>121.0</ele><time>2026-03-22T09:26:17.695Z</time></trkpt><trkpt lat="45.6482069" lon="11.4162725"><ele>121.0</ele><time>2026-03-22T09:26:19.694Z</time></trkpt><trkpt lat="45.6481308" lon="11.4163408"><ele>121.0</ele><time>2026-03-22T09:26:21.695Z</time></trkpt><trkpt lat="45.6480304" lon="11.4164078"><ele>121.0</ele><time>2026-03-22T09:26:23.694Z</time></trkpt><trkpt lat="45.6479364" lon="11.4164713"><ele>121.0</ele><time>2026-03-22T09:26:25.695Z</time></trkpt><trkpt lat="45.6478445" lon="11.4165445"><ele>118.19999999999999</ele><time>2026-03-22T09:26:27.693Z</time></trkpt><trkpt lat="45.6477521" lon="11.4166039"><ele>115.39999999999999</ele><time>2026-03-22T09:26:29.695Z</time></trkpt><trkpt lat="45.6476444" lon="11.4166521"><ele>112.6</ele><time>2026-03-22T09:26:31.695Z</time></trkpt><trkpt lat="45.6475517" lon="11.4167216"><ele>109.8</ele><time>2026-03-22T09:26:33.695Z</time></trkpt><trkpt lat="45.6474426" lon="11.4167819"><ele>107.0</ele><time>2026-03-22T09:26:35.695Z</time></trkpt><trkpt lat="45.6473535" lon="11.4168332"><ele>106.99999999999999</ele><time>2026-03-22T09:26:38.694Z</time></trkpt><trkpt lat="45.6472801" lon="11.4169072"><ele>107.0</ele><time>2026-03-22T09:26:39.694Z</time></trkpt><trkpt lat="45.6472158" lon="11.416963"><ele>107.0</ele><time>2026-03-22T09:26:40.693Z</time></trkpt><trkpt lat="45.6471633" lon="11.4170395"><ele>107.0</ele><time>2026-03-22T09:26:41.693Z</time></trkpt><trkpt lat="45.647116" lon="11.4170995"><ele>106.99999999999999</ele><time>2026-03-22T09:26:42.695Z</time></trkpt><trkpt lat="45.6470302" lon="11.4172133"><ele>107.0</ele><time>2026-03-22T09:26:44.695Z</time></trkpt><trkpt lat="45.6469329" lon="11.4173471"><ele>106.49999999999999</ele><time>2026-03-22T09:26:46.694Z</time></trkpt><trkpt lat="45.6468853" lon="11.4174156"><ele>106.0</ele><time>2026-03-22T09:26:47.695Z</time></trkpt><trkpt lat="45.6468319" lon="11.4174846"><ele>105.5</ele><time>2026-03-22T09:26:48.694Z</time></trkpt><trkpt lat="45.6467537" lon="11.4176169"><ele>105.0</ele><time>2026-03-22T09:26:50.694Z</time></trkpt><trkpt lat="45.6466924" lon="11.4176658"><ele>104.49999999999999</ele><time>2026-03-22T09:26:51.695Z</time></trkpt><trkpt lat="45.646641" lon="11.4177219"><ele>104.0</ele><time>2026-03-22T09:26:52.695Z</time></trkpt><trkpt lat="45.6465441" lon="11.4178065"><ele>104.0</ele><time>2026-03-22T09:26:54.694Z</time></trkpt><trkpt lat="45.6464352" lon="11.4178796"><ele>104.0</ele><time>2026-03-22T09:26:56.694Z</time></trkpt><trkpt lat="45.6463374" lon="11.4179653"><ele>104.0</ele><time>2026-03-22T09:26:58.695Z</time></trkpt><trkpt lat="45.6462433" lon="11.4180453"><ele>104.0</ele><time>2026-03-22T09:27:00.695Z</time></trkpt><trkpt lat="45.6461496" lon="11.4181564"><ele>103.80000000000001</ele><time>2026-03-22T09:27:02.694Z</time></trkpt><trkpt lat="45.6460656" lon="11.4182711"><ele>103.60000000000001</ele><time>2026-03-22T09:27:04.694Z</time></trkpt><trkpt lat="45.6459974" lon="11.4184262"><ele>103.4</ele><time>2026-03-22T09:27:06.694Z</time></trkpt><trkpt lat="45.6459502" lon="11.4185158"><ele>103.2</ele><time>2026-03-22T09:27:08.693Z</time></trkpt><trkpt lat="45.6458922" lon="11.4186149"><ele>103.0</ele><time>2026-03-22T09:27:10.695Z</time></trkpt><trkpt lat="45.6458057" lon="11.4187402"><ele>102.25</ele><time>2026-03-22T09:27:12.695Z</time></trkpt><trkpt lat="45.6457471" lon="11.4188692"><ele>101.5</ele><time>2026-03-22T09:27:14.695Z</time></trkpt><trkpt lat="45.6456997" lon="11.4190003"><ele>100.75</ele><time>2026-03-22T09:27:16.694Z</time></trkpt><trkpt lat="45.6456461" lon="11.419158"><ele>100.0</ele><time>2026-03-22T09:27:18.695Z</time></trkpt><trkpt lat="45.6455942" lon="11.4193179"><ele>100.0</ele><time>2026-03-22T09:27:20.695Z</time></trkpt><trkpt lat="45.6455662" lon="11.4194016"><ele>100.0</ele><time>2026-03-22T09:27:21.694Z</time></trkpt><trkpt lat="45.6454982" lon="11.4195509"><ele>100.0</ele><time>2026-03-22T09:27:23.693Z</time></trkpt><trkpt lat="45.6454304" lon="11.4196887"><ele>100.0</ele><time>2026-03-22T09:27:25.693Z</time></trkpt><trkpt lat="45.6453333" lon="11.4197949"><ele>100.0</ele><time>2026-03-22T09:27:27.694Z</time></trkpt><trkpt lat="45.6452418" lon="11.4198771"><ele>101.6</ele><time>2026-03-22T09:27:29.695Z</time></trkpt><trkpt lat="45.6451476" lon="11.4199484"><ele>103.2</ele><time>2026-03-22T09:27:31.695Z</time></trkpt><trkpt lat="45.6450462" lon="11.4200307"><ele>104.80000000000001</ele><time>2026-03-22T09:27:33.695Z</time></trkpt><trkpt lat="45.644948" lon="11.4201126"><ele>106.4</ele><time>2026-03-22T09:27:35.697Z</time></trkpt><trkpt lat="45.6448818" lon="11.4201668"><ele>108.0</ele><time>2026-03-22T09:27:36.694Z</time></trkpt><trkpt lat="45.6448011" lon="11.4202664"><ele>108.0</ele><time>2026-03-22T09:27:38.694Z</time></trkpt><trkpt lat="45.6447073" lon="11.4203286"><ele>108.0</ele><time>2026-03-22T09:27:40.696Z</time></trkpt><trkpt lat="45.6446087" lon="11.4204311"><ele>108.0</ele><time>2026-03-22T09:27:42.696Z</time></trkpt><trkpt lat="45.6445069" lon="11.4205073"><ele>108.0</ele><time>2026-03-22T09:27:44.695Z</time></trkpt><trkpt lat="45.6444038" lon="11.4206062"><ele>108.60000000000001</ele><time>2026-03-22T09:27:46.694Z</time></trkpt><trkpt lat="45.6443339" lon="11.4206607"><ele>109.20000000000002</ele><time>2026-03-22T09:27:47.695Z</time></trkpt><trkpt lat="45.6442" lon="11.4207514"><ele>109.8</ele><time>2026-03-22T09:27:49.696Z</time></trkpt><trkpt lat="45.6441343" lon="11.4207846"><ele>110.4</ele><time>2026-03-22T09:27:50.696Z</time></trkpt><trkpt lat="45.6440256" lon="11.4208782"><ele>111.0</ele><time>2026-03-22T09:27:52.695Z</time></trkpt><trkpt lat="45.6439531" lon="11.420915"><ele>111.0</ele><time>2026-03-22T09:27:54.695Z</time></trkpt><trkpt lat="45.6438594" lon="11.4210038"><ele>111.0</ele><time>2026-03-22T09:27:56.696Z</time></trkpt><trkpt lat="45.6437601" lon="11.4211218"><ele>111.0</ele><time>2026-03-22T09:27:58.695Z</time></trkpt><trkpt lat="45.6436657" lon="11.4212383"><ele>111.0</ele><time>2026-03-22T09:28:00.696Z</time></trkpt><trkpt lat="45.6435822" lon="11.4213377"><ele>109.6</ele><time>2026-03-22T09:28:02.695Z</time></trkpt><trkpt lat="45.6434999" lon="11.4213944"><ele>108.19999999999999</ele><time>2026-03-22T09:28:04.696Z</time></trkpt><trkpt lat="45.6434288" lon="11.4214541"><ele>106.80000000000001</ele><time>2026-03-22T09:28:05.696Z</time></trkpt><trkpt lat="45.6433162" lon="11.421548"><ele>105.4</ele><time>2026-03-22T09:28:07.694Z</time></trkpt><trkpt lat="45.643256" lon="11.4216141"><ele>104.0</ele><time>2026-03-22T09:28:08.696Z</time></trkpt><trkpt lat="45.6431785" lon="11.4216594"><ele>104.0</ele><time>2026-03-22T09:28:09.694Z</time></trkpt><trkpt lat="45.643114" lon="11.4217119"><ele>104.0</ele><time>2026-03-22T09:28:10.696Z</time></trkpt><trkpt lat="45.6430523" lon="11.4217499"><ele>104.0</ele><time>2026-03-22T09:28:11.695Z</time></trkpt><trkpt lat="45.6429703" lon="11.4217502"><ele>104.0</ele><time>2026-03-22T09:28:12.695Z</time></trkpt><trkpt lat="45.6429079" lon="11.4217739"><ele>104.0</ele><time>2026-03-22T09:28:13.695Z</time></trkpt><trkpt lat="45.6428214" lon="11.4217567"><ele>104.0</ele><time>2026-03-22T09:28:14.697Z</time></trkpt><trkpt lat="45.6427582" lon="11.4217375"><ele>104.0</ele><time>2026-03-22T09:28:15.696Z</time></trkpt><trkpt lat="45.6426951" lon="11.421746"><ele>104.4</ele><time>2026-03-22T09:28:16.695Z</time></trkpt><trkpt lat="45.6425989" lon="11.421771"><ele>104.80000000000001</ele><time>2026-03-22T09:28:18.695Z</time></trkpt><trkpt lat="45.6424706" lon="11.4217694"><ele>105.19999999999999</ele><time>2026-03-22T09:28:20.696Z</time></trkpt><trkpt lat="45.6423389" lon="11.4217831"><ele>105.6</ele><time>2026-03-22T09:28:22.696Z</time></trkpt><trkpt lat="45.642272" lon="11.4217874"><ele>106.0</ele><time>2026-03-22T09:28:23.695Z</time></trkpt><trkpt lat="45.6421845" lon="11.4217789"><ele>106.00000000000001</ele><time>2026-03-22T09:28:24.696Z</time></trkpt><trkpt lat="45.6421205" lon="11.4217966"><ele>106.0</ele><time>2026-03-22T09:28:25.695Z</time></trkpt><trkpt lat="45.6420476" lon="11.4218293"><ele>106.0</ele><time>2026-03-22T09:28:26.693Z</time></trkpt><trkpt lat="45.6419842" lon="11.4218525"><ele>106.0</ele><time>2026-03-22T09:28:27.696Z</time></trkpt><trkpt lat="45.6418671" lon="11.4219148"><ele>106.00000000000001</ele><time>2026-03-22T09:28:29.693Z</time></trkpt><trkpt lat="45.6417983" lon="11.4219473"><ele>106.0</ele><time>2026-03-22T09:28:30.694Z</time></trkpt><trkpt lat="45.641718" lon="11.4220827"><ele>105.4</ele><time>2026-03-22T09:28:32.695Z</time></trkpt><trkpt lat="45.6416096" lon="11.4221074"><ele>104.8</ele><time>2026-03-22T09:28:34.695Z</time></trkpt><trkpt lat="45.6415453" lon="11.4220904"><ele>104.2</ele><time>2026-03-22T09:28:35.696Z</time></trkpt><trkpt lat="45.6414821" lon="11.4220713"><ele>103.60000000000001</ele><time>2026-03-22T09:28:36.695Z</time></trkpt><trkpt lat="45.6413671" lon="11.4220382"><ele>103.0</ele><time>2026-03-22T09:28:38.695Z</time></trkpt><trkpt lat="45.6412704" lon="11.4220862"><ele>101.2</ele><time>2026-03-22T09:28:40.695Z</time></trkpt><trkpt lat="45.6411829" lon="11.4221978"><ele>99.4</ele><time>2026-03-22T09:28:42.693Z</time></trkpt><trkpt lat="45.641108" lon="11.4222809"><ele>97.60000000000001</ele><time>2026-03-22T09:28:44.695Z</time></trkpt><trkpt lat="45.6410454" lon="11.4223916"><ele>95.80000000000001</ele><time>2026-03-22T09:28:46.695Z</time></trkpt><trkpt lat="45.6409855" lon="11.4224683"><ele>94.0</ele><time>2026-03-22T09:28:48.694Z</time></trkpt><trkpt lat="45.6409303" lon="11.4225381"><ele>93.80000000000001</ele><time>2026-03-22T09:28:50.695Z</time></trkpt><trkpt lat="45.6408629" lon="11.4226423"><ele>93.60000000000001</ele><time>2026-03-22T09:28:52.695Z</time></trkpt><trkpt lat="45.6407913" lon="11.4227408"><ele>93.4</ele><time>2026-03-22T09:28:54.695Z</time></trkpt><trkpt lat="45.6407024" lon="11.422846"><ele>93.2</ele><time>2026-03-22T09:28:56.694Z</time></trkpt><trkpt lat="45.6406057" lon="11.4229277"><ele>93.0</ele><time>2026-03-22T09:28:58.697Z</time></trkpt><trkpt lat="45.6405289" lon="11.4229806"><ele>93.0</ele><time>2026-03-22T09:29:00.696Z</time></trkpt><trkpt lat="45.6404789" lon="11.4230919"><ele>93.0</ele><time>2026-03-22T09:29:02.697Z</time></trkpt><trkpt lat="45.6404139" lon="11.4231842"><ele>93.0</ele><time>2026-03-22T09:29:04.694Z</time></trkpt><trkpt lat="45.6403581" lon="11.4232937"><ele>93.0</ele><time>2026-03-22T09:29:06.695Z</time></trkpt><trkpt lat="45.6402769" lon="11.4233405"><ele>93.0</ele><time>2026-03-22T09:29:08.693Z</time></trkpt><trkpt lat="45.6402094" lon="11.423311"><ele>93.0</ele><time>2026-03-22T09:29:10.695Z</time></trkpt><trkpt lat="45.6401692" lon="11.4232001"><ele>93.0</ele><time>2026-03-22T09:29:12.695Z</time></trkpt><trkpt lat="45.6401413" lon="11.4230907"><ele>93.0</ele><time>2026-03-22T09:29:14.696Z</time></trkpt><trkpt lat="45.6401029" lon="11.4229661"><ele>93.0</ele><time>2026-03-22T09:29:16.695Z</time></trkpt><trkpt lat="45.6400662" lon="11.4228618"><ele>93.0</ele><time>2026-03-22T09:29:18.694Z</time></trkpt><trkpt lat="45.6400409" lon="11.4227513"><ele>93.0</ele><time>2026-03-22T09:29:20.695Z</time></trkpt><trkpt lat="45.6400096" lon="11.4226503"><ele>93.0</ele><time>2026-03-22T09:29:22.696Z</time></trkpt><trkpt lat="45.6399721" lon="11.4225544"><ele>93.16666666666667</ele><time>2026-03-22T09:29:24.694Z</time></trkpt><trkpt lat="45.6399462" lon="11.4224466"><ele>93.33333333333333</ele><time>2026-03-22T09:29:26.696Z</time></trkpt><trkpt lat="45.6399205" lon="11.4223299"><ele>93.5</ele><time>2026-03-22T09:29:28.696Z</time></trkpt><trkpt lat="45.6398913" lon="11.4222321"><ele>93.66666666666666</ele><time>2026-03-22T09:29:30.694Z</time></trkpt><trkpt lat="45.6398533" lon="11.4221508"><ele>93.83333333333333</ele><time>2026-03-22T09:29:32.697Z</time></trkpt><trkpt lat="45.6398088" lon="11.4220711"><ele>94.0</ele><time>2026-03-22T09:29:34.695Z</time></trkpt><trkpt lat="45.6397645" lon="11.4219827"><ele>94.16666666666666</ele><time>2026-03-22T09:29:36.695Z</time></trkpt><trkpt lat="45.639723" lon="11.4218915"><ele>94.33333333333333</ele><time>2026-03-22T09:29:38.696Z</time></trkpt><trkpt lat="45.6396791" lon="11.421805"><ele>94.5</ele><time>2026-03-22T09:29:40.694Z</time></trkpt><trkpt lat="45.6396383" lon="11.4216962"><ele>94.66666666666667</ele><time>2026-03-22T09:29:42.694Z</time></trkpt><trkpt lat="45.6396026" lon="11.4215939"><ele>94.83333333333334</ele><time>2026-03-22T09:29:44.695Z</time></trkpt><trkpt lat="45.6395557" lon="11.4215004"><ele>95.0</ele><time>2026-03-22T09:29:46.695Z</time></trkpt><trkpt lat="45.6395081" lon="11.4214136"><ele>95.0</ele><time>2026-03-22T09:29:48.696Z</time></trkpt><trkpt lat="45.6394679" lon="11.4213249"><ele>95.0</ele><time>2026-03-22T09:29:50.696Z</time></trkpt><trkpt lat="45.6394361" lon="11.4212229"><ele>95.0</ele><time>2026-03-22T09:29:52.695Z</time></trkpt><trkpt lat="45.6394016" lon="11.4211162"><ele>95.0</ele><time>2026-03-22T09:29:54.693Z</time></trkpt><trkpt lat="45.6393682" lon="11.4210281"><ele>95.0</ele><time>2026-03-22T09:29:56.694Z</time></trkpt><trkpt lat="45.6393313" lon="11.4209495"><ele>95.0</ele><time>2026-03-22T09:29:58.696Z</time></trkpt><trkpt lat="45.6393044" lon="11.4208422"><ele>95.33333333333334</ele><time>2026-03-22T09:30:01.694Z</time></trkpt><trkpt lat="45.6392683" lon="11.4207542"><ele>95.66666666666667</ele><time>2026-03-22T09:30:04.696Z</time></trkpt><trkpt lat="45.639236" lon="11.4206471"><ele>96.0</ele><time>2026-03-22T09:30:07.693Z</time></trkpt><trkpt lat="45.6392105" lon="11.4205415"><ele>96.33333333333334</ele><time>2026-03-22T09:30:10.694Z</time></trkpt><trkpt lat="45.6391824" lon="11.4204343"><ele>96.66666666666667</ele><time>2026-03-22T09:30:13.696Z</time></trkpt><trkpt lat="45.6391621" lon="11.4203302"><ele>97.0</ele><time>2026-03-22T09:30:16.696Z</time></trkpt><trkpt lat="45.6391336" lon="11.420227"><ele>97.71428571428571</ele><time>2026-03-22T09:30:19.694Z</time></trkpt><trkpt lat="45.6390708" lon="11.4201566"><ele>98.42857142857143</ele><time>2026-03-22T09:30:22.695Z</time></trkpt><trkpt lat="45.6389967" lon="11.4201421"><ele>99.14285714285714</ele><time>2026-03-22T09:30:25.694Z</time></trkpt><trkpt lat="45.6389308" lon="11.4201457"><ele>99.85714285714286</ele><time>2026-03-22T09:30:28.694Z</time></trkpt><trkpt lat="45.6388689" lon="11.4201736"><ele>100.57142857142858</ele><time>2026-03-22T09:30:31.695Z</time></trkpt><trkpt lat="45.6387979" lon="11.4201763"><ele>101.28571428571429</ele><time>2026-03-22T09:30:35.696Z</time></trkpt><trkpt lat="45.6387315" lon="11.420126"><ele>102.0</ele><time>2026-03-22T09:30:39.695Z</time></trkpt><trkpt lat="45.6386529" lon="11.420108"><ele>102.57142857142857</ele><time>2026-03-22T09:30:43.694Z</time></trkpt><trkpt lat="45.6385832" lon="11.4200935"><ele>103.14285714285714</ele><time>2026-03-22T09:30:47.696Z</time></trkpt><trkpt lat="45.6385187" lon="11.4201019"><ele>103.71428571428572</ele><time>2026-03-22T09:30:51.696Z</time></trkpt><trkpt lat="45.6384471" lon="11.4200748"><ele>104.28571428571428</ele><time>2026-03-22T09:30:57.695Z</time></trkpt><trkpt lat="45.6383902" lon="11.4200197"><ele>104.85714285714285</ele><time>2026-03-22T09:31:02.695Z</time></trkpt><trkpt lat="45.6383285" lon="11.4199912"><ele>105.42857142857143</ele><time>2026-03-22T09:31:07.695Z</time></trkpt><trkpt lat="45.6382664" lon="11.4199464"><ele>106.0</ele><time>2026-03-22T09:31:13.696Z</time></trkpt><trkpt lat="45.6382098" lon="11.4198869"><ele>106.0</ele><time>2026-03-22T09:31:19.694Z</time></trkpt><trkpt lat="45.6381504" lon="11.4198384"><ele>106.0</ele><time>2026-03-22T09:31:25.695Z</time></trkpt><trkpt lat="45.6380861" lon="11.4197932"><ele>106.0</ele><time>2026-03-22T09:31:33.695Z</time></trkpt><trkpt lat="45.638024" lon="11.4197661"><ele>106.0</ele><time>2026-03-22T09:31:40.693Z</time></trkpt><trkpt lat="45.6379607" lon="11.4197493"><ele>106.0</ele><time>2026-03-22T09:31:46.695Z</time></trkpt><trkpt lat="45.6379032" lon="11.4197043"><ele>106.0</ele><time>2026-03-22T09:32:00.694Z</time></trkpt><trkpt lat="45.6379163" lon="11.4196038"><ele>106.0</ele><time>2026-03-22T09:32:05.695Z</time></trkpt><trkpt lat="45.6379357" lon="11.4194978"><ele>107.57142857142858</ele><time>2026-03-22T09:32:11.696Z</time></trkpt><trkpt lat="45.6379504" lon="11.4193966"><ele>109.14285714285714</ele><time>2026-03-22T09:32:16.695Z</time></trkpt><trkpt lat="45.6379755" lon="11.4192993"><ele>110.71428571428572</ele><time>2026-03-22T09:32:23.695Z</time></trkpt><trkpt lat="45.6379739" lon="11.4191969"><ele>112.28571428571429</ele><time>2026-03-22T09:32:29.696Z</time></trkpt><trkpt lat="45.6379585" lon="11.4190998"><ele>113.85714285714286</ele><time>2026-03-22T09:32:36.695Z</time></trkpt><trkpt lat="45.6379286" lon="11.4190085"><ele>115.42857142857143</ele><time>2026-03-22T09:32:44.695Z</time></trkpt><trkpt lat="45.6379003" lon="11.4189171"><ele>117.0</ele><time>2026-03-22T09:32:50.695Z</time></trkpt><trkpt lat="45.6378636" lon="11.4188287"><ele>118.5</ele><time>2026-03-22T09:32:56.696Z</time></trkpt><trkpt lat="45.6378422" lon="11.4187364"><ele>120.0</ele><time>2026-03-22T09:33:03.695Z</time></trkpt><trkpt lat="45.637818" lon="11.418639"><ele>121.5</ele><time>2026-03-22T09:33:08.694Z</time></trkpt><trkpt lat="45.6377527" lon="11.418586"><ele>123.0</ele><time>2026-03-22T09:33:14.694Z</time></trkpt><trkpt lat="45.6376739" lon="11.4185569"><ele>124.5</ele><time>2026-03-22T09:33:20.695Z</time></trkpt><trkpt lat="45.6375985" lon="11.4185233"><ele>126.0</ele><time>2026-03-22T09:33:24.695Z</time></trkpt><trkpt lat="45.637524" lon="11.4184973"><ele>126.0</ele><time>2026-03-22T09:33:28.694Z</time></trkpt><trkpt lat="45.6374516" lon="11.4184672"><ele>126.0</ele><time>2026-03-22T09:33:31.695Z</time></trkpt><trkpt lat="45.6373831" lon="11.4184516"><ele>126.0</ele><time>2026-03-22T09:33:33.694Z</time></trkpt><trkpt lat="45.6373077" lon="11.4183935"><ele>126.0</ele><time>2026-03-22T09:33:35.695Z</time></trkpt><trkpt lat="45.6372279" lon="11.4183449"><ele>126.0</ele><time>2026-03-22T09:33:37.695Z</time></trkpt><trkpt lat="45.6371361" lon="11.4183287"><ele>126.0</ele><time>2026-03-22T09:33:40.694Z</time></trkpt><trkpt lat="45.6370525" lon="11.4183318"><ele>126.33333333333333</ele><time>2026-03-22T09:33:42.693Z</time></trkpt><trkpt lat="45.6369674" lon="11.4183299"><ele>126.66666666666666</ele><time>2026-03-22T09:33:44.695Z</time></trkpt><trkpt lat="45.6368802" lon="11.4183375"><ele>127.0</ele><time>2026-03-22T09:33:46.693Z</time></trkpt><trkpt lat="45.6367835" lon="11.4183532"><ele>127.33333333333333</ele><time>2026-03-22T09:33:48.695Z</time></trkpt><trkpt lat="45.6367051" lon="11.4183447"><ele>127.66666666666666</ele><time>2026-03-22T09:33:51.694Z</time></trkpt><trkpt lat="45.6366121" lon="11.4183482"><ele>128.0</ele><time>2026-03-22T09:33:54.695Z</time></trkpt><trkpt lat="45.6365411" lon="11.4183387"><ele>127.99999999999999</ele><time>2026-03-22T09:33:57.694Z</time></trkpt><trkpt lat="45.6364445" lon="11.4183642"><ele>128.0</ele><time>2026-03-22T09:34:00.695Z</time></trkpt><trkpt lat="45.6363484" lon="11.4183773"><ele>128.0</ele><time>2026-03-22T09:34:03.695Z</time></trkpt><trkpt lat="45.636275" lon="11.4183979"><ele>128.0</ele><time>2026-03-22T09:34:05.695Z</time></trkpt><trkpt lat="45.6362109" lon="11.418405"><ele>127.99999999999999</ele><time>2026-03-22T09:34:07.695Z</time></trkpt><trkpt lat="45.636132" lon="11.4184159"><ele>128.0</ele><time>2026-03-22T09:34:10.695Z</time></trkpt><trkpt lat="45.6360516" lon="11.4184166"><ele>128.28571428571428</ele><time>2026-03-22T09:34:13.695Z</time></trkpt><trkpt lat="45.6359723" lon="11.4183991"><ele>128.57142857142856</ele><time>2026-03-22T09:34:16.694Z</time></trkpt><trkpt lat="45.6358877" lon="11.4184088"><ele>128.85714285714286</ele><time>2026-03-22T09:34:20.695Z</time></trkpt><trkpt lat="45.6358194" lon="11.4183951"><ele>129.14285714285714</ele><time>2026-03-22T09:34:24.693Z</time></trkpt><trkpt lat="45.6357534" lon="11.4183713"><ele>129.42857142857144</ele><time>2026-03-22T09:34:27.693Z</time></trkpt><trkpt lat="45.6356724" lon="11.4183772"><ele>129.71428571428572</ele><time>2026-03-22T09:34:31.695Z</time></trkpt><trkpt lat="45.6356063" lon="11.4183827"><ele>130.0</ele><time>2026-03-22T09:34:33.695Z</time></trkpt><trkpt lat="45.6355329" lon="11.4183659"><ele>130.00000000000003</ele><time>2026-03-22T09:34:35.694Z</time></trkpt><trkpt lat="45.6354776" lon="11.4182917"><ele>130.0</ele><time>2026-03-22T09:34:38.694Z</time></trkpt><trkpt lat="45.6354143" lon="11.4182385"><ele>130.0</ele><time>2026-03-22T09:34:41.695Z</time></trkpt><trkpt lat="45.6353511" lon="11.4181872"><ele>130.0</ele><time>2026-03-22T09:34:44.694Z</time></trkpt><trkpt lat="45.6352746" lon="11.4181388"><ele>130.0</ele><time>2026-03-22T09:34:49.694Z</time></trkpt><trkpt lat="45.6352115" lon="11.4181069"><ele>130.00000000000003</ele><time>2026-03-22T09:34:55.694Z</time></trkpt><trkpt lat="45.6351818" lon="11.4180264"><ele>130.0</ele><time>2026-03-22T09:35:03.694Z</time></trkpt><trkpt lat="45.6351198" lon="11.4179876"><ele>131.14285714285717</ele><time>2026-03-22T09:35:14.694Z</time></trkpt><trkpt lat="45.6350886" lon="11.4178981"><ele>132.28571428571428</ele><time>2026-03-22T09:35:19.694Z</time></trkpt><trkpt lat="45.6350248" lon="11.417839"><ele>133.42857142857144</ele><time>2026-03-22T09:35:23.694Z</time></trkpt><trkpt lat="45.6349632" lon="11.4178108"><ele>134.57142857142858</ele><time>2026-03-22T09:35:29.693Z</time></trkpt><trkpt lat="45.6349223" lon="11.4177142"><ele>135.71428571428572</ele><time>2026-03-22T09:35:35.695Z</time></trkpt><trkpt lat="45.6349026" lon="11.4176164"><ele>136.85714285714286</ele><time>2026-03-22T09:35:38.694Z</time></trkpt><trkpt lat="45.6348717" lon="11.4175031"><ele>138.0</ele><time>2026-03-22T09:35:41.694Z</time></trkpt><trkpt lat="45.634806" lon="11.4174503"><ele>138.0</ele><time>2026-03-22T09:35:44.694Z</time></trkpt><trkpt lat="45.634716" lon="11.4174299"><ele>138.0</ele><time>2026-03-22T09:35:46.694Z</time></trkpt><trkpt lat="45.6346444" lon="11.4174148"><ele>138.0</ele><time>2026-03-22T09:35:53.695Z</time></trkpt><trkpt lat="45.6345802" lon="11.4174062"><ele>138.0</ele><time>2026-03-22T09:35:58.695Z</time></trkpt><trkpt lat="45.6345122" lon="11.4173976"><ele>138.0</ele><time>2026-03-22T09:36:03.694Z</time></trkpt><trkpt lat="45.6344327" lon="11.4173853"><ele>138.0</ele><time>2026-03-22T09:36:09.695Z</time></trkpt><trkpt lat="45.6343696" lon="11.4173526"><ele>138.0</ele><time>2026-03-22T09:36:15.694Z</time></trkpt><trkpt lat="45.634316" lon="11.417291"><ele>137.42857142857144</ele><time>2026-03-22T09:36:21.693Z</time></trkpt><trkpt lat="45.6342963" lon="11.4171989"><ele>136.85714285714286</ele><time>2026-03-22T09:36:27.694Z</time></trkpt><trkpt lat="45.6342989" lon="11.4170925"><ele>136.28571428571428</ele><time>2026-03-22T09:36:35.694Z</time></trkpt><trkpt lat="45.6342886" lon="11.4169926"><ele>135.71428571428572</ele><time>2026-03-22T09:36:40.695Z</time></trkpt><trkpt lat="45.6342863" lon="11.4168914"><ele>135.14285714285714</ele><time>2026-03-22T09:36:45.695Z</time></trkpt><trkpt lat="45.6342845" lon="11.4167985"><ele>134.57142857142858</ele><time>2026-03-22T09:36:50.693Z</time></trkpt><trkpt lat="45.6342864" lon="11.4167029"><ele>134.0</ele><time>2026-03-22T09:36:55.694Z</time></trkpt><trkpt lat="45.6342821" lon="11.416596"><ele>135.42857142857144</ele><time>2026-03-22T09:37:01.695Z</time></trkpt><trkpt lat="45.6342672" lon="11.4164981"><ele>136.85714285714286</ele><time>2026-03-22T09:37:07.695Z</time></trkpt><trkpt lat="45.634239" lon="11.4164024"><ele>138.28571428571428</ele><time>2026-03-22T09:37:13.695Z</time></trkpt><trkpt lat="45.6342342" lon="11.4163081"><ele>139.71428571428572</ele><time>2026-03-22T09:37:19.694Z</time></trkpt><trkpt lat="45.6342608" lon="11.4162109"><ele>141.14285714285714</ele><time>2026-03-22T09:37:25.694Z</time></trkpt><trkpt lat="45.6342806" lon="11.4161239"><ele>142.57142857142858</ele><time>2026-03-22T09:37:30.695Z</time></trkpt><trkpt lat="45.6343125" lon="11.4160341"><ele>144.0</ele><time>2026-03-22T09:37:36.693Z</time></trkpt><trkpt lat="45.6343243" lon="11.4159453"><ele>153.0</ele><time>2026-03-22T09:37:40.694Z</time></trkpt><trkpt lat="45.6343025" lon="11.4158324"><ele>153.0</ele><time>2026-03-22T09:37:46.695Z</time></trkpt><trkpt lat="45.6342726" lon="11.4156903"><ele>153.0</ele><time>2026-03-22T09:37:47.694Z</time></trkpt><trkpt lat="45.6342883" lon="11.4156025"><ele>153.0</ele><time>2026-03-22T09:37:49.693Z</time></trkpt><trkpt lat="45.6343271" lon="11.4154864"><ele>153.0</ele><time>2026-03-22T09:37:52.694Z</time></trkpt><trkpt lat="45.6343104" lon="11.4153771"><ele>153.0</ele><time>2026-03-22T09:38:29.694Z</time></trkpt></trkseg></trk></gpx>